<?xml version="1.0" encoding="UTF-8" standalone="no" ?>
<gpx xmlns="http://www.topografix.com/GPX/1/1" xmlns:xsi="http://www.w3.org/2001/XMLSchema-instance" xsi:schemaLocation="http://www.topografix.com/GPX/1/1 http://www.topografix.com/GPX/1/1/gpx.xsd" version="1.1" creator="VisuGPX - https://www.visugpx.com">
  <metadata>
    <name>20180525-col-des-Lèques-Brayal</name>
    <desc><![CDATA[En partant Denis chute dans le torrent avec son VTT. Un peu plus loin des abeilles agressives attaquent Nicole et Janine ! Le col des Lèques atteint, nous poursuivons sur un sentier vers la forêt de pins à crochets. Arrêt pique-nique avant de repartir vers le site des Siréniens. Retour sur la route par un sentier capricieux, arrêts aux clues. André guide Daniel, Nicole, Denis, Cécile sur les chemins en passant par Brayal : 25 km, 800 m.]]></desc>
  </metadata>
  <trk>
    <name><![CDATA[20180525-095342-174829-x-cg-MNT-F]]></name>
    <trkseg>
      <trkpt lat="43.8377" lon="6.49588">
        <ele>719</ele>
        <time>2018-05-25T07:53:42Z</time>
      </trkpt>
      <trkpt lat="43.83776" lon="6.49585">
        <ele>719</ele>
        <time>2018-05-25T07:53:46Z</time>
      </trkpt>
      <trkpt lat="43.8378" lon="6.49582">
        <ele>719</ele>
        <time>2018-05-25T07:53:48Z</time>
      </trkpt>
      <trkpt lat="43.8378" lon="6.49562">
        <ele>718</ele>
        <time>2018-05-25T07:53:55Z</time>
      </trkpt>
      <trkpt lat="43.8377" lon="6.49517">
        <ele>716</ele>
        <time>2018-05-25T07:54:10Z</time>
      </trkpt>
      <trkpt lat="43.83768" lon="6.49501">
        <ele>716</ele>
        <time>2018-05-25T07:54:21Z</time>
      </trkpt>
      <trkpt lat="43.83769" lon="6.49497">
        <ele>716</ele>
        <time>2018-05-25T07:54:39Z</time>
      </trkpt>
      <trkpt lat="43.83778" lon="6.49479">
        <ele>715</ele>
        <time>2018-05-25T07:54:46Z</time>
      </trkpt>
      <trkpt lat="43.83838" lon="6.49456">
        <ele>716</ele>
        <time>2018-05-25T07:54:59Z</time>
      </trkpt>
      <trkpt lat="43.83856" lon="6.49454">
        <ele>717</ele>
        <time>2018-05-25T07:55:03Z</time>
      </trkpt>
      <trkpt lat="43.83892" lon="6.49454">
        <ele>717</ele>
        <time>2018-05-25T07:55:15Z</time>
      </trkpt>
      <trkpt lat="43.83915" lon="6.49455">
        <ele>717</ele>
        <time>2018-05-25T07:55:26Z</time>
      </trkpt>
      <trkpt lat="43.83936" lon="6.49457">
        <ele>717</ele>
        <time>2018-05-25T07:55:37Z</time>
      </trkpt>
      <trkpt lat="43.83952" lon="6.49473">
        <ele>717</ele>
        <time>2018-05-25T07:55:49Z</time>
      </trkpt>
      <trkpt lat="43.83957" lon="6.49507">
        <ele>718</ele>
        <time>2018-05-25T07:55:59Z</time>
      </trkpt>
      <trkpt lat="43.83957" lon="6.49511">
        <ele>718</ele>
        <time>2018-05-25T07:56:00Z</time>
      </trkpt>
      <trkpt lat="43.83974" lon="6.49551">
        <ele>718</ele>
        <time>2018-05-25T07:56:13Z</time>
      </trkpt>
      <trkpt lat="43.83977" lon="6.49554">
        <ele>718</ele>
        <time>2018-05-25T07:56:15Z</time>
      </trkpt>
      <trkpt lat="43.83968" lon="6.49569">
        <ele>718</ele>
        <time>2018-05-25T07:56:25Z</time>
      </trkpt>
      <trkpt lat="43.83972" lon="6.4958">
        <ele>719</ele>
        <time>2018-05-25T07:56:29Z</time>
      </trkpt>
      <trkpt lat="43.83988" lon="6.4962">
        <ele>719</ele>
        <time>2018-05-25T07:56:44Z</time>
      </trkpt>
      <trkpt lat="43.84008" lon="6.49664">
        <ele>719</ele>
        <time>2018-05-25T07:57:01Z</time>
      </trkpt>
      <trkpt lat="43.84023" lon="6.49697">
        <ele>719</ele>
        <time>2018-05-25T07:57:15Z</time>
      </trkpt>
      <trkpt lat="43.84035" lon="6.49729">
        <ele>719</ele>
        <time>2018-05-25T07:57:29Z</time>
      </trkpt>
      <trkpt lat="43.84054" lon="6.49776">
        <ele>719</ele>
        <time>2018-05-25T07:57:49Z</time>
      </trkpt>
      <trkpt lat="43.84073" lon="6.49823">
        <ele>719</ele>
        <time>2018-05-25T07:58:07Z</time>
      </trkpt>
      <trkpt lat="43.84096" lon="6.49874">
        <ele>720</ele>
        <time>2018-05-25T07:58:24Z</time>
      </trkpt>
      <trkpt lat="43.84115" lon="6.49917">
        <ele>719</ele>
        <time>2018-05-25T07:58:39Z</time>
      </trkpt>
      <trkpt lat="43.84129" lon="6.49952">
        <ele>720</ele>
        <time>2018-05-25T07:58:51Z</time>
      </trkpt>
      <trkpt lat="43.84153" lon="6.50004">
        <ele>719</ele>
        <time>2018-05-25T07:59:07Z</time>
      </trkpt>
      <trkpt lat="43.84178" lon="6.50066">
        <ele>719</ele>
        <time>2018-05-25T07:59:24Z</time>
      </trkpt>
      <trkpt lat="43.84205" lon="6.50129">
        <ele>719</ele>
        <time>2018-05-25T07:59:42Z</time>
      </trkpt>
      <trkpt lat="43.84228" lon="6.50183">
        <ele>719</ele>
        <time>2018-05-25T07:59:57Z</time>
      </trkpt>
      <trkpt lat="43.84256" lon="6.50249">
        <ele>719</ele>
        <time>2018-05-25T08:00:15Z</time>
      </trkpt>
      <trkpt lat="43.84283" lon="6.50313">
        <ele>719</ele>
        <time>2018-05-25T08:00:33Z</time>
      </trkpt>
      <trkpt lat="43.84302" lon="6.50356">
        <ele>719</ele>
        <time>2018-05-25T08:00:47Z</time>
      </trkpt>
      <trkpt lat="43.84311" lon="6.50377">
        <ele>719</ele>
        <time>2018-05-25T08:00:55Z</time>
      </trkpt>
      <trkpt lat="43.84312" lon="6.5038">
        <ele>719</ele>
        <time>2018-05-25T08:00:56Z</time>
      </trkpt>
      <trkpt lat="43.84312" lon="6.50382">
        <ele>719</ele>
        <time>2018-05-25T08:00:57Z</time>
      </trkpt>
      <trkpt lat="43.84312" lon="6.50384">
        <ele>719</ele>
        <time>2018-05-25T08:00:58Z</time>
      </trkpt>
      <trkpt lat="43.84313" lon="6.50386">
        <ele>719</ele>
        <time>2018-05-25T08:00:59Z</time>
      </trkpt>
      <trkpt lat="43.84314" lon="6.50388">
        <ele>719</ele>
        <time>2018-05-25T08:01:00Z</time>
      </trkpt>
      <trkpt lat="43.84315" lon="6.5039">
        <ele>719</ele>
        <time>2018-05-25T08:01:01Z</time>
      </trkpt>
      <trkpt lat="43.84317" lon="6.50391">
        <ele>719</ele>
        <time>2018-05-25T08:01:02Z</time>
      </trkpt>
      <trkpt lat="43.84318" lon="6.50393">
        <ele>719</ele>
        <time>2018-05-25T08:01:03Z</time>
      </trkpt>
      <trkpt lat="43.84319" lon="6.50396">
        <ele>719</ele>
        <time>2018-05-25T08:01:04Z</time>
      </trkpt>
      <trkpt lat="43.8432" lon="6.50399">
        <ele>719</ele>
        <time>2018-05-25T08:01:05Z</time>
      </trkpt>
      <trkpt lat="43.84321" lon="6.50401">
        <ele>719</ele>
        <time>2018-05-25T08:01:06Z</time>
      </trkpt>
      <trkpt lat="43.84322" lon="6.50403">
        <ele>719</ele>
        <time>2018-05-25T08:01:07Z</time>
      </trkpt>
      <trkpt lat="43.84323" lon="6.50406">
        <ele>719</ele>
        <time>2018-05-25T08:01:08Z</time>
      </trkpt>
      <trkpt lat="43.84326" lon="6.50406">
        <ele>719</ele>
        <time>2018-05-25T08:01:09Z</time>
      </trkpt>
      <trkpt lat="43.84328" lon="6.50406">
        <ele>719</ele>
        <time>2018-05-25T08:01:10Z</time>
      </trkpt>
      <trkpt lat="43.84358" lon="6.504">
        <ele>719</ele>
        <time>2018-05-25T08:01:25Z</time>
      </trkpt>
      <trkpt lat="43.84388" lon="6.50394">
        <ele>719</ele>
        <time>2018-05-25T08:01:37Z</time>
      </trkpt>
      <trkpt lat="43.8443" lon="6.50388">
        <ele>719</ele>
        <time>2018-05-25T08:01:52Z</time>
      </trkpt>
      <trkpt lat="43.8447" lon="6.50382">
        <ele>718</ele>
        <time>2018-05-25T08:02:07Z</time>
      </trkpt>
      <trkpt lat="43.84496" lon="6.50377">
        <ele>718</ele>
        <time>2018-05-25T08:02:19Z</time>
      </trkpt>
      <trkpt lat="43.84506" lon="6.50374">
        <ele>718</ele>
        <time>2018-05-25T08:02:30Z</time>
      </trkpt>
      <trkpt lat="43.84513" lon="6.50371">
        <ele>718</ele>
        <time>2018-05-25T08:02:44Z</time>
      </trkpt>
      <trkpt lat="43.84539" lon="6.50362">
        <ele>719</ele>
        <time>2018-05-25T08:02:56Z</time>
      </trkpt>
      <trkpt lat="43.8456" lon="6.50357">
        <ele>720</ele>
        <time>2018-05-25T08:03:07Z</time>
      </trkpt>
      <trkpt lat="43.84567" lon="6.50355">
        <ele>720</ele>
        <time>2018-05-25T08:03:19Z</time>
      </trkpt>
      <trkpt lat="43.84592" lon="6.50348">
        <ele>722</ele>
        <time>2018-05-25T08:03:32Z</time>
      </trkpt>
      <trkpt lat="43.84608" lon="6.50346">
        <ele>723</ele>
        <time>2018-05-25T08:03:45Z</time>
      </trkpt>
      <trkpt lat="43.84609" lon="6.50345">
        <ele>723</ele>
        <time>2018-05-25T08:03:46Z</time>
      </trkpt>
      <trkpt lat="43.84619" lon="6.50344">
        <ele>724</ele>
        <time>2018-05-25T08:03:52Z</time>
      </trkpt>
      <trkpt lat="43.84633" lon="6.50339">
        <ele>725</ele>
        <time>2018-05-25T08:04:07Z</time>
      </trkpt>
      <trkpt lat="43.84637" lon="6.50337">
        <ele>725</ele>
        <time>2018-05-25T08:04:12Z</time>
      </trkpt>
      <trkpt lat="43.84648" lon="6.50334">
        <ele>726</ele>
        <time>2018-05-25T08:04:27Z</time>
      </trkpt>
      <trkpt lat="43.84654" lon="6.50334">
        <ele>727</ele>
        <time>2018-05-25T08:04:40Z</time>
      </trkpt>
      <trkpt lat="43.84654" lon="6.50335">
        <ele>727</ele>
        <time>2018-05-25T08:05:17Z</time>
      </trkpt>
      <trkpt lat="43.84656" lon="6.50334">
        <ele>727</ele>
        <time>2018-05-25T08:05:57Z</time>
      </trkpt>
      <trkpt lat="43.84655" lon="6.50335">
        <ele>727</ele>
        <time>2018-05-25T08:06:32Z</time>
      </trkpt>
      <trkpt lat="43.84655" lon="6.50336">
        <ele>727</ele>
        <time>2018-05-25T08:07:14Z</time>
      </trkpt>
      <trkpt lat="43.84655" lon="6.50336">
        <ele>727</ele>
        <time>2018-05-25T08:07:48Z</time>
      </trkpt>
      <trkpt lat="43.84656" lon="6.50336">
        <ele>727</ele>
        <time>2018-05-25T08:08:34Z</time>
      </trkpt>
      <trkpt lat="43.84661" lon="6.50334">
        <ele>727</ele>
        <time>2018-05-25T08:08:57Z</time>
      </trkpt>
      <trkpt lat="43.84672" lon="6.50328">
        <ele>728</ele>
        <time>2018-05-25T08:09:14Z</time>
      </trkpt>
      <trkpt lat="43.84679" lon="6.50326">
        <ele>728</ele>
        <time>2018-05-25T08:09:28Z</time>
      </trkpt>
      <trkpt lat="43.84684" lon="6.50325">
        <ele>729</ele>
        <time>2018-05-25T08:09:40Z</time>
      </trkpt>
      <trkpt lat="43.84694" lon="6.50325">
        <ele>729</ele>
        <time>2018-05-25T08:09:55Z</time>
      </trkpt>
      <trkpt lat="43.84702" lon="6.50325">
        <ele>730</ele>
        <time>2018-05-25T08:10:09Z</time>
      </trkpt>
      <trkpt lat="43.84708" lon="6.50318">
        <ele>730</ele>
        <time>2018-05-25T08:10:23Z</time>
      </trkpt>
      <trkpt lat="43.84712" lon="6.50313">
        <ele>730</ele>
        <time>2018-05-25T08:10:39Z</time>
      </trkpt>
      <trkpt lat="43.84716" lon="6.50315">
        <ele>730</ele>
        <time>2018-05-25T08:10:59Z</time>
      </trkpt>
      <trkpt lat="43.84727" lon="6.50312">
        <ele>731</ele>
        <time>2018-05-25T08:11:13Z</time>
      </trkpt>
      <trkpt lat="43.84735" lon="6.50308">
        <ele>731</ele>
        <time>2018-05-25T08:11:21Z</time>
      </trkpt>
      <trkpt lat="43.84748" lon="6.50304">
        <ele>731</ele>
        <time>2018-05-25T08:11:37Z</time>
      </trkpt>
      <trkpt lat="43.84755" lon="6.503">
        <ele>731</ele>
        <time>2018-05-25T08:11:50Z</time>
      </trkpt>
      <trkpt lat="43.84763" lon="6.50298">
        <ele>731</ele>
        <time>2018-05-25T08:12:07Z</time>
      </trkpt>
      <trkpt lat="43.84763" lon="6.50295">
        <ele>731</ele>
        <time>2018-05-25T08:12:24Z</time>
      </trkpt>
      <trkpt lat="43.84764" lon="6.50293">
        <ele>731</ele>
        <time>2018-05-25T08:12:43Z</time>
      </trkpt>
      <trkpt lat="43.84764" lon="6.50293">
        <ele>731</ele>
        <time>2018-05-25T08:13:05Z</time>
      </trkpt>
      <trkpt lat="43.84763" lon="6.5029">
        <ele>731</ele>
        <time>2018-05-25T08:13:27Z</time>
      </trkpt>
      <trkpt lat="43.84762" lon="6.50291">
        <ele>731</ele>
        <time>2018-05-25T08:13:48Z</time>
      </trkpt>
      <trkpt lat="43.84763" lon="6.50288">
        <ele>731</ele>
        <time>2018-05-25T08:14:10Z</time>
      </trkpt>
      <trkpt lat="43.84763" lon="6.50287">
        <ele>731</ele>
        <time>2018-05-25T08:14:22Z</time>
      </trkpt>
      <trkpt lat="43.84764" lon="6.50287">
        <ele>731</ele>
        <time>2018-05-25T08:14:39Z</time>
      </trkpt>
      <trkpt lat="43.84763" lon="6.50289">
        <ele>731</ele>
        <time>2018-05-25T08:14:59Z</time>
      </trkpt>
      <trkpt lat="43.84763" lon="6.50289">
        <ele>731</ele>
        <time>2018-05-25T08:15:20Z</time>
      </trkpt>
      <trkpt lat="43.84763" lon="6.50291">
        <ele>731</ele>
        <time>2018-05-25T08:15:55Z</time>
      </trkpt>
      <trkpt lat="43.84762" lon="6.5029">
        <ele>731</ele>
        <time>2018-05-25T08:16:25Z</time>
      </trkpt>
      <trkpt lat="43.84765" lon="6.50292">
        <ele>731</ele>
        <time>2018-05-25T08:17:01Z</time>
      </trkpt>
      <trkpt lat="43.84763" lon="6.50292">
        <ele>731</ele>
        <time>2018-05-25T08:17:29Z</time>
      </trkpt>
      <trkpt lat="43.84763" lon="6.50291">
        <ele>731</ele>
        <time>2018-05-25T08:18:00Z</time>
      </trkpt>
      <trkpt lat="43.84763" lon="6.50288">
        <ele>731</ele>
        <time>2018-05-25T08:18:26Z</time>
      </trkpt>
      <trkpt lat="43.84764" lon="6.50288">
        <ele>731</ele>
        <time>2018-05-25T08:18:53Z</time>
      </trkpt>
      <trkpt lat="43.84763" lon="6.5029">
        <ele>731</ele>
        <time>2018-05-25T08:19:18Z</time>
      </trkpt>
      <trkpt lat="43.84765" lon="6.50292">
        <ele>731</ele>
        <time>2018-05-25T08:19:46Z</time>
      </trkpt>
      <trkpt lat="43.84763" lon="6.5029">
        <ele>731</ele>
        <time>2018-05-25T08:20:13Z</time>
      </trkpt>
      <trkpt lat="43.84762" lon="6.50291">
        <ele>731</ele>
        <time>2018-05-25T08:20:46Z</time>
      </trkpt>
      <trkpt lat="43.84764" lon="6.50291">
        <ele>731</ele>
        <time>2018-05-25T08:21:02Z</time>
      </trkpt>
      <trkpt lat="43.84766" lon="6.50293">
        <ele>731</ele>
        <time>2018-05-25T08:21:17Z</time>
      </trkpt>
      <trkpt lat="43.84766" lon="6.50294">
        <ele>731</ele>
        <time>2018-05-25T08:21:25Z</time>
      </trkpt>
      <trkpt lat="43.84768" lon="6.5032">
        <ele>732</ele>
        <time>2018-05-25T08:21:31Z</time>
      </trkpt>
      <trkpt lat="43.84769" lon="6.50327">
        <ele>732</ele>
        <time>2018-05-25T08:21:32Z</time>
      </trkpt>
      <trkpt lat="43.8477" lon="6.50333">
        <ele>732</ele>
        <time>2018-05-25T08:21:33Z</time>
      </trkpt>
      <trkpt lat="43.84772" lon="6.50341">
        <ele>732</ele>
        <time>2018-05-25T08:21:34Z</time>
      </trkpt>
      <trkpt lat="43.84774" lon="6.50347">
        <ele>732</ele>
        <time>2018-05-25T08:21:35Z</time>
      </trkpt>
      <trkpt lat="43.84777" lon="6.50354">
        <ele>732</ele>
        <time>2018-05-25T08:21:36Z</time>
      </trkpt>
      <trkpt lat="43.84787" lon="6.50376">
        <ele>733</ele>
        <time>2018-05-25T08:21:40Z</time>
      </trkpt>
      <trkpt lat="43.84791" lon="6.50379">
        <ele>733</ele>
        <time>2018-05-25T08:21:41Z</time>
      </trkpt>
      <trkpt lat="43.84803" lon="6.5039">
        <ele>735</ele>
        <time>2018-05-25T08:21:51Z</time>
      </trkpt>
      <trkpt lat="43.84803" lon="6.50388">
        <ele>735</ele>
        <time>2018-05-25T08:22:19Z</time>
      </trkpt>
      <trkpt lat="43.84804" lon="6.50394">
        <ele>736</ele>
        <time>2018-05-25T08:22:39Z</time>
      </trkpt>
      <trkpt lat="43.84803" lon="6.50396">
        <ele>735</ele>
        <time>2018-05-25T08:22:40Z</time>
      </trkpt>
      <trkpt lat="43.84802" lon="6.50398">
        <ele>735</ele>
        <time>2018-05-25T08:22:41Z</time>
      </trkpt>
      <trkpt lat="43.84802" lon="6.50401">
        <ele>735</ele>
        <time>2018-05-25T08:22:42Z</time>
      </trkpt>
      <trkpt lat="43.84801" lon="6.50404">
        <ele>736</ele>
        <time>2018-05-25T08:22:43Z</time>
      </trkpt>
      <trkpt lat="43.84801" lon="6.50406">
        <ele>735</ele>
        <time>2018-05-25T08:22:44Z</time>
      </trkpt>
      <trkpt lat="43.848" lon="6.50408">
        <ele>736</ele>
        <time>2018-05-25T08:22:45Z</time>
      </trkpt>
      <trkpt lat="43.84801" lon="6.50409">
        <ele>736</ele>
        <time>2018-05-25T08:22:46Z</time>
      </trkpt>
      <trkpt lat="43.84802" lon="6.50409">
        <ele>736</ele>
        <time>2018-05-25T08:22:47Z</time>
      </trkpt>
      <trkpt lat="43.84803" lon="6.50407">
        <ele>736</ele>
        <time>2018-05-25T08:22:48Z</time>
      </trkpt>
      <trkpt lat="43.84803" lon="6.50405">
        <ele>736</ele>
        <time>2018-05-25T08:22:49Z</time>
      </trkpt>
      <trkpt lat="43.84803" lon="6.50402">
        <ele>736</ele>
        <time>2018-05-25T08:22:50Z</time>
      </trkpt>
      <trkpt lat="43.84802" lon="6.504">
        <ele>736</ele>
        <time>2018-05-25T08:22:51Z</time>
      </trkpt>
      <trkpt lat="43.84802" lon="6.50398">
        <ele>736</ele>
        <time>2018-05-25T08:22:52Z</time>
      </trkpt>
      <trkpt lat="43.84803" lon="6.50396">
        <ele>736</ele>
        <time>2018-05-25T08:22:53Z</time>
      </trkpt>
      <trkpt lat="43.84804" lon="6.50394">
        <ele>736</ele>
        <time>2018-05-25T08:22:54Z</time>
      </trkpt>
      <trkpt lat="43.84804" lon="6.50392">
        <ele>736</ele>
        <time>2018-05-25T08:22:55Z</time>
      </trkpt>
      <trkpt lat="43.84805" lon="6.5039">
        <ele>736</ele>
        <time>2018-05-25T08:22:56Z</time>
      </trkpt>
      <trkpt lat="43.84806" lon="6.50389">
        <ele>736</ele>
        <time>2018-05-25T08:22:57Z</time>
      </trkpt>
      <trkpt lat="43.84807" lon="6.50388">
        <ele>736</ele>
        <time>2018-05-25T08:22:58Z</time>
      </trkpt>
      <trkpt lat="43.84809" lon="6.50387">
        <ele>736</ele>
        <time>2018-05-25T08:22:59Z</time>
      </trkpt>
      <trkpt lat="43.8481" lon="6.50386">
        <ele>736</ele>
        <time>2018-05-25T08:23:00Z</time>
      </trkpt>
      <trkpt lat="43.84811" lon="6.50384">
        <ele>737</ele>
        <time>2018-05-25T08:23:01Z</time>
      </trkpt>
      <trkpt lat="43.84813" lon="6.50383">
        <ele>737</ele>
        <time>2018-05-25T08:23:02Z</time>
      </trkpt>
      <trkpt lat="43.84814" lon="6.50382">
        <ele>737</ele>
        <time>2018-05-25T08:23:03Z</time>
      </trkpt>
      <trkpt lat="43.84816" lon="6.50381">
        <ele>737</ele>
        <time>2018-05-25T08:23:04Z</time>
      </trkpt>
      <trkpt lat="43.84818" lon="6.5038">
        <ele>737</ele>
        <time>2018-05-25T08:23:05Z</time>
      </trkpt>
      <trkpt lat="43.84842" lon="6.50369">
        <ele>741</ele>
        <time>2018-05-25T08:23:21Z</time>
      </trkpt>
      <trkpt lat="43.84859" lon="6.50358">
        <ele>743</ele>
        <time>2018-05-25T08:23:33Z</time>
      </trkpt>
      <trkpt lat="43.8488" lon="6.50348">
        <ele>743</ele>
        <time>2018-05-25T08:23:48Z</time>
      </trkpt>
      <trkpt lat="43.84885" lon="6.50344">
        <ele>744</ele>
        <time>2018-05-25T08:23:52Z</time>
      </trkpt>
      <trkpt lat="43.84886" lon="6.50343">
        <ele>744</ele>
        <time>2018-05-25T08:23:53Z</time>
      </trkpt>
      <trkpt lat="43.84888" lon="6.50342">
        <ele>744</ele>
        <time>2018-05-25T08:23:54Z</time>
      </trkpt>
      <trkpt lat="43.84909" lon="6.50325">
        <ele>746</ele>
        <time>2018-05-25T08:24:10Z</time>
      </trkpt>
      <trkpt lat="43.84931" lon="6.50316">
        <ele>748</ele>
        <time>2018-05-25T08:24:26Z</time>
      </trkpt>
      <trkpt lat="43.84939" lon="6.50316">
        <ele>749</ele>
        <time>2018-05-25T08:24:32Z</time>
      </trkpt>
      <trkpt lat="43.84942" lon="6.50317">
        <ele>750</ele>
        <time>2018-05-25T08:24:34Z</time>
      </trkpt>
      <trkpt lat="43.84941" lon="6.50314">
        <ele>749</ele>
        <time>2018-05-25T08:24:44Z</time>
      </trkpt>
      <trkpt lat="43.84941" lon="6.50314">
        <ele>749</ele>
        <time>2018-05-25T08:25:08Z</time>
      </trkpt>
      <trkpt lat="43.84941" lon="6.50317">
        <ele>750</ele>
        <time>2018-05-25T08:25:35Z</time>
      </trkpt>
      <trkpt lat="43.84942" lon="6.50316">
        <ele>750</ele>
        <time>2018-05-25T08:26:02Z</time>
      </trkpt>
      <trkpt lat="43.84941" lon="6.50319">
        <ele>751</ele>
        <time>2018-05-25T08:26:20Z</time>
      </trkpt>
      <trkpt lat="43.8494" lon="6.50321">
        <ele>751</ele>
        <time>2018-05-25T08:26:21Z</time>
      </trkpt>
      <trkpt lat="43.84929" lon="6.50342">
        <ele>756</ele>
        <time>2018-05-25T08:26:33Z</time>
      </trkpt>
      <trkpt lat="43.84928" lon="6.50343">
        <ele>756</ele>
        <time>2018-05-25T08:26:34Z</time>
      </trkpt>
      <trkpt lat="43.84928" lon="6.50344">
        <ele>756</ele>
        <time>2018-05-25T08:26:35Z</time>
      </trkpt>
      <trkpt lat="43.8492" lon="6.50358">
        <ele>758</ele>
        <time>2018-05-25T08:26:44Z</time>
      </trkpt>
      <trkpt lat="43.84919" lon="6.50359">
        <ele>758</ele>
        <time>2018-05-25T08:26:45Z</time>
      </trkpt>
      <trkpt lat="43.84918" lon="6.5036">
        <ele>759</ele>
        <time>2018-05-25T08:26:46Z</time>
      </trkpt>
      <trkpt lat="43.84918" lon="6.50362">
        <ele>759</ele>
        <time>2018-05-25T08:26:47Z</time>
      </trkpt>
      <trkpt lat="43.84917" lon="6.50364">
        <ele>759</ele>
        <time>2018-05-25T08:26:48Z</time>
      </trkpt>
      <trkpt lat="43.84916" lon="6.50366">
        <ele>759</ele>
        <time>2018-05-25T08:26:49Z</time>
      </trkpt>
      <trkpt lat="43.84916" lon="6.50367">
        <ele>760</ele>
        <time>2018-05-25T08:26:50Z</time>
      </trkpt>
      <trkpt lat="43.84915" lon="6.50369">
        <ele>760</ele>
        <time>2018-05-25T08:26:51Z</time>
      </trkpt>
      <trkpt lat="43.84902" lon="6.50393">
        <ele>762</ele>
        <time>2018-05-25T08:27:05Z</time>
      </trkpt>
      <trkpt lat="43.84891" lon="6.50423">
        <ele>766</ele>
        <time>2018-05-25T08:27:23Z</time>
      </trkpt>
      <trkpt lat="43.8488" lon="6.50458">
        <ele>767</ele>
        <time>2018-05-25T08:27:39Z</time>
      </trkpt>
      <trkpt lat="43.84886" lon="6.50506">
        <ele>768</ele>
        <time>2018-05-25T08:27:56Z</time>
      </trkpt>
      <trkpt lat="43.84886" lon="6.50512">
        <ele>767</ele>
        <time>2018-05-25T08:27:59Z</time>
      </trkpt>
      <trkpt lat="43.84886" lon="6.50515">
        <ele>767</ele>
        <time>2018-05-25T08:28:00Z</time>
      </trkpt>
      <trkpt lat="43.84887" lon="6.50517">
        <ele>767</ele>
        <time>2018-05-25T08:28:01Z</time>
      </trkpt>
      <trkpt lat="43.84888" lon="6.5052">
        <ele>767</ele>
        <time>2018-05-25T08:28:02Z</time>
      </trkpt>
      <trkpt lat="43.84889" lon="6.50523">
        <ele>767</ele>
        <time>2018-05-25T08:28:03Z</time>
      </trkpt>
      <trkpt lat="43.84889" lon="6.50526">
        <ele>767</ele>
        <time>2018-05-25T08:28:04Z</time>
      </trkpt>
      <trkpt lat="43.84889" lon="6.50528">
        <ele>767</ele>
        <time>2018-05-25T08:28:05Z</time>
      </trkpt>
      <trkpt lat="43.84889" lon="6.50529">
        <ele>767</ele>
        <time>2018-05-25T08:28:18Z</time>
      </trkpt>
      <trkpt lat="43.8489" lon="6.50528">
        <ele>767</ele>
        <time>2018-05-25T08:28:44Z</time>
      </trkpt>
      <trkpt lat="43.84889" lon="6.50532">
        <ele>766</ele>
        <time>2018-05-25T08:29:12Z</time>
      </trkpt>
      <trkpt lat="43.84888" lon="6.50534">
        <ele>766</ele>
        <time>2018-05-25T08:29:44Z</time>
      </trkpt>
      <trkpt lat="43.84887" lon="6.50534">
        <ele>766</ele>
        <time>2018-05-25T08:30:24Z</time>
      </trkpt>
      <trkpt lat="43.8489" lon="6.50531">
        <ele>767</ele>
        <time>2018-05-25T08:30:45Z</time>
      </trkpt>
      <trkpt lat="43.84888" lon="6.50532">
        <ele>766</ele>
        <time>2018-05-25T08:31:02Z</time>
      </trkpt>
      <trkpt lat="43.8489" lon="6.50531">
        <ele>767</ele>
        <time>2018-05-25T08:31:39Z</time>
      </trkpt>
      <trkpt lat="43.84887" lon="6.50532">
        <ele>766</ele>
        <time>2018-05-25T08:32:15Z</time>
      </trkpt>
      <trkpt lat="43.84887" lon="6.50531">
        <ele>766</ele>
        <time>2018-05-25T08:32:55Z</time>
      </trkpt>
      <trkpt lat="43.84888" lon="6.50533">
        <ele>766</ele>
        <time>2018-05-25T08:33:33Z</time>
      </trkpt>
      <trkpt lat="43.84888" lon="6.50533">
        <ele>766</ele>
        <time>2018-05-25T08:33:48Z</time>
      </trkpt>
      <trkpt lat="43.84888" lon="6.50534">
        <ele>766</ele>
        <time>2018-05-25T08:33:56Z</time>
      </trkpt>
      <trkpt lat="43.84889" lon="6.50536">
        <ele>766</ele>
        <time>2018-05-25T08:33:57Z</time>
      </trkpt>
      <trkpt lat="43.84888" lon="6.5054">
        <ele>765</ele>
        <time>2018-05-25T08:34:09Z</time>
      </trkpt>
      <trkpt lat="43.8489" lon="6.50541">
        <ele>766</ele>
        <time>2018-05-25T08:34:22Z</time>
      </trkpt>
      <trkpt lat="43.84889" lon="6.50541">
        <ele>765</ele>
        <time>2018-05-25T08:34:35Z</time>
      </trkpt>
      <trkpt lat="43.8489" lon="6.50543">
        <ele>765</ele>
        <time>2018-05-25T08:34:54Z</time>
      </trkpt>
      <trkpt lat="43.84888" lon="6.50543">
        <ele>765</ele>
        <time>2018-05-25T08:35:02Z</time>
      </trkpt>
      <trkpt lat="43.84889" lon="6.5054">
        <ele>765</ele>
        <time>2018-05-25T08:35:14Z</time>
      </trkpt>
      <trkpt lat="43.84889" lon="6.5054">
        <ele>765</ele>
        <time>2018-05-25T08:35:29Z</time>
      </trkpt>
      <trkpt lat="43.84889" lon="6.50541">
        <ele>765</ele>
        <time>2018-05-25T08:36:01Z</time>
      </trkpt>
      <trkpt lat="43.8489" lon="6.50544">
        <ele>765</ele>
        <time>2018-05-25T08:36:48Z</time>
      </trkpt>
      <trkpt lat="43.84891" lon="6.50541">
        <ele>766</ele>
        <time>2018-05-25T08:37:20Z</time>
      </trkpt>
      <trkpt lat="43.84889" lon="6.50543">
        <ele>765</ele>
        <time>2018-05-25T08:37:44Z</time>
      </trkpt>
      <trkpt lat="43.84888" lon="6.50545">
        <ele>765</ele>
        <time>2018-05-25T08:37:53Z</time>
      </trkpt>
      <trkpt lat="43.84889" lon="6.50543">
        <ele>765</ele>
        <time>2018-05-25T08:38:19Z</time>
      </trkpt>
      <trkpt lat="43.84888" lon="6.50542">
        <ele>765</ele>
        <time>2018-05-25T08:38:52Z</time>
      </trkpt>
      <trkpt lat="43.84889" lon="6.50544">
        <ele>765</ele>
        <time>2018-05-25T08:39:03Z</time>
      </trkpt>
      <trkpt lat="43.84888" lon="6.50545">
        <ele>765</ele>
        <time>2018-05-25T08:39:04Z</time>
      </trkpt>
      <trkpt lat="43.84887" lon="6.50546">
        <ele>764</ele>
        <time>2018-05-25T08:39:10Z</time>
      </trkpt>
      <trkpt lat="43.84884" lon="6.50548">
        <ele>763</ele>
        <time>2018-05-25T08:39:15Z</time>
      </trkpt>
      <trkpt lat="43.84884" lon="6.50551">
        <ele>762</ele>
        <time>2018-05-25T08:39:16Z</time>
      </trkpt>
      <trkpt lat="43.84884" lon="6.50553">
        <ele>762</ele>
        <time>2018-05-25T08:39:17Z</time>
      </trkpt>
      <trkpt lat="43.84884" lon="6.50556">
        <ele>762</ele>
        <time>2018-05-25T08:39:18Z</time>
      </trkpt>
      <trkpt lat="43.84885" lon="6.50558">
        <ele>762</ele>
        <time>2018-05-25T08:39:19Z</time>
      </trkpt>
      <trkpt lat="43.84886" lon="6.50561">
        <ele>762</ele>
        <time>2018-05-25T08:39:20Z</time>
      </trkpt>
      <trkpt lat="43.84887" lon="6.50564">
        <ele>762</ele>
        <time>2018-05-25T08:39:21Z</time>
      </trkpt>
      <trkpt lat="43.84903" lon="6.50599">
        <ele>762</ele>
        <time>2018-05-25T08:39:31Z</time>
      </trkpt>
      <trkpt lat="43.84905" lon="6.50604">
        <ele>762</ele>
        <time>2018-05-25T08:39:32Z</time>
      </trkpt>
      <trkpt lat="43.84906" lon="6.5061">
        <ele>762</ele>
        <time>2018-05-25T08:39:33Z</time>
      </trkpt>
      <trkpt lat="43.84906" lon="6.50617">
        <ele>762</ele>
        <time>2018-05-25T08:39:34Z</time>
      </trkpt>
      <trkpt lat="43.84906" lon="6.50624">
        <ele>761</ele>
        <time>2018-05-25T08:39:35Z</time>
      </trkpt>
      <trkpt lat="43.84905" lon="6.50632">
        <ele>759</ele>
        <time>2018-05-25T08:39:36Z</time>
      </trkpt>
      <trkpt lat="43.84904" lon="6.50641">
        <ele>758</ele>
        <time>2018-05-25T08:39:37Z</time>
      </trkpt>
      <trkpt lat="43.84906" lon="6.50699">
        <ele>750</ele>
        <time>2018-05-25T08:39:45Z</time>
      </trkpt>
      <trkpt lat="43.84908" lon="6.50702">
        <ele>749</ele>
        <time>2018-05-25T08:39:46Z</time>
      </trkpt>
      <trkpt lat="43.8491" lon="6.50703">
        <ele>750</ele>
        <time>2018-05-25T08:39:47Z</time>
      </trkpt>
      <trkpt lat="43.84931" lon="6.5071">
        <ele>749</ele>
        <time>2018-05-25T08:39:52Z</time>
      </trkpt>
      <trkpt lat="43.84941" lon="6.50713">
        <ele>748</ele>
        <time>2018-05-25T08:39:54Z</time>
      </trkpt>
      <trkpt lat="43.84975" lon="6.50713">
        <ele>748</ele>
        <time>2018-05-25T08:40:01Z</time>
      </trkpt>
      <trkpt lat="43.85022" lon="6.50708">
        <ele>747</ele>
        <time>2018-05-25T08:40:15Z</time>
      </trkpt>
      <trkpt lat="43.85067" lon="6.50718">
        <ele>744</ele>
        <time>2018-05-25T08:40:28Z</time>
      </trkpt>
      <trkpt lat="43.851" lon="6.50719">
        <ele>746</ele>
        <time>2018-05-25T08:40:35Z</time>
      </trkpt>
      <trkpt lat="43.85104" lon="6.5072">
        <ele>746</ele>
        <time>2018-05-25T08:40:36Z</time>
      </trkpt>
      <trkpt lat="43.85108" lon="6.50721">
        <ele>746</ele>
        <time>2018-05-25T08:40:37Z</time>
      </trkpt>
      <trkpt lat="43.85113" lon="6.50723">
        <ele>746</ele>
        <time>2018-05-25T08:40:38Z</time>
      </trkpt>
      <trkpt lat="43.85117" lon="6.50725">
        <ele>746</ele>
        <time>2018-05-25T08:40:39Z</time>
      </trkpt>
      <trkpt lat="43.85121" lon="6.50727">
        <ele>746</ele>
        <time>2018-05-25T08:40:40Z</time>
      </trkpt>
      <trkpt lat="43.85145" lon="6.50733">
        <ele>746</ele>
        <time>2018-05-25T08:40:47Z</time>
      </trkpt>
      <trkpt lat="43.85147" lon="6.50736">
        <ele>746</ele>
        <time>2018-05-25T08:40:48Z</time>
      </trkpt>
      <trkpt lat="43.85148" lon="6.5074">
        <ele>745</ele>
        <time>2018-05-25T08:40:49Z</time>
      </trkpt>
      <trkpt lat="43.85149" lon="6.50744">
        <ele>745</ele>
        <time>2018-05-25T08:40:50Z</time>
      </trkpt>
      <trkpt lat="43.85149" lon="6.50747">
        <ele>745</ele>
        <time>2018-05-25T08:40:51Z</time>
      </trkpt>
      <trkpt lat="43.85149" lon="6.50751">
        <ele>745</ele>
        <time>2018-05-25T08:40:52Z</time>
      </trkpt>
      <trkpt lat="43.85153" lon="6.50766">
        <ele>745</ele>
        <time>2018-05-25T08:40:57Z</time>
      </trkpt>
      <trkpt lat="43.85156" lon="6.50767">
        <ele>746</ele>
        <time>2018-05-25T08:40:58Z</time>
      </trkpt>
      <trkpt lat="43.85168" lon="6.50766">
        <ele>746</ele>
        <time>2018-05-25T08:41:03Z</time>
      </trkpt>
      <trkpt lat="43.85176" lon="6.50777">
        <ele>747</ele>
        <time>2018-05-25T08:41:10Z</time>
      </trkpt>
      <trkpt lat="43.85178" lon="6.50778">
        <ele>747</ele>
        <time>2018-05-25T08:41:22Z</time>
      </trkpt>
      <trkpt lat="43.85177" lon="6.50779">
        <ele>747</ele>
        <time>2018-05-25T08:41:44Z</time>
      </trkpt>
      <trkpt lat="43.85178" lon="6.50778">
        <ele>747</ele>
        <time>2018-05-25T08:42:17Z</time>
      </trkpt>
      <trkpt lat="43.85178" lon="6.50777">
        <ele>747</ele>
        <time>2018-05-25T08:42:30Z</time>
      </trkpt>
      <trkpt lat="43.85185" lon="6.50762">
        <ele>747</ele>
        <time>2018-05-25T08:42:40Z</time>
      </trkpt>
      <trkpt lat="43.85221" lon="6.50695">
        <ele>750</ele>
        <time>2018-05-25T08:42:53Z</time>
      </trkpt>
      <trkpt lat="43.85264" lon="6.50598">
        <ele>748</ele>
        <time>2018-05-25T08:43:07Z</time>
      </trkpt>
      <trkpt lat="43.85323" lon="6.50467">
        <ele>745</ele>
        <time>2018-05-25T08:43:25Z</time>
      </trkpt>
      <trkpt lat="43.85329" lon="6.50455">
        <ele>745</ele>
        <time>2018-05-25T08:43:27Z</time>
      </trkpt>
      <trkpt lat="43.85354" lon="6.50398">
        <ele>745</ele>
        <time>2018-05-25T08:43:36Z</time>
      </trkpt>
      <trkpt lat="43.85397" lon="6.50299">
        <ele>743</ele>
        <time>2018-05-25T08:43:50Z</time>
      </trkpt>
      <trkpt lat="43.8544" lon="6.50211">
        <ele>744</ele>
        <time>2018-05-25T08:44:05Z</time>
      </trkpt>
      <trkpt lat="43.85443" lon="6.50207">
        <ele>744</ele>
        <time>2018-05-25T08:44:06Z</time>
      </trkpt>
      <trkpt lat="43.85446" lon="6.50203">
        <ele>744</ele>
        <time>2018-05-25T08:44:07Z</time>
      </trkpt>
      <trkpt lat="43.85495" lon="6.50142">
        <ele>745</ele>
        <time>2018-05-25T08:44:23Z</time>
      </trkpt>
      <trkpt lat="43.85554" lon="6.5006">
        <ele>746</ele>
        <time>2018-05-25T08:44:45Z</time>
      </trkpt>
      <trkpt lat="43.85573" lon="6.50022">
        <ele>747</ele>
        <time>2018-05-25T08:44:55Z</time>
      </trkpt>
      <trkpt lat="43.85574" lon="6.50018">
        <ele>747</ele>
        <time>2018-05-25T08:44:56Z</time>
      </trkpt>
      <trkpt lat="43.85575" lon="6.50016">
        <ele>747</ele>
        <time>2018-05-25T08:44:57Z</time>
      </trkpt>
      <trkpt lat="43.85576" lon="6.50014">
        <ele>748</ele>
        <time>2018-05-25T08:45:09Z</time>
      </trkpt>
      <trkpt lat="43.85576" lon="6.50015">
        <ele>748</ele>
        <time>2018-05-25T08:45:37Z</time>
      </trkpt>
      <trkpt lat="43.85576" lon="6.50014">
        <ele>748</ele>
        <time>2018-05-25T08:46:11Z</time>
      </trkpt>
      <trkpt lat="43.85577" lon="6.50013">
        <ele>748</ele>
        <time>2018-05-25T08:46:32Z</time>
      </trkpt>
      <trkpt lat="43.85578" lon="6.50013">
        <ele>748</ele>
        <time>2018-05-25T08:47:07Z</time>
      </trkpt>
      <trkpt lat="43.85576" lon="6.50013">
        <ele>748</ele>
        <time>2018-05-25T08:47:41Z</time>
      </trkpt>
      <trkpt lat="43.85576" lon="6.50014">
        <ele>748</ele>
        <time>2018-05-25T08:48:12Z</time>
      </trkpt>
      <trkpt lat="43.85575" lon="6.50015">
        <ele>747</ele>
        <time>2018-05-25T08:48:44Z</time>
      </trkpt>
      <trkpt lat="43.85575" lon="6.50016">
        <ele>747</ele>
        <time>2018-05-25T08:49:25Z</time>
      </trkpt>
      <trkpt lat="43.85576" lon="6.50015">
        <ele>748</ele>
        <time>2018-05-25T08:50:11Z</time>
      </trkpt>
      <trkpt lat="43.85574" lon="6.50011">
        <ele>748</ele>
        <time>2018-05-25T08:50:31Z</time>
      </trkpt>
      <trkpt lat="43.85577" lon="6.49962">
        <ele>749</ele>
        <time>2018-05-25T08:50:42Z</time>
      </trkpt>
      <trkpt lat="43.85577" lon="6.49955">
        <ele>750</ele>
        <time>2018-05-25T08:50:43Z</time>
      </trkpt>
      <trkpt lat="43.85577" lon="6.49942">
        <ele>750</ele>
        <time>2018-05-25T08:50:45Z</time>
      </trkpt>
      <trkpt lat="43.85578" lon="6.49908">
        <ele>752</ele>
        <time>2018-05-25T08:50:50Z</time>
      </trkpt>
      <trkpt lat="43.85581" lon="6.49853">
        <ele>754</ele>
        <time>2018-05-25T08:50:58Z</time>
      </trkpt>
      <trkpt lat="43.85581" lon="6.49806">
        <ele>755</ele>
        <time>2018-05-25T08:51:05Z</time>
      </trkpt>
      <trkpt lat="43.85582" lon="6.49799">
        <ele>755</ele>
        <time>2018-05-25T08:51:06Z</time>
      </trkpt>
      <trkpt lat="43.85583" lon="6.49785">
        <ele>756</ele>
        <time>2018-05-25T08:51:08Z</time>
      </trkpt>
      <trkpt lat="43.85583" lon="6.49778">
        <ele>756</ele>
        <time>2018-05-25T08:51:09Z</time>
      </trkpt>
      <trkpt lat="43.85588" lon="6.49689">
        <ele>760</ele>
        <time>2018-05-25T08:51:24Z</time>
      </trkpt>
      <trkpt lat="43.85595" lon="6.49593">
        <ele>764</ele>
        <time>2018-05-25T08:51:42Z</time>
      </trkpt>
      <trkpt lat="43.85629" lon="6.4956">
        <ele>767</ele>
        <time>2018-05-25T08:51:54Z</time>
      </trkpt>
      <trkpt lat="43.85685" lon="6.49567">
        <ele>771</ele>
        <time>2018-05-25T08:52:10Z</time>
      </trkpt>
      <trkpt lat="43.85723" lon="6.49554">
        <ele>771</ele>
        <time>2018-05-25T08:52:24Z</time>
      </trkpt>
      <trkpt lat="43.85753" lon="6.4952">
        <ele>776</ele>
        <time>2018-05-25T08:52:40Z</time>
      </trkpt>
      <trkpt lat="43.85782" lon="6.49519">
        <ele>775</ele>
        <time>2018-05-25T08:52:53Z</time>
      </trkpt>
      <trkpt lat="43.85816" lon="6.49514">
        <ele>776</ele>
        <time>2018-05-25T08:53:09Z</time>
      </trkpt>
      <trkpt lat="43.85851" lon="6.49506">
        <ele>780</ele>
        <time>2018-05-25T08:53:25Z</time>
      </trkpt>
      <trkpt lat="43.8588" lon="6.49503">
        <ele>783</ele>
        <time>2018-05-25T08:53:38Z</time>
      </trkpt>
      <trkpt lat="43.85924" lon="6.49503">
        <ele>786</ele>
        <time>2018-05-25T08:53:57Z</time>
      </trkpt>
      <trkpt lat="43.85963" lon="6.49507">
        <ele>789</ele>
        <time>2018-05-25T08:54:14Z</time>
      </trkpt>
      <trkpt lat="43.85995" lon="6.49509">
        <ele>794</ele>
        <time>2018-05-25T08:54:28Z</time>
      </trkpt>
      <trkpt lat="43.8603" lon="6.49526">
        <ele>794</ele>
        <time>2018-05-25T08:54:44Z</time>
      </trkpt>
      <trkpt lat="43.8605" lon="6.49549">
        <ele>789</ele>
        <time>2018-05-25T08:54:57Z</time>
      </trkpt>
      <trkpt lat="43.86072" lon="6.49544">
        <ele>790</ele>
        <time>2018-05-25T08:55:08Z</time>
      </trkpt>
      <trkpt lat="43.86073" lon="6.49542">
        <ele>791</ele>
        <time>2018-05-25T08:55:09Z</time>
      </trkpt>
      <trkpt lat="43.86067" lon="6.49534">
        <ele>793</ele>
        <time>2018-05-25T08:55:19Z</time>
      </trkpt>
      <trkpt lat="43.86066" lon="6.49534">
        <ele>793</ele>
        <time>2018-05-25T08:55:39Z</time>
      </trkpt>
      <trkpt lat="43.86066" lon="6.49535">
        <ele>793</ele>
        <time>2018-05-25T08:56:00Z</time>
      </trkpt>
      <trkpt lat="43.86068" lon="6.49536">
        <ele>792</ele>
        <time>2018-05-25T08:56:44Z</time>
      </trkpt>
      <trkpt lat="43.86066" lon="6.49537">
        <ele>792</ele>
        <time>2018-05-25T08:57:22Z</time>
      </trkpt>
      <trkpt lat="43.86067" lon="6.49536">
        <ele>792</ele>
        <time>2018-05-25T08:58:08Z</time>
      </trkpt>
      <trkpt lat="43.86068" lon="6.49535">
        <ele>793</ele>
        <time>2018-05-25T08:59:06Z</time>
      </trkpt>
      <trkpt lat="43.8607" lon="6.49534">
        <ele>793</ele>
        <time>2018-05-25T09:00:03Z</time>
      </trkpt>
      <trkpt lat="43.8607" lon="6.49534">
        <ele>793</ele>
        <time>2018-05-25T09:00:18Z</time>
      </trkpt>
      <trkpt lat="43.8607" lon="6.49534">
        <ele>793</ele>
        <time>2018-05-25T09:00:37Z</time>
      </trkpt>
      <trkpt lat="43.8607" lon="6.49536">
        <ele>792</ele>
        <time>2018-05-25T09:00:56Z</time>
      </trkpt>
      <trkpt lat="43.86069" lon="6.49535">
        <ele>793</ele>
        <time>2018-05-25T09:01:21Z</time>
      </trkpt>
      <trkpt lat="43.86072" lon="6.49539">
        <ele>792</ele>
        <time>2018-05-25T09:01:29Z</time>
      </trkpt>
      <trkpt lat="43.86075" lon="6.49548">
        <ele>789</ele>
        <time>2018-05-25T09:01:35Z</time>
      </trkpt>
      <trkpt lat="43.86083" lon="6.4955">
        <ele>789</ele>
        <time>2018-05-25T09:01:42Z</time>
      </trkpt>
      <trkpt lat="43.86092" lon="6.49545">
        <ele>789</ele>
        <time>2018-05-25T09:01:57Z</time>
      </trkpt>
      <trkpt lat="43.86093" lon="6.49545">
        <ele>789</ele>
        <time>2018-05-25T09:02:14Z</time>
      </trkpt>
      <trkpt lat="43.86093" lon="6.49546">
        <ele>789</ele>
        <time>2018-05-25T09:02:45Z</time>
      </trkpt>
      <trkpt lat="43.86094" lon="6.49544">
        <ele>789</ele>
        <time>2018-05-25T09:03:19Z</time>
      </trkpt>
      <trkpt lat="43.86094" lon="6.49545">
        <ele>789</ele>
        <time>2018-05-25T09:03:51Z</time>
      </trkpt>
      <trkpt lat="43.86095" lon="6.49541">
        <ele>790</ele>
        <time>2018-05-25T09:03:59Z</time>
      </trkpt>
      <trkpt lat="43.86099" lon="6.49539">
        <ele>790</ele>
        <time>2018-05-25T09:04:15Z</time>
      </trkpt>
      <trkpt lat="43.86096" lon="6.49541">
        <ele>790</ele>
        <time>2018-05-25T09:04:48Z</time>
      </trkpt>
      <trkpt lat="43.86097" lon="6.49541">
        <ele>790</ele>
        <time>2018-05-25T09:05:26Z</time>
      </trkpt>
      <trkpt lat="43.86097" lon="6.49537">
        <ele>791</ele>
        <time>2018-05-25T09:06:08Z</time>
      </trkpt>
      <trkpt lat="43.86098" lon="6.49536">
        <ele>791</ele>
        <time>2018-05-25T09:06:32Z</time>
      </trkpt>
      <trkpt lat="43.86098" lon="6.49535">
        <ele>791</ele>
        <time>2018-05-25T09:06:35Z</time>
      </trkpt>
      <trkpt lat="43.86102" lon="6.49516">
        <ele>796</ele>
        <time>2018-05-25T09:06:44Z</time>
      </trkpt>
      <trkpt lat="43.86101" lon="6.49503">
        <ele>800</ele>
        <time>2018-05-25T09:06:50Z</time>
      </trkpt>
      <trkpt lat="43.86094" lon="6.49479">
        <ele>807</ele>
        <time>2018-05-25T09:07:01Z</time>
      </trkpt>
      <trkpt lat="43.86087" lon="6.49471">
        <ele>809</ele>
        <time>2018-05-25T09:07:06Z</time>
      </trkpt>
      <trkpt lat="43.86076" lon="6.49467">
        <ele>810</ele>
        <time>2018-05-25T09:07:12Z</time>
      </trkpt>
      <trkpt lat="43.86046" lon="6.49458">
        <ele>812</ele>
        <time>2018-05-25T09:07:29Z</time>
      </trkpt>
      <trkpt lat="43.86018" lon="6.49453">
        <ele>813</ele>
        <time>2018-05-25T09:07:45Z</time>
      </trkpt>
      <trkpt lat="43.86013" lon="6.49452">
        <ele>814</ele>
        <time>2018-05-25T09:07:48Z</time>
      </trkpt>
      <trkpt lat="43.86006" lon="6.49452">
        <ele>814</ele>
        <time>2018-05-25T09:07:52Z</time>
      </trkpt>
      <trkpt lat="43.85974" lon="6.49449">
        <ele>814</ele>
        <time>2018-05-25T09:08:12Z</time>
      </trkpt>
      <trkpt lat="43.85951" lon="6.49438">
        <ele>819</ele>
        <time>2018-05-25T09:08:29Z</time>
      </trkpt>
      <trkpt lat="43.8593" lon="6.49428">
        <ele>821</ele>
        <time>2018-05-25T09:08:45Z</time>
      </trkpt>
      <trkpt lat="43.85904" lon="6.49422">
        <ele>821</ele>
        <time>2018-05-25T09:09:03Z</time>
      </trkpt>
      <trkpt lat="43.85891" lon="6.49419">
        <ele>821</ele>
        <time>2018-05-25T09:09:12Z</time>
      </trkpt>
      <trkpt lat="43.85866" lon="6.49409">
        <ele>822</ele>
        <time>2018-05-25T09:09:29Z</time>
      </trkpt>
      <trkpt lat="43.8585" lon="6.49388">
        <ele>822</ele>
        <time>2018-05-25T09:09:44Z</time>
      </trkpt>
      <trkpt lat="43.85849" lon="6.49384">
        <ele>823</ele>
        <time>2018-05-25T09:09:46Z</time>
      </trkpt>
      <trkpt lat="43.85853" lon="6.49358">
        <ele>829</ele>
        <time>2018-05-25T09:09:59Z</time>
      </trkpt>
      <trkpt lat="43.8587" lon="6.49324">
        <ele>833</ele>
        <time>2018-05-25T09:10:18Z</time>
      </trkpt>
      <trkpt lat="43.85886" lon="6.49303">
        <ele>838</ele>
        <time>2018-05-25T09:10:33Z</time>
      </trkpt>
      <trkpt lat="43.85902" lon="6.49272">
        <ele>841</ele>
        <time>2018-05-25T09:10:52Z</time>
      </trkpt>
      <trkpt lat="43.85911" lon="6.49244">
        <ele>841</ele>
        <time>2018-05-25T09:11:07Z</time>
      </trkpt>
      <trkpt lat="43.85922" lon="6.49218">
        <ele>840</ele>
        <time>2018-05-25T09:11:21Z</time>
      </trkpt>
      <trkpt lat="43.8594" lon="6.49192">
        <ele>843</ele>
        <time>2018-05-25T09:11:39Z</time>
      </trkpt>
      <trkpt lat="43.85962" lon="6.4917">
        <ele>846</ele>
        <time>2018-05-25T09:11:57Z</time>
      </trkpt>
      <trkpt lat="43.85976" lon="6.49155">
        <ele>848</ele>
        <time>2018-05-25T09:12:09Z</time>
      </trkpt>
      <trkpt lat="43.85982" lon="6.49149">
        <ele>849</ele>
        <time>2018-05-25T09:12:14Z</time>
      </trkpt>
      <trkpt lat="43.85984" lon="6.49146">
        <ele>849</ele>
        <time>2018-05-25T09:12:16Z</time>
      </trkpt>
      <trkpt lat="43.86" lon="6.4913">
        <ele>852</ele>
        <time>2018-05-25T09:12:29Z</time>
      </trkpt>
      <trkpt lat="43.86006" lon="6.4912">
        <ele>854</ele>
        <time>2018-05-25T09:12:35Z</time>
      </trkpt>
      <trkpt lat="43.86007" lon="6.49113">
        <ele>855</ele>
        <time>2018-05-25T09:12:39Z</time>
      </trkpt>
      <trkpt lat="43.86004" lon="6.49078">
        <ele>855</ele>
        <time>2018-05-25T09:12:56Z</time>
      </trkpt>
      <trkpt lat="43.85999" lon="6.49045">
        <ele>854</ele>
        <time>2018-05-25T09:13:14Z</time>
      </trkpt>
      <trkpt lat="43.86002" lon="6.49015">
        <ele>857</ele>
        <time>2018-05-25T09:13:29Z</time>
      </trkpt>
      <trkpt lat="43.86002" lon="6.48999">
        <ele>858</ele>
        <time>2018-05-25T09:13:37Z</time>
      </trkpt>
      <trkpt lat="43.85989" lon="6.4896">
        <ele>852</ele>
        <time>2018-05-25T09:13:56Z</time>
      </trkpt>
      <trkpt lat="43.85989" lon="6.48938">
        <ele>854</ele>
        <time>2018-05-25T09:14:08Z</time>
      </trkpt>
      <trkpt lat="43.86007" lon="6.48941">
        <ele>862</ele>
        <time>2018-05-25T09:14:21Z</time>
      </trkpt>
      <trkpt lat="43.8601" lon="6.48946">
        <ele>863</ele>
        <time>2018-05-25T09:14:24Z</time>
      </trkpt>
      <trkpt lat="43.86017" lon="6.4899">
        <ele>867</ele>
        <time>2018-05-25T09:14:42Z</time>
      </trkpt>
      <trkpt lat="43.86016" lon="6.49033">
        <ele>865</ele>
        <time>2018-05-25T09:14:58Z</time>
      </trkpt>
      <trkpt lat="43.8602" lon="6.49063">
        <ele>866</ele>
        <time>2018-05-25T09:15:11Z</time>
      </trkpt>
      <trkpt lat="43.86035" lon="6.49091">
        <ele>874</ele>
        <time>2018-05-25T09:15:24Z</time>
      </trkpt>
      <trkpt lat="43.86037" lon="6.49133">
        <ele>875</ele>
        <time>2018-05-25T09:15:41Z</time>
      </trkpt>
      <trkpt lat="43.86015" lon="6.49158">
        <ele>871</ele>
        <time>2018-05-25T09:15:56Z</time>
      </trkpt>
      <trkpt lat="43.85998" lon="6.49184">
        <ele>871</ele>
        <time>2018-05-25T09:16:10Z</time>
      </trkpt>
      <trkpt lat="43.85983" lon="6.4922">
        <ele>869</ele>
        <time>2018-05-25T09:16:26Z</time>
      </trkpt>
      <trkpt lat="43.85976" lon="6.49232">
        <ele>869</ele>
        <time>2018-05-25T09:16:32Z</time>
      </trkpt>
      <trkpt lat="43.85975" lon="6.49234">
        <ele>869</ele>
        <time>2018-05-25T09:16:33Z</time>
      </trkpt>
      <trkpt lat="43.85974" lon="6.49236">
        <ele>869</ele>
        <time>2018-05-25T09:16:34Z</time>
      </trkpt>
      <trkpt lat="43.85968" lon="6.49265">
        <ele>868</ele>
        <time>2018-05-25T09:16:46Z</time>
      </trkpt>
      <trkpt lat="43.85969" lon="6.49267">
        <ele>868</ele>
        <time>2018-05-25T09:16:47Z</time>
      </trkpt>
      <trkpt lat="43.85969" lon="6.4927">
        <ele>867</ele>
        <time>2018-05-25T09:16:48Z</time>
      </trkpt>
      <trkpt lat="43.85969" lon="6.49273">
        <ele>867</ele>
        <time>2018-05-25T09:16:49Z</time>
      </trkpt>
      <trkpt lat="43.85969" lon="6.49275">
        <ele>867</ele>
        <time>2018-05-25T09:16:50Z</time>
      </trkpt>
      <trkpt lat="43.85971" lon="6.4928">
        <ele>867</ele>
        <time>2018-05-25T09:16:52Z</time>
      </trkpt>
      <trkpt lat="43.85972" lon="6.49281">
        <ele>867</ele>
        <time>2018-05-25T09:16:53Z</time>
      </trkpt>
      <trkpt lat="43.85974" lon="6.49283">
        <ele>867</ele>
        <time>2018-05-25T09:16:54Z</time>
      </trkpt>
      <trkpt lat="43.85975" lon="6.49285">
        <ele>867</ele>
        <time>2018-05-25T09:16:55Z</time>
      </trkpt>
      <trkpt lat="43.85977" lon="6.49286">
        <ele>867</ele>
        <time>2018-05-25T09:16:56Z</time>
      </trkpt>
      <trkpt lat="43.85979" lon="6.49287">
        <ele>867</ele>
        <time>2018-05-25T09:16:57Z</time>
      </trkpt>
      <trkpt lat="43.86014" lon="6.49277">
        <ele>874</ele>
        <time>2018-05-25T09:17:14Z</time>
      </trkpt>
      <trkpt lat="43.86045" lon="6.49266">
        <ele>878</ele>
        <time>2018-05-25T09:17:31Z</time>
      </trkpt>
      <trkpt lat="43.8608" lon="6.49271">
        <ele>881</ele>
        <time>2018-05-25T09:17:47Z</time>
      </trkpt>
      <trkpt lat="43.86109" lon="6.49276">
        <ele>883</ele>
        <time>2018-05-25T09:18:01Z</time>
      </trkpt>
      <trkpt lat="43.86143" lon="6.49278">
        <ele>886</ele>
        <time>2018-05-25T09:18:16Z</time>
      </trkpt>
      <trkpt lat="43.8618" lon="6.49283">
        <ele>885</ele>
        <time>2018-05-25T09:18:34Z</time>
      </trkpt>
      <trkpt lat="43.86209" lon="6.4927">
        <ele>888</ele>
        <time>2018-05-25T09:18:49Z</time>
      </trkpt>
      <trkpt lat="43.86241" lon="6.49254">
        <ele>890</ele>
        <time>2018-05-25T09:19:05Z</time>
      </trkpt>
      <trkpt lat="43.86275" lon="6.4924">
        <ele>893</ele>
        <time>2018-05-25T09:19:22Z</time>
      </trkpt>
      <trkpt lat="43.86281" lon="6.49239">
        <ele>893</ele>
        <time>2018-05-25T09:19:25Z</time>
      </trkpt>
      <trkpt lat="43.86283" lon="6.49238">
        <ele>893</ele>
        <time>2018-05-25T09:19:26Z</time>
      </trkpt>
      <trkpt lat="43.86285" lon="6.49237">
        <ele>893</ele>
        <time>2018-05-25T09:19:27Z</time>
      </trkpt>
      <trkpt lat="43.86316" lon="6.49221">
        <ele>895</ele>
        <time>2018-05-25T09:19:42Z</time>
      </trkpt>
      <trkpt lat="43.86342" lon="6.49203">
        <ele>895</ele>
        <time>2018-05-25T09:19:56Z</time>
      </trkpt>
      <trkpt lat="43.86372" lon="6.49174">
        <ele>899</ele>
        <time>2018-05-25T09:20:14Z</time>
      </trkpt>
      <trkpt lat="43.86405" lon="6.49148">
        <ele>902</ele>
        <time>2018-05-25T09:20:32Z</time>
      </trkpt>
      <trkpt lat="43.86434" lon="6.49134">
        <ele>905</ele>
        <time>2018-05-25T09:20:49Z</time>
      </trkpt>
      <trkpt lat="43.86463" lon="6.49125">
        <ele>907</ele>
        <time>2018-05-25T09:21:05Z</time>
      </trkpt>
      <trkpt lat="43.86494" lon="6.49115">
        <ele>911</ele>
        <time>2018-05-25T09:21:21Z</time>
      </trkpt>
      <trkpt lat="43.86524" lon="6.49116">
        <ele>912</ele>
        <time>2018-05-25T09:21:36Z</time>
      </trkpt>
      <trkpt lat="43.86552" lon="6.49123">
        <ele>913</ele>
        <time>2018-05-25T09:21:51Z</time>
      </trkpt>
      <trkpt lat="43.86579" lon="6.49131">
        <ele>916</ele>
        <time>2018-05-25T09:22:05Z</time>
      </trkpt>
      <trkpt lat="43.86607" lon="6.49144">
        <ele>916</ele>
        <time>2018-05-25T09:22:20Z</time>
      </trkpt>
      <trkpt lat="43.86639" lon="6.49158">
        <ele>916</ele>
        <time>2018-05-25T09:22:38Z</time>
      </trkpt>
      <trkpt lat="43.8666" lon="6.49152">
        <ele>908</ele>
        <time>2018-05-25T09:22:50Z</time>
      </trkpt>
      <trkpt lat="43.86656" lon="6.4912">
        <ele>920</ele>
        <time>2018-05-25T09:23:02Z</time>
      </trkpt>
      <trkpt lat="43.86635" lon="6.49113">
        <ele>929</ele>
        <time>2018-05-25T09:23:13Z</time>
      </trkpt>
      <trkpt lat="43.8661" lon="6.49106">
        <ele>929</ele>
        <time>2018-05-25T09:23:27Z</time>
      </trkpt>
      <trkpt lat="43.86576" lon="6.49087">
        <ele>932</ele>
        <time>2018-05-25T09:23:46Z</time>
      </trkpt>
      <trkpt lat="43.8655" lon="6.49073">
        <ele>935</ele>
        <time>2018-05-25T09:24:01Z</time>
      </trkpt>
      <trkpt lat="43.8652" lon="6.49062">
        <ele>937</ele>
        <time>2018-05-25T09:24:17Z</time>
      </trkpt>
      <trkpt lat="43.86491" lon="6.49055">
        <ele>938</ele>
        <time>2018-05-25T09:24:32Z</time>
      </trkpt>
      <trkpt lat="43.86458" lon="6.49056">
        <ele>938</ele>
        <time>2018-05-25T09:24:48Z</time>
      </trkpt>
      <trkpt lat="43.86438" lon="6.49057">
        <ele>940</ele>
        <time>2018-05-25T09:24:58Z</time>
      </trkpt>
      <trkpt lat="43.86436" lon="6.49057">
        <ele>940</ele>
        <time>2018-05-25T09:24:59Z</time>
      </trkpt>
      <trkpt lat="43.86434" lon="6.49057">
        <ele>940</ele>
        <time>2018-05-25T09:25:00Z</time>
      </trkpt>
      <trkpt lat="43.86403" lon="6.49057">
        <ele>944</ele>
        <time>2018-05-25T09:25:15Z</time>
      </trkpt>
      <trkpt lat="43.86373" lon="6.49063">
        <ele>946</ele>
        <time>2018-05-25T09:25:30Z</time>
      </trkpt>
      <trkpt lat="43.8635" lon="6.49074">
        <ele>945</ele>
        <time>2018-05-25T09:25:43Z</time>
      </trkpt>
      <trkpt lat="43.86319" lon="6.4909">
        <ele>944</ele>
        <time>2018-05-25T09:26:00Z</time>
      </trkpt>
      <trkpt lat="43.8629" lon="6.49092">
        <ele>946</ele>
        <time>2018-05-25T09:26:15Z</time>
      </trkpt>
      <trkpt lat="43.8626" lon="6.49079">
        <ele>951</ele>
        <time>2018-05-25T09:26:33Z</time>
      </trkpt>
      <trkpt lat="43.86231" lon="6.49062">
        <ele>955</ele>
        <time>2018-05-25T09:26:49Z</time>
      </trkpt>
      <trkpt lat="43.86203" lon="6.49028">
        <ele>959</ele>
        <time>2018-05-25T09:27:07Z</time>
      </trkpt>
      <trkpt lat="43.86179" lon="6.48996">
        <ele>960</ele>
        <time>2018-05-25T09:27:23Z</time>
      </trkpt>
      <trkpt lat="43.8616" lon="6.48957">
        <ele>963</ele>
        <time>2018-05-25T09:27:39Z</time>
      </trkpt>
      <trkpt lat="43.8616" lon="6.48951">
        <ele>965</ele>
        <time>2018-05-25T09:27:41Z</time>
      </trkpt>
      <trkpt lat="43.86161" lon="6.48948">
        <ele>965</ele>
        <time>2018-05-25T09:27:42Z</time>
      </trkpt>
      <trkpt lat="43.86162" lon="6.48946">
        <ele>966</ele>
        <time>2018-05-25T09:27:43Z</time>
      </trkpt>
      <trkpt lat="43.86165" lon="6.48943">
        <ele>967</ele>
        <time>2018-05-25T09:27:45Z</time>
      </trkpt>
      <trkpt lat="43.86167" lon="6.48943">
        <ele>967</ele>
        <time>2018-05-25T09:27:46Z</time>
      </trkpt>
      <trkpt lat="43.86169" lon="6.48945">
        <ele>967</ele>
        <time>2018-05-25T09:27:47Z</time>
      </trkpt>
      <trkpt lat="43.86171" lon="6.48947">
        <ele>967</ele>
        <time>2018-05-25T09:27:48Z</time>
      </trkpt>
      <trkpt lat="43.86172" lon="6.48949">
        <ele>967</ele>
        <time>2018-05-25T09:27:49Z</time>
      </trkpt>
      <trkpt lat="43.86191" lon="6.4898">
        <ele>966</ele>
        <time>2018-05-25T09:28:03Z</time>
      </trkpt>
      <trkpt lat="43.86221" lon="6.48982">
        <ele>968</ele>
        <time>2018-05-25T09:28:18Z</time>
      </trkpt>
      <trkpt lat="43.86249" lon="6.48985">
        <ele>969</ele>
        <time>2018-05-25T09:28:32Z</time>
      </trkpt>
      <trkpt lat="43.86287" lon="6.48994">
        <ele>970</ele>
        <time>2018-05-25T09:28:51Z</time>
      </trkpt>
      <trkpt lat="43.86316" lon="6.49006">
        <ele>968</ele>
        <time>2018-05-25T09:29:06Z</time>
      </trkpt>
      <trkpt lat="43.86347" lon="6.49003">
        <ele>969</ele>
        <time>2018-05-25T09:29:22Z</time>
      </trkpt>
      <trkpt lat="43.86376" lon="6.48992">
        <ele>971</ele>
        <time>2018-05-25T09:29:38Z</time>
      </trkpt>
      <trkpt lat="43.8641" lon="6.48981">
        <ele>973</ele>
        <time>2018-05-25T09:29:56Z</time>
      </trkpt>
      <trkpt lat="43.86445" lon="6.48972">
        <ele>976</ele>
        <time>2018-05-25T09:30:14Z</time>
      </trkpt>
      <trkpt lat="43.8647" lon="6.48957">
        <ele>979</ele>
        <time>2018-05-25T09:30:28Z</time>
      </trkpt>
      <trkpt lat="43.86502" lon="6.48932">
        <ele>984</ele>
        <time>2018-05-25T09:30:47Z</time>
      </trkpt>
      <trkpt lat="43.86541" lon="6.48918">
        <ele>986</ele>
        <time>2018-05-25T09:31:06Z</time>
      </trkpt>
      <trkpt lat="43.86568" lon="6.48897">
        <ele>988</ele>
        <time>2018-05-25T09:31:21Z</time>
      </trkpt>
      <trkpt lat="43.8657" lon="6.48894">
        <ele>988</ele>
        <time>2018-05-25T09:31:32Z</time>
      </trkpt>
      <trkpt lat="43.86569" lon="6.48894">
        <ele>988</ele>
        <time>2018-05-25T09:32:02Z</time>
      </trkpt>
      <trkpt lat="43.86568" lon="6.48892">
        <ele>989</ele>
        <time>2018-05-25T09:32:45Z</time>
      </trkpt>
      <trkpt lat="43.86569" lon="6.48894">
        <ele>989</ele>
        <time>2018-05-25T09:33:37Z</time>
      </trkpt>
      <trkpt lat="43.86569" lon="6.48894">
        <ele>988</ele>
        <time>2018-05-25T09:34:24Z</time>
      </trkpt>
      <trkpt lat="43.86569" lon="6.48893">
        <ele>989</ele>
        <time>2018-05-25T09:34:39Z</time>
      </trkpt>
      <trkpt lat="43.86568" lon="6.48892">
        <ele>989</ele>
        <time>2018-05-25T09:35:06Z</time>
      </trkpt>
      <trkpt lat="43.86569" lon="6.48891">
        <ele>989</ele>
        <time>2018-05-25T09:35:33Z</time>
      </trkpt>
      <trkpt lat="43.86569" lon="6.48892">
        <ele>989</ele>
        <time>2018-05-25T09:36:00Z</time>
      </trkpt>
      <trkpt lat="43.8657" lon="6.48892">
        <ele>989</ele>
        <time>2018-05-25T09:36:25Z</time>
      </trkpt>
      <trkpt lat="43.86569" lon="6.48893">
        <ele>989</ele>
        <time>2018-05-25T09:36:50Z</time>
      </trkpt>
      <trkpt lat="43.86568" lon="6.48892">
        <ele>989</ele>
        <time>2018-05-25T09:37:19Z</time>
      </trkpt>
      <trkpt lat="43.8657" lon="6.48892">
        <ele>989</ele>
        <time>2018-05-25T09:37:51Z</time>
      </trkpt>
      <trkpt lat="43.86569" lon="6.4889">
        <ele>989</ele>
        <time>2018-05-25T09:38:11Z</time>
      </trkpt>
      <trkpt lat="43.8657" lon="6.48891">
        <ele>989</ele>
        <time>2018-05-25T09:38:37Z</time>
      </trkpt>
      <trkpt lat="43.8657" lon="6.4889">
        <ele>989</ele>
        <time>2018-05-25T09:39:03Z</time>
      </trkpt>
      <trkpt lat="43.86569" lon="6.48892">
        <ele>989</ele>
        <time>2018-05-25T09:39:26Z</time>
      </trkpt>
      <trkpt lat="43.86568" lon="6.48893">
        <ele>989</ele>
        <time>2018-05-25T09:39:50Z</time>
      </trkpt>
      <trkpt lat="43.86568" lon="6.48891">
        <ele>989</ele>
        <time>2018-05-25T09:40:13Z</time>
      </trkpt>
      <trkpt lat="43.86568" lon="6.48891">
        <ele>989</ele>
        <time>2018-05-25T09:40:30Z</time>
      </trkpt>
      <trkpt lat="43.86569" lon="6.48892">
        <ele>989</ele>
        <time>2018-05-25T09:40:55Z</time>
      </trkpt>
      <trkpt lat="43.8657" lon="6.48892">
        <ele>989</ele>
        <time>2018-05-25T09:41:22Z</time>
      </trkpt>
      <trkpt lat="43.86569" lon="6.48892">
        <ele>989</ele>
        <time>2018-05-25T09:41:46Z</time>
      </trkpt>
      <trkpt lat="43.86569" lon="6.48894">
        <ele>988</ele>
        <time>2018-05-25T09:42:11Z</time>
      </trkpt>
      <trkpt lat="43.86568" lon="6.48894">
        <ele>989</ele>
        <time>2018-05-25T09:42:34Z</time>
      </trkpt>
      <trkpt lat="43.86568" lon="6.48892">
        <ele>989</ele>
        <time>2018-05-25T09:43:02Z</time>
      </trkpt>
      <trkpt lat="43.8657" lon="6.48893">
        <ele>989</ele>
        <time>2018-05-25T09:43:23Z</time>
      </trkpt>
      <trkpt lat="43.86569" lon="6.48893">
        <ele>989</ele>
        <time>2018-05-25T09:43:39Z</time>
      </trkpt>
      <trkpt lat="43.86567" lon="6.48893">
        <ele>989</ele>
        <time>2018-05-25T09:44:05Z</time>
      </trkpt>
      <trkpt lat="43.86568" lon="6.48892">
        <ele>989</ele>
        <time>2018-05-25T09:44:37Z</time>
      </trkpt>
      <trkpt lat="43.86569" lon="6.48892">
        <ele>989</ele>
        <time>2018-05-25T09:45:01Z</time>
      </trkpt>
      <trkpt lat="43.8657" lon="6.48891">
        <ele>989</ele>
        <time>2018-05-25T09:45:24Z</time>
      </trkpt>
      <trkpt lat="43.86568" lon="6.48895">
        <ele>988</ele>
        <time>2018-05-25T09:45:51Z</time>
      </trkpt>
      <trkpt lat="43.86568" lon="6.48894">
        <ele>988</ele>
        <time>2018-05-25T09:46:16Z</time>
      </trkpt>
      <trkpt lat="43.86568" lon="6.48893">
        <ele>989</ele>
        <time>2018-05-25T09:46:39Z</time>
      </trkpt>
      <trkpt lat="43.8657" lon="6.48894">
        <ele>988</ele>
        <time>2018-05-25T09:47:02Z</time>
      </trkpt>
      <trkpt lat="43.8657" lon="6.48892">
        <ele>989</ele>
        <time>2018-05-25T09:47:18Z</time>
      </trkpt>
      <trkpt lat="43.8657" lon="6.48892">
        <ele>989</ele>
        <time>2018-05-25T09:47:44Z</time>
      </trkpt>
      <trkpt lat="43.8657" lon="6.48891">
        <ele>989</ele>
        <time>2018-05-25T09:48:08Z</time>
      </trkpt>
      <trkpt lat="43.86569" lon="6.48889">
        <ele>989</ele>
        <time>2018-05-25T09:48:29Z</time>
      </trkpt>
      <trkpt lat="43.8657" lon="6.4889">
        <ele>989</ele>
        <time>2018-05-25T09:48:50Z</time>
      </trkpt>
      <trkpt lat="43.86571" lon="6.48889">
        <ele>989</ele>
        <time>2018-05-25T09:49:03Z</time>
      </trkpt>
      <trkpt lat="43.86571" lon="6.48888">
        <ele>989</ele>
        <time>2018-05-25T09:49:04Z</time>
      </trkpt>
      <trkpt lat="43.86572" lon="6.48886">
        <ele>989</ele>
        <time>2018-05-25T09:49:05Z</time>
      </trkpt>
      <trkpt lat="43.86573" lon="6.48884">
        <ele>989</ele>
        <time>2018-05-25T09:49:06Z</time>
      </trkpt>
      <trkpt lat="43.86574" lon="6.48882">
        <ele>990</ele>
        <time>2018-05-25T09:49:07Z</time>
      </trkpt>
      <trkpt lat="43.86588" lon="6.48856">
        <ele>991</ele>
        <time>2018-05-25T09:49:20Z</time>
      </trkpt>
      <trkpt lat="43.86608" lon="6.48811">
        <ele>993</ele>
        <time>2018-05-25T09:49:40Z</time>
      </trkpt>
      <trkpt lat="43.86619" lon="6.4877">
        <ele>998</ele>
        <time>2018-05-25T09:49:57Z</time>
      </trkpt>
      <trkpt lat="43.86644" lon="6.48744">
        <ele>1002</ele>
        <time>2018-05-25T09:50:15Z</time>
      </trkpt>
      <trkpt lat="43.86676" lon="6.48738">
        <ele>1001</ele>
        <time>2018-05-25T09:50:33Z</time>
      </trkpt>
      <trkpt lat="43.86703" lon="6.48718">
        <ele>1001</ele>
        <time>2018-05-25T09:50:50Z</time>
      </trkpt>
      <trkpt lat="43.86729" lon="6.4869">
        <ele>1003</ele>
        <time>2018-05-25T09:51:08Z</time>
      </trkpt>
      <trkpt lat="43.86754" lon="6.4865">
        <ele>1002</ele>
        <time>2018-05-25T09:51:29Z</time>
      </trkpt>
      <trkpt lat="43.86747" lon="6.48617">
        <ele>1005</ele>
        <time>2018-05-25T09:51:42Z</time>
      </trkpt>
      <trkpt lat="43.86744" lon="6.48613">
        <ele>1006</ele>
        <time>2018-05-25T09:51:44Z</time>
      </trkpt>
      <trkpt lat="43.86742" lon="6.4861">
        <ele>1007</ele>
        <time>2018-05-25T09:51:45Z</time>
      </trkpt>
      <trkpt lat="43.86741" lon="6.48609">
        <ele>1008</ele>
        <time>2018-05-25T09:51:46Z</time>
      </trkpt>
      <trkpt lat="43.86739" lon="6.48607">
        <ele>1009</ele>
        <time>2018-05-25T09:51:47Z</time>
      </trkpt>
      <trkpt lat="43.86737" lon="6.48606">
        <ele>1009</ele>
        <time>2018-05-25T09:51:48Z</time>
      </trkpt>
      <trkpt lat="43.86735" lon="6.48606">
        <ele>1010</ele>
        <time>2018-05-25T09:51:49Z</time>
      </trkpt>
      <trkpt lat="43.86732" lon="6.48606">
        <ele>1011</ele>
        <time>2018-05-25T09:51:50Z</time>
      </trkpt>
      <trkpt lat="43.86706" lon="6.48619">
        <ele>1016</ele>
        <time>2018-05-25T09:52:03Z</time>
      </trkpt>
      <trkpt lat="43.86677" lon="6.4864">
        <ele>1019</ele>
        <time>2018-05-25T09:52:20Z</time>
      </trkpt>
      <trkpt lat="43.86647" lon="6.48655">
        <ele>1021</ele>
        <time>2018-05-25T09:52:37Z</time>
      </trkpt>
      <trkpt lat="43.86619" lon="6.48652">
        <ele>1024</ele>
        <time>2018-05-25T09:52:53Z</time>
      </trkpt>
      <trkpt lat="43.8659" lon="6.48643">
        <ele>1026</ele>
        <time>2018-05-25T09:53:10Z</time>
      </trkpt>
      <trkpt lat="43.86564" lon="6.48635">
        <ele>1028</ele>
        <time>2018-05-25T09:53:25Z</time>
      </trkpt>
      <trkpt lat="43.86542" lon="6.48646">
        <ele>1029</ele>
        <time>2018-05-25T09:53:38Z</time>
      </trkpt>
      <trkpt lat="43.86527" lon="6.48681">
        <ele>1027</ele>
        <time>2018-05-25T09:53:54Z</time>
      </trkpt>
      <trkpt lat="43.86501" lon="6.487">
        <ele>1028</ele>
        <time>2018-05-25T09:54:10Z</time>
      </trkpt>
      <trkpt lat="43.86465" lon="6.487">
        <ele>1031</ele>
        <time>2018-05-25T09:54:29Z</time>
      </trkpt>
      <trkpt lat="43.8644" lon="6.4868">
        <ele>1035</ele>
        <time>2018-05-25T09:54:44Z</time>
      </trkpt>
      <trkpt lat="43.86417" lon="6.4865">
        <ele>1040</ele>
        <time>2018-05-25T09:55:01Z</time>
      </trkpt>
      <trkpt lat="43.86396" lon="6.48616">
        <ele>1044</ele>
        <time>2018-05-25T09:55:18Z</time>
      </trkpt>
      <trkpt lat="43.86374" lon="6.48587">
        <ele>1045</ele>
        <time>2018-05-25T09:55:34Z</time>
      </trkpt>
      <trkpt lat="43.86352" lon="6.48572">
        <ele>1044</ele>
        <time>2018-05-25T09:55:46Z</time>
      </trkpt>
      <trkpt lat="43.86346" lon="6.48551">
        <ele>1044</ele>
        <time>2018-05-25T09:55:53Z</time>
      </trkpt>
      <trkpt lat="43.86347" lon="6.48549">
        <ele>1044</ele>
        <time>2018-05-25T09:55:54Z</time>
      </trkpt>
      <trkpt lat="43.86348" lon="6.48546">
        <ele>1044</ele>
        <time>2018-05-25T09:55:55Z</time>
      </trkpt>
      <trkpt lat="43.86349" lon="6.48544">
        <ele>1045</ele>
        <time>2018-05-25T09:55:56Z</time>
      </trkpt>
      <trkpt lat="43.86351" lon="6.48543">
        <ele>1045</ele>
        <time>2018-05-25T09:55:57Z</time>
      </trkpt>
      <trkpt lat="43.86353" lon="6.48542">
        <ele>1046</ele>
        <time>2018-05-25T09:55:58Z</time>
      </trkpt>
      <trkpt lat="43.86356" lon="6.48541">
        <ele>1046</ele>
        <time>2018-05-25T09:55:59Z</time>
      </trkpt>
      <trkpt lat="43.86358" lon="6.48541">
        <ele>1046</ele>
        <time>2018-05-25T09:56:00Z</time>
      </trkpt>
      <trkpt lat="43.8636" lon="6.48542">
        <ele>1047</ele>
        <time>2018-05-25T09:56:01Z</time>
      </trkpt>
      <trkpt lat="43.86362" lon="6.48543">
        <ele>1047</ele>
        <time>2018-05-25T09:56:02Z</time>
      </trkpt>
      <trkpt lat="43.86364" lon="6.48544">
        <ele>1047</ele>
        <time>2018-05-25T09:56:03Z</time>
      </trkpt>
      <trkpt lat="43.86395" lon="6.48563">
        <ele>1050</ele>
        <time>2018-05-25T09:56:20Z</time>
      </trkpt>
      <trkpt lat="43.86427" lon="6.48562">
        <ele>1052</ele>
        <time>2018-05-25T09:56:36Z</time>
      </trkpt>
      <trkpt lat="43.86454" lon="6.48551">
        <ele>1052</ele>
        <time>2018-05-25T09:56:50Z</time>
      </trkpt>
      <trkpt lat="43.86484" lon="6.48537">
        <ele>1052</ele>
        <time>2018-05-25T09:57:04Z</time>
      </trkpt>
      <trkpt lat="43.86503" lon="6.4852">
        <ele>1055</ele>
        <time>2018-05-25T09:57:14Z</time>
      </trkpt>
      <trkpt lat="43.86501" lon="6.48504">
        <ele>1059</ele>
        <time>2018-05-25T09:57:19Z</time>
      </trkpt>
      <trkpt lat="43.86473" lon="6.48503">
        <ele>1060</ele>
        <time>2018-05-25T09:57:30Z</time>
      </trkpt>
      <trkpt lat="43.86432" lon="6.48512">
        <ele>1059</ele>
        <time>2018-05-25T09:57:44Z</time>
      </trkpt>
      <trkpt lat="43.86415" lon="6.48482">
        <ele>1061</ele>
        <time>2018-05-25T09:57:55Z</time>
      </trkpt>
      <trkpt lat="43.86415" lon="6.48479">
        <ele>1061</ele>
        <time>2018-05-25T09:57:56Z</time>
      </trkpt>
      <trkpt lat="43.86413" lon="6.48424">
        <ele>1068</ele>
        <time>2018-05-25T09:58:13Z</time>
      </trkpt>
      <trkpt lat="43.86396" lon="6.48374">
        <ele>1069</ele>
        <time>2018-05-25T09:58:30Z</time>
      </trkpt>
      <trkpt lat="43.86396" lon="6.4833">
        <ele>1072</ele>
        <time>2018-05-25T09:58:44Z</time>
      </trkpt>
      <trkpt lat="43.86402" lon="6.48278">
        <ele>1075</ele>
        <time>2018-05-25T09:59:01Z</time>
      </trkpt>
      <trkpt lat="43.8641" lon="6.48231">
        <ele>1077</ele>
        <time>2018-05-25T09:59:18Z</time>
      </trkpt>
      <trkpt lat="43.86428" lon="6.48189">
        <ele>1076</ele>
        <time>2018-05-25T09:59:35Z</time>
      </trkpt>
      <trkpt lat="43.86454" lon="6.48161">
        <ele>1080</ele>
        <time>2018-05-25T09:59:50Z</time>
      </trkpt>
      <trkpt lat="43.86479" lon="6.48129">
        <ele>1086</ele>
        <time>2018-05-25T10:00:06Z</time>
      </trkpt>
      <trkpt lat="43.86498" lon="6.48081">
        <ele>1089</ele>
        <time>2018-05-25T10:00:19Z</time>
      </trkpt>
      <trkpt lat="43.86506" lon="6.48043">
        <ele>1091</ele>
        <time>2018-05-25T10:00:27Z</time>
      </trkpt>
      <trkpt lat="43.86505" lon="6.48039">
        <ele>1089</ele>
        <time>2018-05-25T10:00:28Z</time>
      </trkpt>
      <trkpt lat="43.86503" lon="6.48036">
        <ele>1088</ele>
        <time>2018-05-25T10:00:29Z</time>
      </trkpt>
      <trkpt lat="43.86503" lon="6.48035">
        <ele>1088</ele>
        <time>2018-05-25T10:00:40Z</time>
      </trkpt>
      <trkpt lat="43.86503" lon="6.48034">
        <ele>1088</ele>
        <time>2018-05-25T10:01:08Z</time>
      </trkpt>
      <trkpt lat="43.86502" lon="6.48034">
        <ele>1087</ele>
        <time>2018-05-25T10:01:34Z</time>
      </trkpt>
      <trkpt lat="43.86501" lon="6.48031">
        <ele>1087</ele>
        <time>2018-05-25T10:01:56Z</time>
      </trkpt>
      <trkpt lat="43.86501" lon="6.48029">
        <ele>1087</ele>
        <time>2018-05-25T10:01:57Z</time>
      </trkpt>
      <trkpt lat="43.86503" lon="6.48027">
        <ele>1087</ele>
        <time>2018-05-25T10:01:58Z</time>
      </trkpt>
      <trkpt lat="43.86504" lon="6.48025">
        <ele>1088</ele>
        <time>2018-05-25T10:01:59Z</time>
      </trkpt>
      <trkpt lat="43.86507" lon="6.48024">
        <ele>1088</ele>
        <time>2018-05-25T10:02:00Z</time>
      </trkpt>
      <trkpt lat="43.86509" lon="6.48022">
        <ele>1089</ele>
        <time>2018-05-25T10:02:01Z</time>
      </trkpt>
      <trkpt lat="43.86511" lon="6.4802">
        <ele>1090</ele>
        <time>2018-05-25T10:02:02Z</time>
      </trkpt>
      <trkpt lat="43.86525" lon="6.47969">
        <ele>1092</ele>
        <time>2018-05-25T10:02:13Z</time>
      </trkpt>
      <trkpt lat="43.86533" lon="6.47906">
        <ele>1094</ele>
        <time>2018-05-25T10:02:26Z</time>
      </trkpt>
      <trkpt lat="43.86536" lon="6.47846">
        <ele>1092</ele>
        <time>2018-05-25T10:02:40Z</time>
      </trkpt>
      <trkpt lat="43.8656" lon="6.47797">
        <ele>1095</ele>
        <time>2018-05-25T10:02:54Z</time>
      </trkpt>
      <trkpt lat="43.86607" lon="6.47741">
        <ele>1097</ele>
        <time>2018-05-25T10:03:14Z</time>
      </trkpt>
      <trkpt lat="43.86645" lon="6.4769">
        <ele>1101</ele>
        <time>2018-05-25T10:03:30Z</time>
      </trkpt>
      <trkpt lat="43.86662" lon="6.47629">
        <ele>1103</ele>
        <time>2018-05-25T10:03:44Z</time>
      </trkpt>
      <trkpt lat="43.8667" lon="6.47542">
        <ele>1103</ele>
        <time>2018-05-25T10:04:02Z</time>
      </trkpt>
      <trkpt lat="43.86696" lon="6.47481">
        <ele>1105</ele>
        <time>2018-05-25T10:04:17Z</time>
      </trkpt>
      <trkpt lat="43.86727" lon="6.47427">
        <ele>1107</ele>
        <time>2018-05-25T10:04:31Z</time>
      </trkpt>
      <trkpt lat="43.86732" lon="6.4737">
        <ele>1106</ele>
        <time>2018-05-25T10:04:44Z</time>
      </trkpt>
      <trkpt lat="43.86744" lon="6.4733">
        <ele>1111</ele>
        <time>2018-05-25T10:04:56Z</time>
      </trkpt>
      <trkpt lat="43.86774" lon="6.47273">
        <ele>1117</ele>
        <time>2018-05-25T10:05:15Z</time>
      </trkpt>
      <trkpt lat="43.86799" lon="6.47224">
        <ele>1120</ele>
        <time>2018-05-25T10:05:31Z</time>
      </trkpt>
      <trkpt lat="43.86822" lon="6.47167">
        <ele>1115</ele>
        <time>2018-05-25T10:05:47Z</time>
      </trkpt>
      <trkpt lat="43.86824" lon="6.47164">
        <ele>1115</ele>
        <time>2018-05-25T10:05:48Z</time>
      </trkpt>
      <trkpt lat="43.86827" lon="6.47161">
        <ele>1116</ele>
        <time>2018-05-25T10:05:49Z</time>
      </trkpt>
      <trkpt lat="43.86829" lon="6.47159">
        <ele>1116</ele>
        <time>2018-05-25T10:05:50Z</time>
      </trkpt>
      <trkpt lat="43.86832" lon="6.47157">
        <ele>1116</ele>
        <time>2018-05-25T10:05:51Z</time>
      </trkpt>
      <trkpt lat="43.86834" lon="6.47156">
        <ele>1117</ele>
        <time>2018-05-25T10:05:52Z</time>
      </trkpt>
      <trkpt lat="43.86866" lon="6.47121">
        <ele>1122</ele>
        <time>2018-05-25T10:06:07Z</time>
      </trkpt>
      <trkpt lat="43.86867" lon="6.47062">
        <ele>1119</ele>
        <time>2018-05-25T10:06:19Z</time>
      </trkpt>
      <trkpt lat="43.8687" lon="6.47046">
        <ele>1119</ele>
        <time>2018-05-25T10:06:22Z</time>
      </trkpt>
      <trkpt lat="43.86871" lon="6.4704">
        <ele>1120</ele>
        <time>2018-05-25T10:06:23Z</time>
      </trkpt>
      <trkpt lat="43.86872" lon="6.47034">
        <ele>1120</ele>
        <time>2018-05-25T10:06:24Z</time>
      </trkpt>
      <trkpt lat="43.86873" lon="6.47028">
        <ele>1120</ele>
        <time>2018-05-25T10:06:25Z</time>
      </trkpt>
      <trkpt lat="43.86875" lon="6.47023">
        <ele>1121</ele>
        <time>2018-05-25T10:06:26Z</time>
      </trkpt>
      <trkpt lat="43.86881" lon="6.47">
        <ele>1122</ele>
        <time>2018-05-25T10:06:30Z</time>
      </trkpt>
      <trkpt lat="43.86902" lon="6.46929">
        <ele>1126</ele>
        <time>2018-05-25T10:06:45Z</time>
      </trkpt>
      <trkpt lat="43.86897" lon="6.46869">
        <ele>1126</ele>
        <time>2018-05-25T10:06:57Z</time>
      </trkpt>
      <trkpt lat="43.86902" lon="6.46805">
        <ele>1128</ele>
        <time>2018-05-25T10:07:11Z</time>
      </trkpt>
      <trkpt lat="43.86875" lon="6.46756">
        <ele>1129</ele>
        <time>2018-05-25T10:07:26Z</time>
      </trkpt>
      <trkpt lat="43.86847" lon="6.46732">
        <ele>1132</ele>
        <time>2018-05-25T10:07:40Z</time>
      </trkpt>
      <trkpt lat="43.86814" lon="6.46742">
        <ele>1130</ele>
        <time>2018-05-25T10:07:53Z</time>
      </trkpt>
      <trkpt lat="43.8677" lon="6.46764">
        <ele>1129</ele>
        <time>2018-05-25T10:08:10Z</time>
      </trkpt>
      <trkpt lat="43.86726" lon="6.46758">
        <ele>1132</ele>
        <time>2018-05-25T10:08:26Z</time>
      </trkpt>
      <trkpt lat="43.86679" lon="6.4677">
        <ele>1133</ele>
        <time>2018-05-25T10:08:43Z</time>
      </trkpt>
      <trkpt lat="43.86626" lon="6.46795">
        <ele>1133</ele>
        <time>2018-05-25T10:09:00Z</time>
      </trkpt>
      <trkpt lat="43.86598" lon="6.4676">
        <ele>1136</ele>
        <time>2018-05-25T10:09:11Z</time>
      </trkpt>
      <trkpt lat="43.86579" lon="6.4671">
        <ele>1139</ele>
        <time>2018-05-25T10:09:26Z</time>
      </trkpt>
      <trkpt lat="43.86554" lon="6.46676">
        <ele>1140</ele>
        <time>2018-05-25T10:09:40Z</time>
      </trkpt>
      <trkpt lat="43.86516" lon="6.46651">
        <ele>1140</ele>
        <time>2018-05-25T10:09:57Z</time>
      </trkpt>
      <trkpt lat="43.86498" lon="6.46615">
        <ele>1140</ele>
        <time>2018-05-25T10:10:11Z</time>
      </trkpt>
      <trkpt lat="43.86509" lon="6.46554">
        <ele>1143</ele>
        <time>2018-05-25T10:10:28Z</time>
      </trkpt>
      <trkpt lat="43.86524" lon="6.46498">
        <ele>1144</ele>
        <time>2018-05-25T10:10:42Z</time>
      </trkpt>
      <trkpt lat="43.86546" lon="6.46442">
        <ele>1147</ele>
        <time>2018-05-25T10:10:57Z</time>
      </trkpt>
      <trkpt lat="43.86551" lon="6.4641">
        <ele>1148</ele>
        <time>2018-05-25T10:11:05Z</time>
      </trkpt>
      <trkpt lat="43.86553" lon="6.46409">
        <ele>1148</ele>
        <time>2018-05-25T10:11:06Z</time>
      </trkpt>
      <trkpt lat="43.86555" lon="6.46408">
        <ele>1148</ele>
        <time>2018-05-25T10:11:07Z</time>
      </trkpt>
      <trkpt lat="43.86555" lon="6.46407">
        <ele>1148</ele>
        <time>2018-05-25T10:11:20Z</time>
      </trkpt>
      <trkpt lat="43.86558" lon="6.46408">
        <ele>1148</ele>
        <time>2018-05-25T10:11:34Z</time>
      </trkpt>
      <trkpt lat="43.86558" lon="6.46409">
        <ele>1148</ele>
        <time>2018-05-25T10:11:35Z</time>
      </trkpt>
      <trkpt lat="43.86559" lon="6.46411">
        <ele>1148</ele>
        <time>2018-05-25T10:11:36Z</time>
      </trkpt>
      <trkpt lat="43.86558" lon="6.46413">
        <ele>1148</ele>
        <time>2018-05-25T10:11:52Z</time>
      </trkpt>
      <trkpt lat="43.86559" lon="6.46412">
        <ele>1148</ele>
        <time>2018-05-25T10:12:45Z</time>
      </trkpt>
      <trkpt lat="43.86559" lon="6.46412">
        <ele>1148</ele>
        <time>2018-05-25T10:13:37Z</time>
      </trkpt>
      <trkpt lat="43.86559" lon="6.46412">
        <ele>1148</ele>
        <time>2018-05-25T10:14:25Z</time>
      </trkpt>
      <trkpt lat="43.86557" lon="6.46413">
        <ele>1148</ele>
        <time>2018-05-25T10:15:14Z</time>
      </trkpt>
      <trkpt lat="43.86559" lon="6.46412">
        <ele>1148</ele>
        <time>2018-05-25T10:16:05Z</time>
      </trkpt>
      <trkpt lat="43.86559" lon="6.46412">
        <ele>1148</ele>
        <time>2018-05-25T10:16:50Z</time>
      </trkpt>
      <trkpt lat="43.86559" lon="6.4641">
        <ele>1148</ele>
        <time>2018-05-25T10:17:49Z</time>
      </trkpt>
      <trkpt lat="43.8656" lon="6.46414">
        <ele>1149</ele>
        <time>2018-05-25T10:18:49Z</time>
      </trkpt>
      <trkpt lat="43.86562" lon="6.46413">
        <ele>1149</ele>
        <time>2018-05-25T10:19:21Z</time>
      </trkpt>
      <trkpt lat="43.86563" lon="6.46413">
        <ele>1149</ele>
        <time>2018-05-25T10:19:23Z</time>
      </trkpt>
      <trkpt lat="43.86564" lon="6.46413">
        <ele>1149</ele>
        <time>2018-05-25T10:19:24Z</time>
      </trkpt>
      <trkpt lat="43.86566" lon="6.46414">
        <ele>1149</ele>
        <time>2018-05-25T10:19:25Z</time>
      </trkpt>
      <trkpt lat="43.86577" lon="6.4643">
        <ele>1150</ele>
        <time>2018-05-25T10:19:34Z</time>
      </trkpt>
      <trkpt lat="43.86579" lon="6.46431">
        <ele>1150</ele>
        <time>2018-05-25T10:19:35Z</time>
      </trkpt>
      <trkpt lat="43.86589" lon="6.46433">
        <ele>1151</ele>
        <time>2018-05-25T10:19:41Z</time>
      </trkpt>
      <trkpt lat="43.86589" lon="6.46434">
        <ele>1151</ele>
        <time>2018-05-25T10:19:42Z</time>
      </trkpt>
      <trkpt lat="43.8659" lon="6.4644">
        <ele>1151</ele>
        <time>2018-05-25T10:19:55Z</time>
      </trkpt>
      <trkpt lat="43.86591" lon="6.46439">
        <ele>1151</ele>
        <time>2018-05-25T10:20:31Z</time>
      </trkpt>
      <trkpt lat="43.86589" lon="6.4644">
        <ele>1151</ele>
        <time>2018-05-25T10:20:59Z</time>
      </trkpt>
      <trkpt lat="43.86587" lon="6.46447">
        <ele>1151</ele>
        <time>2018-05-25T10:21:03Z</time>
      </trkpt>
      <trkpt lat="43.86588" lon="6.4645">
        <ele>1151</ele>
        <time>2018-05-25T10:21:04Z</time>
      </trkpt>
      <trkpt lat="43.86589" lon="6.46452">
        <ele>1151</ele>
        <time>2018-05-25T10:21:05Z</time>
      </trkpt>
      <trkpt lat="43.86591" lon="6.46454">
        <ele>1151</ele>
        <time>2018-05-25T10:21:06Z</time>
      </trkpt>
      <trkpt lat="43.86592" lon="6.46456">
        <ele>1151</ele>
        <time>2018-05-25T10:21:07Z</time>
      </trkpt>
      <trkpt lat="43.86593" lon="6.46458">
        <ele>1151</ele>
        <time>2018-05-25T10:21:08Z</time>
      </trkpt>
      <trkpt lat="43.86595" lon="6.4646">
        <ele>1151</ele>
        <time>2018-05-25T10:21:09Z</time>
      </trkpt>
      <trkpt lat="43.86596" lon="6.46463">
        <ele>1151</ele>
        <time>2018-05-25T10:21:10Z</time>
      </trkpt>
      <trkpt lat="43.86597" lon="6.46466">
        <ele>1151</ele>
        <time>2018-05-25T10:21:11Z</time>
      </trkpt>
      <trkpt lat="43.86598" lon="6.46469">
        <ele>1151</ele>
        <time>2018-05-25T10:21:12Z</time>
      </trkpt>
      <trkpt lat="43.866" lon="6.46471">
        <ele>1152</ele>
        <time>2018-05-25T10:21:13Z</time>
      </trkpt>
      <trkpt lat="43.86625" lon="6.46514">
        <ele>1153</ele>
        <time>2018-05-25T10:21:30Z</time>
      </trkpt>
      <trkpt lat="43.86656" lon="6.46553">
        <ele>1153</ele>
        <time>2018-05-25T10:21:48Z</time>
      </trkpt>
      <trkpt lat="43.8667" lon="6.46584">
        <ele>1151</ele>
        <time>2018-05-25T10:21:59Z</time>
      </trkpt>
      <trkpt lat="43.86672" lon="6.46586">
        <ele>1151</ele>
        <time>2018-05-25T10:22:00Z</time>
      </trkpt>
      <trkpt lat="43.86674" lon="6.46588">
        <ele>1151</ele>
        <time>2018-05-25T10:22:01Z</time>
      </trkpt>
      <trkpt lat="43.86682" lon="6.46594">
        <ele>1150</ele>
        <time>2018-05-25T10:22:14Z</time>
      </trkpt>
      <trkpt lat="43.86683" lon="6.46594">
        <ele>1150</ele>
        <time>2018-05-25T10:22:45Z</time>
      </trkpt>
      <trkpt lat="43.86683" lon="6.46593">
        <ele>1150</ele>
        <time>2018-05-25T10:22:46Z</time>
      </trkpt>
      <trkpt lat="43.86683" lon="6.46591">
        <ele>1151</ele>
        <time>2018-05-25T10:22:47Z</time>
      </trkpt>
      <trkpt lat="43.86682" lon="6.4659">
        <ele>1151</ele>
        <time>2018-05-25T10:22:48Z</time>
      </trkpt>
      <trkpt lat="43.86681" lon="6.46589">
        <ele>1151</ele>
        <time>2018-05-25T10:22:49Z</time>
      </trkpt>
      <trkpt lat="43.8668" lon="6.46587">
        <ele>1151</ele>
        <time>2018-05-25T10:22:50Z</time>
      </trkpt>
      <trkpt lat="43.86672" lon="6.46562">
        <ele>1153</ele>
        <time>2018-05-25T10:23:06Z</time>
      </trkpt>
      <trkpt lat="43.8667" lon="6.46556">
        <ele>1153</ele>
        <time>2018-05-25T10:23:22Z</time>
      </trkpt>
      <trkpt lat="43.86665" lon="6.46541">
        <ele>1154</ele>
        <time>2018-05-25T10:23:41Z</time>
      </trkpt>
      <trkpt lat="43.86665" lon="6.4653">
        <ele>1155</ele>
        <time>2018-05-25T10:23:52Z</time>
      </trkpt>
      <trkpt lat="43.86669" lon="6.46525">
        <ele>1155</ele>
        <time>2018-05-25T10:24:04Z</time>
      </trkpt>
      <trkpt lat="43.86674" lon="6.46521">
        <ele>1156</ele>
        <time>2018-05-25T10:24:36Z</time>
      </trkpt>
      <trkpt lat="43.86674" lon="6.46516">
        <ele>1157</ele>
        <time>2018-05-25T10:25:12Z</time>
      </trkpt>
      <trkpt lat="43.86675" lon="6.46515">
        <ele>1157</ele>
        <time>2018-05-25T10:26:01Z</time>
      </trkpt>
      <trkpt lat="43.86673" lon="6.46517">
        <ele>1156</ele>
        <time>2018-05-25T10:26:49Z</time>
      </trkpt>
      <trkpt lat="43.86674" lon="6.46519">
        <ele>1156</ele>
        <time>2018-05-25T10:27:31Z</time>
      </trkpt>
      <trkpt lat="43.86674" lon="6.46519">
        <ele>1156</ele>
        <time>2018-05-25T10:28:15Z</time>
      </trkpt>
      <trkpt lat="43.86672" lon="6.46519">
        <ele>1156</ele>
        <time>2018-05-25T10:28:45Z</time>
      </trkpt>
      <trkpt lat="43.86669" lon="6.46528">
        <ele>1155</ele>
        <time>2018-05-25T10:29:15Z</time>
      </trkpt>
      <trkpt lat="43.86666" lon="6.46536">
        <ele>1154</ele>
        <time>2018-05-25T10:29:24Z</time>
      </trkpt>
      <trkpt lat="43.86666" lon="6.46538">
        <ele>1154</ele>
        <time>2018-05-25T10:29:25Z</time>
      </trkpt>
      <trkpt lat="43.86666" lon="6.46548">
        <ele>1154</ele>
        <time>2018-05-25T10:29:29Z</time>
      </trkpt>
      <trkpt lat="43.86667" lon="6.4655">
        <ele>1154</ele>
        <time>2018-05-25T10:29:30Z</time>
      </trkpt>
      <trkpt lat="43.86668" lon="6.46552">
        <ele>1154</ele>
        <time>2018-05-25T10:29:31Z</time>
      </trkpt>
      <trkpt lat="43.8667" lon="6.46553">
        <ele>1153</ele>
        <time>2018-05-25T10:29:32Z</time>
      </trkpt>
      <trkpt lat="43.86671" lon="6.46555">
        <ele>1153</ele>
        <time>2018-05-25T10:29:33Z</time>
      </trkpt>
      <trkpt lat="43.86671" lon="6.46557">
        <ele>1153</ele>
        <time>2018-05-25T10:29:34Z</time>
      </trkpt>
      <trkpt lat="43.86672" lon="6.46559">
        <ele>1153</ele>
        <time>2018-05-25T10:29:35Z</time>
      </trkpt>
      <trkpt lat="43.86672" lon="6.46561">
        <ele>1153</ele>
        <time>2018-05-25T10:29:36Z</time>
      </trkpt>
      <trkpt lat="43.86672" lon="6.46564">
        <ele>1153</ele>
        <time>2018-05-25T10:29:37Z</time>
      </trkpt>
      <trkpt lat="43.86671" lon="6.46566">
        <ele>1153</ele>
        <time>2018-05-25T10:29:38Z</time>
      </trkpt>
      <trkpt lat="43.86671" lon="6.46569">
        <ele>1152</ele>
        <time>2018-05-25T10:29:39Z</time>
      </trkpt>
      <trkpt lat="43.86671" lon="6.4657">
        <ele>1152</ele>
        <time>2018-05-25T10:29:51Z</time>
      </trkpt>
      <trkpt lat="43.86671" lon="6.46571">
        <ele>1152</ele>
        <time>2018-05-25T10:29:55Z</time>
      </trkpt>
      <trkpt lat="43.86683" lon="6.46604">
        <ele>1149</ele>
        <time>2018-05-25T10:30:06Z</time>
      </trkpt>
      <trkpt lat="43.86698" lon="6.46643">
        <ele>1145</ele>
        <time>2018-05-25T10:30:18Z</time>
      </trkpt>
      <trkpt lat="43.86733" lon="6.46674">
        <ele>1140</ele>
        <time>2018-05-25T10:30:31Z</time>
      </trkpt>
      <trkpt lat="43.86741" lon="6.46676">
        <ele>1140</ele>
        <time>2018-05-25T10:30:43Z</time>
      </trkpt>
      <trkpt lat="43.8674" lon="6.46676">
        <ele>1140</ele>
        <time>2018-05-25T10:31:07Z</time>
      </trkpt>
      <trkpt lat="43.86741" lon="6.46675">
        <ele>1140</ele>
        <time>2018-05-25T10:31:30Z</time>
      </trkpt>
      <trkpt lat="43.86742" lon="6.46675">
        <ele>1140</ele>
        <time>2018-05-25T10:31:57Z</time>
      </trkpt>
      <trkpt lat="43.86741" lon="6.46676">
        <ele>1140</ele>
        <time>2018-05-25T10:32:24Z</time>
      </trkpt>
      <trkpt lat="43.86741" lon="6.46676">
        <ele>1140</ele>
        <time>2018-05-25T10:32:53Z</time>
      </trkpt>
      <trkpt lat="43.86741" lon="6.46676">
        <ele>1140</ele>
        <time>2018-05-25T10:33:21Z</time>
      </trkpt>
      <trkpt lat="43.8674" lon="6.46676">
        <ele>1140</ele>
        <time>2018-05-25T10:33:52Z</time>
      </trkpt>
      <trkpt lat="43.86747" lon="6.46677">
        <ele>1140</ele>
        <time>2018-05-25T10:34:15Z</time>
      </trkpt>
      <trkpt lat="43.86775" lon="6.46684">
        <ele>1140</ele>
        <time>2018-05-25T10:34:27Z</time>
      </trkpt>
      <trkpt lat="43.86797" lon="6.46678">
        <ele>1142</ele>
        <time>2018-05-25T10:34:38Z</time>
      </trkpt>
      <trkpt lat="43.86803" lon="6.46678">
        <ele>1142</ele>
        <time>2018-05-25T10:34:48Z</time>
      </trkpt>
      <trkpt lat="43.86803" lon="6.46679">
        <ele>1142</ele>
        <time>2018-05-25T10:35:11Z</time>
      </trkpt>
      <trkpt lat="43.86811" lon="6.46675">
        <ele>1144</ele>
        <time>2018-05-25T10:35:29Z</time>
      </trkpt>
      <trkpt lat="43.86823" lon="6.46671">
        <ele>1145</ele>
        <time>2018-05-25T10:35:45Z</time>
      </trkpt>
      <trkpt lat="43.86838" lon="6.46669">
        <ele>1145</ele>
        <time>2018-05-25T10:36:01Z</time>
      </trkpt>
      <trkpt lat="43.86855" lon="6.46667">
        <ele>1145</ele>
        <time>2018-05-25T10:36:19Z</time>
      </trkpt>
      <trkpt lat="43.86862" lon="6.46664">
        <ele>1145</ele>
        <time>2018-05-25T10:36:35Z</time>
      </trkpt>
      <trkpt lat="43.86864" lon="6.46661">
        <ele>1146</ele>
        <time>2018-05-25T10:36:42Z</time>
      </trkpt>
      <trkpt lat="43.86865" lon="6.46659">
        <ele>1146</ele>
        <time>2018-05-25T10:36:43Z</time>
      </trkpt>
      <trkpt lat="43.86866" lon="6.46658">
        <ele>1146</ele>
        <time>2018-05-25T10:36:44Z</time>
      </trkpt>
      <trkpt lat="43.8689" lon="6.46633">
        <ele>1151</ele>
        <time>2018-05-25T10:36:58Z</time>
      </trkpt>
      <trkpt lat="43.86907" lon="6.46608">
        <ele>1153</ele>
        <time>2018-05-25T10:37:14Z</time>
      </trkpt>
      <trkpt lat="43.86926" lon="6.4658">
        <ele>1155</ele>
        <time>2018-05-25T10:37:33Z</time>
      </trkpt>
      <trkpt lat="43.86942" lon="6.46547">
        <ele>1158</ele>
        <time>2018-05-25T10:37:53Z</time>
      </trkpt>
      <trkpt lat="43.86952" lon="6.4652">
        <ele>1160</ele>
        <time>2018-05-25T10:38:09Z</time>
      </trkpt>
      <trkpt lat="43.86959" lon="6.46506">
        <ele>1162</ele>
        <time>2018-05-25T10:38:18Z</time>
      </trkpt>
      <trkpt lat="43.86959" lon="6.46505">
        <ele>1162</ele>
        <time>2018-05-25T10:38:19Z</time>
      </trkpt>
      <trkpt lat="43.8696" lon="6.46503">
        <ele>1162</ele>
        <time>2018-05-25T10:38:20Z</time>
      </trkpt>
      <trkpt lat="43.86961" lon="6.46502">
        <ele>1162</ele>
        <time>2018-05-25T10:38:21Z</time>
      </trkpt>
      <trkpt lat="43.86962" lon="6.46501">
        <ele>1162</ele>
        <time>2018-05-25T10:38:22Z</time>
      </trkpt>
      <trkpt lat="43.86963" lon="6.465">
        <ele>1162</ele>
        <time>2018-05-25T10:38:23Z</time>
      </trkpt>
      <trkpt lat="43.86963" lon="6.46498">
        <ele>1163</ele>
        <time>2018-05-25T10:38:24Z</time>
      </trkpt>
      <trkpt lat="43.86963" lon="6.46495">
        <ele>1163</ele>
        <time>2018-05-25T10:38:27Z</time>
      </trkpt>
      <trkpt lat="43.86963" lon="6.46493">
        <ele>1163</ele>
        <time>2018-05-25T10:38:28Z</time>
      </trkpt>
      <trkpt lat="43.86962" lon="6.46491">
        <ele>1163</ele>
        <time>2018-05-25T10:38:29Z</time>
      </trkpt>
      <trkpt lat="43.86958" lon="6.46484">
        <ele>1163</ele>
        <time>2018-05-25T10:38:34Z</time>
      </trkpt>
      <trkpt lat="43.86943" lon="6.46465">
        <ele>1164</ele>
        <time>2018-05-25T10:38:50Z</time>
      </trkpt>
      <trkpt lat="43.86934" lon="6.46458">
        <ele>1164</ele>
        <time>2018-05-25T10:39:02Z</time>
      </trkpt>
      <trkpt lat="43.86932" lon="6.46448">
        <ele>1164</ele>
        <time>2018-05-25T10:39:16Z</time>
      </trkpt>
      <trkpt lat="43.86933" lon="6.46444">
        <ele>1164</ele>
        <time>2018-05-25T10:39:31Z</time>
      </trkpt>
      <trkpt lat="43.86936" lon="6.46439">
        <ele>1164</ele>
        <time>2018-05-25T10:39:44Z</time>
      </trkpt>
      <trkpt lat="43.86936" lon="6.46435">
        <ele>1165</ele>
        <time>2018-05-25T10:40:12Z</time>
      </trkpt>
      <trkpt lat="43.86936" lon="6.46431">
        <ele>1165</ele>
        <time>2018-05-25T10:40:52Z</time>
      </trkpt>
      <trkpt lat="43.86936" lon="6.46433">
        <ele>1165</ele>
        <time>2018-05-25T10:41:41Z</time>
      </trkpt>
      <trkpt lat="43.86938" lon="6.46433">
        <ele>1165</ele>
        <time>2018-05-25T10:42:25Z</time>
      </trkpt>
      <trkpt lat="43.86935" lon="6.46433">
        <ele>1165</ele>
        <time>2018-05-25T10:43:14Z</time>
      </trkpt>
      <trkpt lat="43.86934" lon="6.46437">
        <ele>1164</ele>
        <time>2018-05-25T10:43:54Z</time>
      </trkpt>
      <trkpt lat="43.86934" lon="6.46438">
        <ele>1164</ele>
        <time>2018-05-25T10:44:38Z</time>
      </trkpt>
      <trkpt lat="43.86937" lon="6.46436">
        <ele>1165</ele>
        <time>2018-05-25T10:45:28Z</time>
      </trkpt>
      <trkpt lat="43.86937" lon="6.46433">
        <ele>1165</ele>
        <time>2018-05-25T10:46:14Z</time>
      </trkpt>
      <trkpt lat="43.86938" lon="6.46433">
        <ele>1165</ele>
        <time>2018-05-25T10:46:56Z</time>
      </trkpt>
      <trkpt lat="43.86938" lon="6.46432">
        <ele>1165</ele>
        <time>2018-05-25T10:47:43Z</time>
      </trkpt>
      <trkpt lat="43.86938" lon="6.46431">
        <ele>1165</ele>
        <time>2018-05-25T10:48:23Z</time>
      </trkpt>
      <trkpt lat="43.86938" lon="6.46433">
        <ele>1165</ele>
        <time>2018-05-25T10:49:08Z</time>
      </trkpt>
      <trkpt lat="43.86936" lon="6.46435">
        <ele>1165</ele>
        <time>2018-05-25T10:50:02Z</time>
      </trkpt>
      <trkpt lat="43.86937" lon="6.46438">
        <ele>1165</ele>
        <time>2018-05-25T10:50:46Z</time>
      </trkpt>
      <trkpt lat="43.86937" lon="6.46435">
        <ele>1165</ele>
        <time>2018-05-25T10:51:25Z</time>
      </trkpt>
      <trkpt lat="43.86934" lon="6.46434">
        <ele>1164</ele>
        <time>2018-05-25T10:52:14Z</time>
      </trkpt>
      <trkpt lat="43.86937" lon="6.46433">
        <ele>1165</ele>
        <time>2018-05-25T10:53:01Z</time>
      </trkpt>
      <trkpt lat="43.86937" lon="6.46435">
        <ele>1165</ele>
        <time>2018-05-25T10:53:46Z</time>
      </trkpt>
      <trkpt lat="43.86936" lon="6.46434">
        <ele>1165</ele>
        <time>2018-05-25T10:54:27Z</time>
      </trkpt>
      <trkpt lat="43.86935" lon="6.46433">
        <ele>1165</ele>
        <time>2018-05-25T10:55:03Z</time>
      </trkpt>
      <trkpt lat="43.86938" lon="6.46435">
        <ele>1165</ele>
        <time>2018-05-25T10:55:33Z</time>
      </trkpt>
      <trkpt lat="43.86938" lon="6.46435">
        <ele>1165</ele>
        <time>2018-05-25T10:56:23Z</time>
      </trkpt>
      <trkpt lat="43.86935" lon="6.46434">
        <ele>1165</ele>
        <time>2018-05-25T10:56:59Z</time>
      </trkpt>
      <trkpt lat="43.86936" lon="6.46434">
        <ele>1165</ele>
        <time>2018-05-25T10:57:49Z</time>
      </trkpt>
      <trkpt lat="43.86937" lon="6.46432">
        <ele>1165</ele>
        <time>2018-05-25T10:58:29Z</time>
      </trkpt>
      <trkpt lat="43.86937" lon="6.46436">
        <ele>1165</ele>
        <time>2018-05-25T10:59:01Z</time>
      </trkpt>
      <trkpt lat="43.86937" lon="6.46435">
        <ele>1165</ele>
        <time>2018-05-25T10:59:42Z</time>
      </trkpt>
      <trkpt lat="43.86936" lon="6.46438">
        <ele>1164</ele>
        <time>2018-05-25T11:00:28Z</time>
      </trkpt>
      <trkpt lat="43.86935" lon="6.46435">
        <ele>1164</ele>
        <time>2018-05-25T11:01:18Z</time>
      </trkpt>
      <trkpt lat="43.86935" lon="6.46438">
        <ele>1164</ele>
        <time>2018-05-25T11:02:09Z</time>
      </trkpt>
      <trkpt lat="43.86941" lon="6.46434">
        <ele>1165</ele>
        <time>2018-05-25T11:02:50Z</time>
      </trkpt>
      <trkpt lat="43.86938" lon="6.46435">
        <ele>1165</ele>
        <time>2018-05-25T11:03:34Z</time>
      </trkpt>
      <trkpt lat="43.86936" lon="6.46434">
        <ele>1165</ele>
        <time>2018-05-25T11:04:20Z</time>
      </trkpt>
      <trkpt lat="43.86936" lon="6.46435">
        <ele>1165</ele>
        <time>2018-05-25T11:04:54Z</time>
      </trkpt>
      <trkpt lat="43.86934" lon="6.46433">
        <ele>1164</ele>
        <time>2018-05-25T11:05:29Z</time>
      </trkpt>
      <trkpt lat="43.86933" lon="6.46435">
        <ele>1164</ele>
        <time>2018-05-25T11:06:10Z</time>
      </trkpt>
      <trkpt lat="43.86931" lon="6.46436">
        <ele>1164</ele>
        <time>2018-05-25T11:06:53Z</time>
      </trkpt>
      <trkpt lat="43.86931" lon="6.46436">
        <ele>1164</ele>
        <time>2018-05-25T11:07:35Z</time>
      </trkpt>
      <trkpt lat="43.86931" lon="6.46435">
        <ele>1164</ele>
        <time>2018-05-25T11:08:14Z</time>
      </trkpt>
      <trkpt lat="43.86936" lon="6.46436">
        <ele>1165</ele>
        <time>2018-05-25T11:08:54Z</time>
      </trkpt>
      <trkpt lat="43.86937" lon="6.46437">
        <ele>1165</ele>
        <time>2018-05-25T11:09:33Z</time>
      </trkpt>
      <trkpt lat="43.86935" lon="6.46435">
        <ele>1164</ele>
        <time>2018-05-25T11:10:17Z</time>
      </trkpt>
      <trkpt lat="43.86932" lon="6.46433">
        <ele>1164</ele>
        <time>2018-05-25T11:10:53Z</time>
      </trkpt>
      <trkpt lat="43.86937" lon="6.46435">
        <ele>1165</ele>
        <time>2018-05-25T11:11:32Z</time>
      </trkpt>
      <trkpt lat="43.86937" lon="6.46433">
        <ele>1165</ele>
        <time>2018-05-25T11:12:12Z</time>
      </trkpt>
      <trkpt lat="43.86941" lon="6.46432">
        <ele>1165</ele>
        <time>2018-05-25T11:12:49Z</time>
      </trkpt>
      <trkpt lat="43.86941" lon="6.46433">
        <ele>1165</ele>
        <time>2018-05-25T11:13:28Z</time>
      </trkpt>
      <trkpt lat="43.86942" lon="6.46434">
        <ele>1165</ele>
        <time>2018-05-25T11:13:59Z</time>
      </trkpt>
      <trkpt lat="43.86939" lon="6.46437">
        <ele>1165</ele>
        <time>2018-05-25T11:14:45Z</time>
      </trkpt>
      <trkpt lat="43.86933" lon="6.46432">
        <ele>1164</ele>
        <time>2018-05-25T11:15:26Z</time>
      </trkpt>
      <trkpt lat="43.86935" lon="6.4643">
        <ele>1165</ele>
        <time>2018-05-25T11:16:02Z</time>
      </trkpt>
      <trkpt lat="43.86937" lon="6.46433">
        <ele>1165</ele>
        <time>2018-05-25T11:16:42Z</time>
      </trkpt>
      <trkpt lat="43.86935" lon="6.46432">
        <ele>1165</ele>
        <time>2018-05-25T11:17:18Z</time>
      </trkpt>
      <trkpt lat="43.86936" lon="6.46434">
        <ele>1165</ele>
        <time>2018-05-25T11:18:04Z</time>
      </trkpt>
      <trkpt lat="43.86935" lon="6.46433">
        <ele>1165</ele>
        <time>2018-05-25T11:18:40Z</time>
      </trkpt>
      <trkpt lat="43.8694" lon="6.46434">
        <ele>1165</ele>
        <time>2018-05-25T11:19:24Z</time>
      </trkpt>
      <trkpt lat="43.8694" lon="6.46434">
        <ele>1165</ele>
        <time>2018-05-25T11:20:13Z</time>
      </trkpt>
      <trkpt lat="43.86939" lon="6.46431">
        <ele>1165</ele>
        <time>2018-05-25T11:21:01Z</time>
      </trkpt>
      <trkpt lat="43.8694" lon="6.46432">
        <ele>1165</ele>
        <time>2018-05-25T11:21:45Z</time>
      </trkpt>
      <trkpt lat="43.86934" lon="6.46431">
        <ele>1165</ele>
        <time>2018-05-25T11:22:31Z</time>
      </trkpt>
      <trkpt lat="43.86937" lon="6.46432">
        <ele>1165</ele>
        <time>2018-05-25T11:22:59Z</time>
      </trkpt>
      <trkpt lat="43.86937" lon="6.46434">
        <ele>1165</ele>
        <time>2018-05-25T11:23:31Z</time>
      </trkpt>
      <trkpt lat="43.86936" lon="6.46432">
        <ele>1165</ele>
        <time>2018-05-25T11:23:59Z</time>
      </trkpt>
      <trkpt lat="43.86937" lon="6.46434">
        <ele>1165</ele>
        <time>2018-05-25T11:24:35Z</time>
      </trkpt>
      <trkpt lat="43.86937" lon="6.46433">
        <ele>1165</ele>
        <time>2018-05-25T11:25:05Z</time>
      </trkpt>
      <trkpt lat="43.86936" lon="6.46432">
        <ele>1165</ele>
        <time>2018-05-25T11:25:38Z</time>
      </trkpt>
      <trkpt lat="43.86936" lon="6.46433">
        <ele>1165</ele>
        <time>2018-05-25T11:26:07Z</time>
      </trkpt>
      <trkpt lat="43.86934" lon="6.46429">
        <ele>1165</ele>
        <time>2018-05-25T11:26:39Z</time>
      </trkpt>
      <trkpt lat="43.86938" lon="6.46433">
        <ele>1165</ele>
        <time>2018-05-25T11:27:22Z</time>
      </trkpt>
      <trkpt lat="43.86939" lon="6.46435">
        <ele>1165</ele>
        <time>2018-05-25T11:27:55Z</time>
      </trkpt>
      <trkpt lat="43.86938" lon="6.46439">
        <ele>1165</ele>
        <time>2018-05-25T11:28:09Z</time>
      </trkpt>
      <trkpt lat="43.86937" lon="6.46439">
        <ele>1165</ele>
        <time>2018-05-25T11:28:37Z</time>
      </trkpt>
      <trkpt lat="43.86939" lon="6.46441">
        <ele>1165</ele>
        <time>2018-05-25T11:29:00Z</time>
      </trkpt>
      <trkpt lat="43.8694" lon="6.46442">
        <ele>1165</ele>
        <time>2018-05-25T11:29:21Z</time>
      </trkpt>
      <trkpt lat="43.86963" lon="6.46443">
        <ele>1166</ele>
        <time>2018-05-25T11:29:34Z</time>
      </trkpt>
      <trkpt lat="43.86995" lon="6.46441">
        <ele>1170</ele>
        <time>2018-05-25T11:29:51Z</time>
      </trkpt>
      <trkpt lat="43.86997" lon="6.4644">
        <ele>1170</ele>
        <time>2018-05-25T11:29:52Z</time>
      </trkpt>
      <trkpt lat="43.86998" lon="6.46438">
        <ele>1171</ele>
        <time>2018-05-25T11:29:53Z</time>
      </trkpt>
      <trkpt lat="43.86998" lon="6.46436">
        <ele>1171</ele>
        <time>2018-05-25T11:29:54Z</time>
      </trkpt>
      <trkpt lat="43.86999" lon="6.46421">
        <ele>1171</ele>
        <time>2018-05-25T11:30:03Z</time>
      </trkpt>
      <trkpt lat="43.86999" lon="6.46419">
        <ele>1171</ele>
        <time>2018-05-25T11:30:04Z</time>
      </trkpt>
      <trkpt lat="43.86998" lon="6.46417">
        <ele>1171</ele>
        <time>2018-05-25T11:30:05Z</time>
      </trkpt>
      <trkpt lat="43.86998" lon="6.46415">
        <ele>1171</ele>
        <time>2018-05-25T11:30:06Z</time>
      </trkpt>
      <trkpt lat="43.86999" lon="6.46413">
        <ele>1171</ele>
        <time>2018-05-25T11:30:07Z</time>
      </trkpt>
      <trkpt lat="43.86999" lon="6.46412">
        <ele>1171</ele>
        <time>2018-05-25T11:30:08Z</time>
      </trkpt>
      <trkpt lat="43.86999" lon="6.4641">
        <ele>1171</ele>
        <time>2018-05-25T11:30:09Z</time>
      </trkpt>
      <trkpt lat="43.87" lon="6.46408">
        <ele>1171</ele>
        <time>2018-05-25T11:30:10Z</time>
      </trkpt>
      <trkpt lat="43.87015" lon="6.46387">
        <ele>1172</ele>
        <time>2018-05-25T11:30:26Z</time>
      </trkpt>
      <trkpt lat="43.87035" lon="6.46379">
        <ele>1174</ele>
        <time>2018-05-25T11:30:44Z</time>
      </trkpt>
      <trkpt lat="43.87039" lon="6.46377">
        <ele>1175</ele>
        <time>2018-05-25T11:31:00Z</time>
      </trkpt>
      <trkpt lat="43.87039" lon="6.46375">
        <ele>1174</ele>
        <time>2018-05-25T11:31:31Z</time>
      </trkpt>
      <trkpt lat="43.87039" lon="6.46375">
        <ele>1174</ele>
        <time>2018-05-25T11:32:04Z</time>
      </trkpt>
      <trkpt lat="43.8704" lon="6.46377">
        <ele>1175</ele>
        <time>2018-05-25T11:32:35Z</time>
      </trkpt>
      <trkpt lat="43.87039" lon="6.46373">
        <ele>1174</ele>
        <time>2018-05-25T11:32:55Z</time>
      </trkpt>
      <trkpt lat="43.87042" lon="6.46373">
        <ele>1175</ele>
        <time>2018-05-25T11:33:21Z</time>
      </trkpt>
      <trkpt lat="43.87043" lon="6.46376">
        <ele>1175</ele>
        <time>2018-05-25T11:33:39Z</time>
      </trkpt>
      <trkpt lat="43.87042" lon="6.46375">
        <ele>1175</ele>
        <time>2018-05-25T11:34:03Z</time>
      </trkpt>
      <trkpt lat="43.8705" lon="6.4637">
        <ele>1175</ele>
        <time>2018-05-25T11:34:31Z</time>
      </trkpt>
      <trkpt lat="43.87073" lon="6.46365">
        <ele>1176</ele>
        <time>2018-05-25T11:34:41Z</time>
      </trkpt>
      <trkpt lat="43.87075" lon="6.46364">
        <ele>1176</ele>
        <time>2018-05-25T11:34:42Z</time>
      </trkpt>
      <trkpt lat="43.87104" lon="6.46364">
        <ele>1178</ele>
        <time>2018-05-25T11:34:54Z</time>
      </trkpt>
      <trkpt lat="43.87121" lon="6.46363">
        <ele>1178</ele>
        <time>2018-05-25T11:35:06Z</time>
      </trkpt>
      <trkpt lat="43.87129" lon="6.4636">
        <ele>1178</ele>
        <time>2018-05-25T11:35:31Z</time>
      </trkpt>
      <trkpt lat="43.87149" lon="6.46359">
        <ele>1178</ele>
        <time>2018-05-25T11:35:39Z</time>
      </trkpt>
      <trkpt lat="43.87159" lon="6.46361">
        <ele>1180</ele>
        <time>2018-05-25T11:35:42Z</time>
      </trkpt>
      <trkpt lat="43.87161" lon="6.4636">
        <ele>1180</ele>
        <time>2018-05-25T11:35:43Z</time>
      </trkpt>
      <trkpt lat="43.87164" lon="6.46358">
        <ele>1180</ele>
        <time>2018-05-25T11:35:44Z</time>
      </trkpt>
      <trkpt lat="43.87166" lon="6.46357">
        <ele>1180</ele>
        <time>2018-05-25T11:35:45Z</time>
      </trkpt>
      <trkpt lat="43.87168" lon="6.46354">
        <ele>1180</ele>
        <time>2018-05-25T11:35:46Z</time>
      </trkpt>
      <trkpt lat="43.87169" lon="6.46352">
        <ele>1179</ele>
        <time>2018-05-25T11:35:47Z</time>
      </trkpt>
      <trkpt lat="43.87171" lon="6.46351">
        <ele>1179</ele>
        <time>2018-05-25T11:35:48Z</time>
      </trkpt>
      <trkpt lat="43.87194" lon="6.46334">
        <ele>1181</ele>
        <time>2018-05-25T11:36:00Z</time>
      </trkpt>
      <trkpt lat="43.87214" lon="6.4631">
        <ele>1182</ele>
        <time>2018-05-25T11:36:15Z</time>
      </trkpt>
      <trkpt lat="43.87219" lon="6.46294">
        <ele>1180</ele>
        <time>2018-05-25T11:36:24Z</time>
      </trkpt>
      <trkpt lat="43.87235" lon="6.46292">
        <ele>1182</ele>
        <time>2018-05-25T11:36:33Z</time>
      </trkpt>
      <trkpt lat="43.87238" lon="6.46291">
        <ele>1182</ele>
        <time>2018-05-25T11:36:44Z</time>
      </trkpt>
      <trkpt lat="43.87238" lon="6.46291">
        <ele>1182</ele>
        <time>2018-05-25T11:36:55Z</time>
      </trkpt>
      <trkpt lat="43.87242" lon="6.4629">
        <ele>1182</ele>
        <time>2018-05-25T11:37:04Z</time>
      </trkpt>
      <trkpt lat="43.87243" lon="6.46289">
        <ele>1182</ele>
        <time>2018-05-25T11:37:05Z</time>
      </trkpt>
      <trkpt lat="43.87244" lon="6.46289">
        <ele>1181</ele>
        <time>2018-05-25T11:37:06Z</time>
      </trkpt>
      <trkpt lat="43.87248" lon="6.46289">
        <ele>1181</ele>
        <time>2018-05-25T11:37:17Z</time>
      </trkpt>
      <trkpt lat="43.8725" lon="6.46289">
        <ele>1181</ele>
        <time>2018-05-25T11:37:21Z</time>
      </trkpt>
      <trkpt lat="43.87252" lon="6.46289">
        <ele>1181</ele>
        <time>2018-05-25T11:37:22Z</time>
      </trkpt>
      <trkpt lat="43.87253" lon="6.46289">
        <ele>1181</ele>
        <time>2018-05-25T11:37:23Z</time>
      </trkpt>
      <trkpt lat="43.87255" lon="6.46289">
        <ele>1181</ele>
        <time>2018-05-25T11:37:24Z</time>
      </trkpt>
      <trkpt lat="43.87257" lon="6.46289">
        <ele>1180</ele>
        <time>2018-05-25T11:37:25Z</time>
      </trkpt>
      <trkpt lat="43.87296" lon="6.46302">
        <ele>1180</ele>
        <time>2018-05-25T11:37:38Z</time>
      </trkpt>
      <trkpt lat="43.87313" lon="6.4631">
        <ele>1181</ele>
        <time>2018-05-25T11:37:44Z</time>
      </trkpt>
      <trkpt lat="43.87315" lon="6.46309">
        <ele>1181</ele>
        <time>2018-05-25T11:37:45Z</time>
      </trkpt>
      <trkpt lat="43.87318" lon="6.46307">
        <ele>1181</ele>
        <time>2018-05-25T11:37:46Z</time>
      </trkpt>
      <trkpt lat="43.87345" lon="6.46293">
        <ele>1175</ele>
        <time>2018-05-25T11:37:54Z</time>
      </trkpt>
      <trkpt lat="43.87348" lon="6.46293">
        <ele>1175</ele>
        <time>2018-05-25T11:37:55Z</time>
      </trkpt>
      <trkpt lat="43.87365" lon="6.463">
        <ele>1174</ele>
        <time>2018-05-25T11:38:04Z</time>
      </trkpt>
      <trkpt lat="43.87372" lon="6.46305">
        <ele>1174</ele>
        <time>2018-05-25T11:38:09Z</time>
      </trkpt>
      <trkpt lat="43.87373" lon="6.46307">
        <ele>1174</ele>
        <time>2018-05-25T11:38:10Z</time>
      </trkpt>
      <trkpt lat="43.87375" lon="6.46308">
        <ele>1175</ele>
        <time>2018-05-25T11:38:11Z</time>
      </trkpt>
      <trkpt lat="43.87377" lon="6.4631">
        <ele>1175</ele>
        <time>2018-05-25T11:38:12Z</time>
      </trkpt>
      <trkpt lat="43.87379" lon="6.4631">
        <ele>1175</ele>
        <time>2018-05-25T11:38:13Z</time>
      </trkpt>
      <trkpt lat="43.87381" lon="6.4631">
        <ele>1175</ele>
        <time>2018-05-25T11:38:14Z</time>
      </trkpt>
      <trkpt lat="43.87383" lon="6.46311">
        <ele>1175</ele>
        <time>2018-05-25T11:38:15Z</time>
      </trkpt>
      <trkpt lat="43.87385" lon="6.46312">
        <ele>1175</ele>
        <time>2018-05-25T11:38:16Z</time>
      </trkpt>
      <trkpt lat="43.87388" lon="6.46313">
        <ele>1176</ele>
        <time>2018-05-25T11:38:17Z</time>
      </trkpt>
      <trkpt lat="43.87395" lon="6.46317">
        <ele>1177</ele>
        <time>2018-05-25T11:38:27Z</time>
      </trkpt>
      <trkpt lat="43.87399" lon="6.46321">
        <ele>1178</ele>
        <time>2018-05-25T11:38:46Z</time>
      </trkpt>
      <trkpt lat="43.87401" lon="6.46319">
        <ele>1178</ele>
        <time>2018-05-25T11:39:06Z</time>
      </trkpt>
      <trkpt lat="43.87404" lon="6.4632">
        <ele>1178</ele>
        <time>2018-05-25T11:39:33Z</time>
      </trkpt>
      <trkpt lat="43.87404" lon="6.46321">
        <ele>1178</ele>
        <time>2018-05-25T11:39:55Z</time>
      </trkpt>
      <trkpt lat="43.87403" lon="6.46322">
        <ele>1178</ele>
        <time>2018-05-25T11:40:13Z</time>
      </trkpt>
      <trkpt lat="43.87406" lon="6.46323">
        <ele>1179</ele>
        <time>2018-05-25T11:40:32Z</time>
      </trkpt>
      <trkpt lat="43.87417" lon="6.46325">
        <ele>1179</ele>
        <time>2018-05-25T11:40:48Z</time>
      </trkpt>
      <trkpt lat="43.87426" lon="6.46327">
        <ele>1180</ele>
        <time>2018-05-25T11:41:03Z</time>
      </trkpt>
      <trkpt lat="43.87436" lon="6.46327">
        <ele>1182</ele>
        <time>2018-05-25T11:41:19Z</time>
      </trkpt>
      <trkpt lat="43.87444" lon="6.46328">
        <ele>1183</ele>
        <time>2018-05-25T11:41:35Z</time>
      </trkpt>
      <trkpt lat="43.8745" lon="6.46328">
        <ele>1184</ele>
        <time>2018-05-25T11:41:50Z</time>
      </trkpt>
      <trkpt lat="43.87457" lon="6.46324">
        <ele>1185</ele>
        <time>2018-05-25T11:42:06Z</time>
      </trkpt>
      <trkpt lat="43.87465" lon="6.46319">
        <ele>1186</ele>
        <time>2018-05-25T11:42:20Z</time>
      </trkpt>
      <trkpt lat="43.87471" lon="6.46312">
        <ele>1187</ele>
        <time>2018-05-25T11:42:35Z</time>
      </trkpt>
      <trkpt lat="43.8748" lon="6.46308">
        <ele>1190</ele>
        <time>2018-05-25T11:42:50Z</time>
      </trkpt>
      <trkpt lat="43.87488" lon="6.46305">
        <ele>1193</ele>
        <time>2018-05-25T11:43:01Z</time>
      </trkpt>
      <trkpt lat="43.87498" lon="6.46288">
        <ele>1195</ele>
        <time>2018-05-25T11:43:18Z</time>
      </trkpt>
      <trkpt lat="43.87507" lon="6.46285">
        <ele>1197</ele>
        <time>2018-05-25T11:43:32Z</time>
      </trkpt>
      <trkpt lat="43.87514" lon="6.46284">
        <ele>1199</ele>
        <time>2018-05-25T11:43:47Z</time>
      </trkpt>
      <trkpt lat="43.8752" lon="6.46278">
        <ele>1200</ele>
        <time>2018-05-25T11:44:01Z</time>
      </trkpt>
      <trkpt lat="43.87528" lon="6.46281">
        <ele>1202</ele>
        <time>2018-05-25T11:44:14Z</time>
      </trkpt>
      <trkpt lat="43.87541" lon="6.46278">
        <ele>1205</ele>
        <time>2018-05-25T11:44:32Z</time>
      </trkpt>
      <trkpt lat="43.87552" lon="6.46275">
        <ele>1208</ele>
        <time>2018-05-25T11:44:47Z</time>
      </trkpt>
      <trkpt lat="43.87559" lon="6.46273">
        <ele>1209</ele>
        <time>2018-05-25T11:45:03Z</time>
      </trkpt>
      <trkpt lat="43.87568" lon="6.46271">
        <ele>1211</ele>
        <time>2018-05-25T11:45:17Z</time>
      </trkpt>
      <trkpt lat="43.87574" lon="6.46264">
        <ele>1212</ele>
        <time>2018-05-25T11:45:35Z</time>
      </trkpt>
      <trkpt lat="43.87577" lon="6.46258">
        <ele>1211</ele>
        <time>2018-05-25T11:45:51Z</time>
      </trkpt>
      <trkpt lat="43.87575" lon="6.46258">
        <ele>1211</ele>
        <time>2018-05-25T11:46:22Z</time>
      </trkpt>
      <trkpt lat="43.8758" lon="6.46255">
        <ele>1212</ele>
        <time>2018-05-25T11:46:46Z</time>
      </trkpt>
      <trkpt lat="43.87585" lon="6.46245">
        <ele>1214</ele>
        <time>2018-05-25T11:47:03Z</time>
      </trkpt>
      <trkpt lat="43.87588" lon="6.4624">
        <ele>1215</ele>
        <time>2018-05-25T11:47:16Z</time>
      </trkpt>
      <trkpt lat="43.87582" lon="6.46234">
        <ele>1214</ele>
        <time>2018-05-25T11:47:27Z</time>
      </trkpt>
      <trkpt lat="43.87571" lon="6.46227">
        <ele>1211</ele>
        <time>2018-05-25T11:47:43Z</time>
      </trkpt>
      <trkpt lat="43.8757" lon="6.46226">
        <ele>1211</ele>
        <time>2018-05-25T11:47:47Z</time>
      </trkpt>
      <trkpt lat="43.87568" lon="6.46225">
        <ele>1210</ele>
        <time>2018-05-25T11:47:48Z</time>
      </trkpt>
      <trkpt lat="43.87567" lon="6.46225">
        <ele>1210</ele>
        <time>2018-05-25T11:47:49Z</time>
      </trkpt>
      <trkpt lat="43.87566" lon="6.46224">
        <ele>1210</ele>
        <time>2018-05-25T11:47:50Z</time>
      </trkpt>
      <trkpt lat="43.87565" lon="6.46223">
        <ele>1210</ele>
        <time>2018-05-25T11:47:51Z</time>
      </trkpt>
      <trkpt lat="43.87563" lon="6.46223">
        <ele>1209</ele>
        <time>2018-05-25T11:47:52Z</time>
      </trkpt>
      <trkpt lat="43.87557" lon="6.46211">
        <ele>1209</ele>
        <time>2018-05-25T11:48:06Z</time>
      </trkpt>
      <trkpt lat="43.87556" lon="6.46199">
        <ele>1210</ele>
        <time>2018-05-25T11:48:21Z</time>
      </trkpt>
      <trkpt lat="43.87555" lon="6.46197">
        <ele>1210</ele>
        <time>2018-05-25T11:48:33Z</time>
      </trkpt>
      <trkpt lat="43.87551" lon="6.46188">
        <ele>1210</ele>
        <time>2018-05-25T11:48:37Z</time>
      </trkpt>
      <trkpt lat="43.87551" lon="6.46186">
        <ele>1211</ele>
        <time>2018-05-25T11:48:38Z</time>
      </trkpt>
      <trkpt lat="43.87551" lon="6.46179">
        <ele>1211</ele>
        <time>2018-05-25T11:48:42Z</time>
      </trkpt>
      <trkpt lat="43.8755" lon="6.46177">
        <ele>1211</ele>
        <time>2018-05-25T11:48:43Z</time>
      </trkpt>
      <trkpt lat="43.87549" lon="6.46174">
        <ele>1211</ele>
        <time>2018-05-25T11:48:44Z</time>
      </trkpt>
      <trkpt lat="43.87549" lon="6.4617">
        <ele>1211</ele>
        <time>2018-05-25T11:48:45Z</time>
      </trkpt>
      <trkpt lat="43.87548" lon="6.46167">
        <ele>1212</ele>
        <time>2018-05-25T11:48:46Z</time>
      </trkpt>
      <trkpt lat="43.87547" lon="6.46164">
        <ele>1212</ele>
        <time>2018-05-25T11:48:47Z</time>
      </trkpt>
      <trkpt lat="43.87545" lon="6.4616">
        <ele>1212</ele>
        <time>2018-05-25T11:48:48Z</time>
      </trkpt>
      <trkpt lat="43.87544" lon="6.46157">
        <ele>1212</ele>
        <time>2018-05-25T11:48:49Z</time>
      </trkpt>
      <trkpt lat="43.87544" lon="6.46141">
        <ele>1213</ele>
        <time>2018-05-25T11:48:58Z</time>
      </trkpt>
      <trkpt lat="43.87545" lon="6.46136">
        <ele>1213</ele>
        <time>2018-05-25T11:49:02Z</time>
      </trkpt>
      <trkpt lat="43.87548" lon="6.46117">
        <ele>1215</ele>
        <time>2018-05-25T11:49:16Z</time>
      </trkpt>
      <trkpt lat="43.87547" lon="6.4611">
        <ele>1215</ele>
        <time>2018-05-25T11:49:30Z</time>
      </trkpt>
      <trkpt lat="43.87546" lon="6.461">
        <ele>1214</ele>
        <time>2018-05-25T11:49:44Z</time>
      </trkpt>
      <trkpt lat="43.87544" lon="6.46096">
        <ele>1214</ele>
        <time>2018-05-25T11:49:59Z</time>
      </trkpt>
      <trkpt lat="43.87542" lon="6.46094">
        <ele>1213</ele>
        <time>2018-05-25T11:50:41Z</time>
      </trkpt>
      <trkpt lat="43.87544" lon="6.46087">
        <ele>1214</ele>
        <time>2018-05-25T11:51:09Z</time>
      </trkpt>
      <trkpt lat="43.87543" lon="6.46082">
        <ele>1214</ele>
        <time>2018-05-25T11:51:17Z</time>
      </trkpt>
      <trkpt lat="43.87543" lon="6.46081">
        <ele>1213</ele>
        <time>2018-05-25T11:51:18Z</time>
      </trkpt>
      <trkpt lat="43.87542" lon="6.46078">
        <ele>1213</ele>
        <time>2018-05-25T11:51:19Z</time>
      </trkpt>
      <trkpt lat="43.87541" lon="6.46076">
        <ele>1213</ele>
        <time>2018-05-25T11:51:20Z</time>
      </trkpt>
      <trkpt lat="43.8754" lon="6.46073">
        <ele>1213</ele>
        <time>2018-05-25T11:51:21Z</time>
      </trkpt>
      <trkpt lat="43.87539" lon="6.46069">
        <ele>1213</ele>
        <time>2018-05-25T11:51:22Z</time>
      </trkpt>
      <trkpt lat="43.87539" lon="6.46065">
        <ele>1213</ele>
        <time>2018-05-25T11:51:23Z</time>
      </trkpt>
      <trkpt lat="43.8754" lon="6.46062">
        <ele>1213</ele>
        <time>2018-05-25T11:51:24Z</time>
      </trkpt>
      <trkpt lat="43.8754" lon="6.4606">
        <ele>1213</ele>
        <time>2018-05-25T11:51:25Z</time>
      </trkpt>
      <trkpt lat="43.8754" lon="6.46058">
        <ele>1212</ele>
        <time>2018-05-25T11:51:26Z</time>
      </trkpt>
      <trkpt lat="43.8754" lon="6.46055">
        <ele>1212</ele>
        <time>2018-05-25T11:51:27Z</time>
      </trkpt>
      <trkpt lat="43.8754" lon="6.46052">
        <ele>1212</ele>
        <time>2018-05-25T11:51:28Z</time>
      </trkpt>
      <trkpt lat="43.87539" lon="6.4604">
        <ele>1211</ele>
        <time>2018-05-25T11:51:34Z</time>
      </trkpt>
      <trkpt lat="43.87539" lon="6.46038">
        <ele>1210</ele>
        <time>2018-05-25T11:51:49Z</time>
      </trkpt>
      <trkpt lat="43.87539" lon="6.46039">
        <ele>1210</ele>
        <time>2018-05-25T11:52:13Z</time>
      </trkpt>
      <trkpt lat="43.87541" lon="6.46038">
        <ele>1211</ele>
        <time>2018-05-25T11:52:43Z</time>
      </trkpt>
      <trkpt lat="43.87539" lon="6.46039">
        <ele>1210</ele>
        <time>2018-05-25T11:53:25Z</time>
      </trkpt>
      <trkpt lat="43.87539" lon="6.46039">
        <ele>1210</ele>
        <time>2018-05-25T11:54:07Z</time>
      </trkpt>
      <trkpt lat="43.87538" lon="6.46038">
        <ele>1210</ele>
        <time>2018-05-25T11:54:37Z</time>
      </trkpt>
      <trkpt lat="43.87539" lon="6.46038">
        <ele>1210</ele>
        <time>2018-05-25T11:55:12Z</time>
      </trkpt>
      <trkpt lat="43.8754" lon="6.46036">
        <ele>1210</ele>
        <time>2018-05-25T11:55:44Z</time>
      </trkpt>
      <trkpt lat="43.87539" lon="6.46038">
        <ele>1210</ele>
        <time>2018-05-25T11:56:14Z</time>
      </trkpt>
      <trkpt lat="43.8754" lon="6.46038">
        <ele>1210</ele>
        <time>2018-05-25T11:56:36Z</time>
      </trkpt>
      <trkpt lat="43.87541" lon="6.46037">
        <ele>1211</ele>
        <time>2018-05-25T11:56:58Z</time>
      </trkpt>
      <trkpt lat="43.87539" lon="6.46037">
        <ele>1210</ele>
        <time>2018-05-25T11:56:59Z</time>
      </trkpt>
      <trkpt lat="43.87538" lon="6.46036">
        <ele>1210</ele>
        <time>2018-05-25T11:57:00Z</time>
      </trkpt>
      <trkpt lat="43.87537" lon="6.46035">
        <ele>1210</ele>
        <time>2018-05-25T11:57:01Z</time>
      </trkpt>
      <trkpt lat="43.87535" lon="6.46033">
        <ele>1209</ele>
        <time>2018-05-25T11:57:02Z</time>
      </trkpt>
      <trkpt lat="43.87534" lon="6.46031">
        <ele>1209</ele>
        <time>2018-05-25T11:57:03Z</time>
      </trkpt>
      <trkpt lat="43.87534" lon="6.46029">
        <ele>1209</ele>
        <time>2018-05-25T11:57:04Z</time>
      </trkpt>
      <trkpt lat="43.87532" lon="6.46028">
        <ele>1208</ele>
        <time>2018-05-25T11:57:05Z</time>
      </trkpt>
      <trkpt lat="43.8753" lon="6.46026">
        <ele>1208</ele>
        <time>2018-05-25T11:57:06Z</time>
      </trkpt>
      <trkpt lat="43.87528" lon="6.46025">
        <ele>1208</ele>
        <time>2018-05-25T11:57:07Z</time>
      </trkpt>
      <trkpt lat="43.8751" lon="6.46002">
        <ele>1204</ele>
        <time>2018-05-25T11:57:21Z</time>
      </trkpt>
      <trkpt lat="43.87481" lon="6.45982">
        <ele>1200</ele>
        <time>2018-05-25T11:57:33Z</time>
      </trkpt>
      <trkpt lat="43.87474" lon="6.45967">
        <ele>1197</ele>
        <time>2018-05-25T11:57:42Z</time>
      </trkpt>
      <trkpt lat="43.87474" lon="6.45965">
        <ele>1197</ele>
        <time>2018-05-25T11:57:58Z</time>
      </trkpt>
      <trkpt lat="43.87475" lon="6.45965">
        <ele>1197</ele>
        <time>2018-05-25T11:58:18Z</time>
      </trkpt>
      <trkpt lat="43.87475" lon="6.45962">
        <ele>1197</ele>
        <time>2018-05-25T11:58:46Z</time>
      </trkpt>
      <trkpt lat="43.87475" lon="6.45966">
        <ele>1197</ele>
        <time>2018-05-25T11:59:05Z</time>
      </trkpt>
      <trkpt lat="43.87476" lon="6.45964">
        <ele>1197</ele>
        <time>2018-05-25T11:59:11Z</time>
      </trkpt>
      <trkpt lat="43.87485" lon="6.45964">
        <ele>1198</ele>
        <time>2018-05-25T11:59:21Z</time>
      </trkpt>
      <trkpt lat="43.87493" lon="6.45966">
        <ele>1198</ele>
        <time>2018-05-25T11:59:39Z</time>
      </trkpt>
      <trkpt lat="43.87495" lon="6.45966">
        <ele>1198</ele>
        <time>2018-05-25T11:59:40Z</time>
      </trkpt>
      <trkpt lat="43.87497" lon="6.45966">
        <ele>1198</ele>
        <time>2018-05-25T11:59:41Z</time>
      </trkpt>
      <trkpt lat="43.87532" lon="6.45982">
        <ele>1202</ele>
        <time>2018-05-25T11:59:54Z</time>
      </trkpt>
      <trkpt lat="43.8756" lon="6.4599">
        <ele>1206</ele>
        <time>2018-05-25T12:00:04Z</time>
      </trkpt>
      <trkpt lat="43.87579" lon="6.45992">
        <ele>1206</ele>
        <time>2018-05-25T12:00:18Z</time>
      </trkpt>
      <trkpt lat="43.8759" lon="6.45993">
        <ele>1206</ele>
        <time>2018-05-25T12:00:29Z</time>
      </trkpt>
      <trkpt lat="43.87602" lon="6.45992">
        <ele>1206</ele>
        <time>2018-05-25T12:00:41Z</time>
      </trkpt>
      <trkpt lat="43.87618" lon="6.45989">
        <ele>1205</ele>
        <time>2018-05-25T12:00:57Z</time>
      </trkpt>
      <trkpt lat="43.87625" lon="6.45991">
        <ele>1205</ele>
        <time>2018-05-25T12:01:05Z</time>
      </trkpt>
      <trkpt lat="43.87634" lon="6.4599">
        <ele>1205</ele>
        <time>2018-05-25T12:01:18Z</time>
      </trkpt>
      <trkpt lat="43.87634" lon="6.45988">
        <ele>1205</ele>
        <time>2018-05-25T12:01:41Z</time>
      </trkpt>
      <trkpt lat="43.87641" lon="6.45989">
        <ele>1205</ele>
        <time>2018-05-25T12:02:01Z</time>
      </trkpt>
      <trkpt lat="43.87648" lon="6.45994">
        <ele>1205</ele>
        <time>2018-05-25T12:02:18Z</time>
      </trkpt>
      <trkpt lat="43.87671" lon="6.45999">
        <ele>1209</ele>
        <time>2018-05-25T12:02:27Z</time>
      </trkpt>
      <trkpt lat="43.87695" lon="6.46006">
        <ele>1215</ele>
        <time>2018-05-25T12:02:38Z</time>
      </trkpt>
      <trkpt lat="43.877" lon="6.46006">
        <ele>1217</ele>
        <time>2018-05-25T12:02:53Z</time>
      </trkpt>
      <trkpt lat="43.87702" lon="6.46004">
        <ele>1218</ele>
        <time>2018-05-25T12:03:11Z</time>
      </trkpt>
      <trkpt lat="43.87701" lon="6.46001">
        <ele>1218</ele>
        <time>2018-05-25T12:03:37Z</time>
      </trkpt>
      <trkpt lat="43.87703" lon="6.46">
        <ele>1218</ele>
        <time>2018-05-25T12:03:58Z</time>
      </trkpt>
      <trkpt lat="43.87696" lon="6.46009">
        <ele>1215</ele>
        <time>2018-05-25T12:04:32Z</time>
      </trkpt>
      <trkpt lat="43.877" lon="6.46004">
        <ele>1217</ele>
        <time>2018-05-25T12:05:08Z</time>
      </trkpt>
      <trkpt lat="43.87702" lon="6.46009">
        <ele>1217</ele>
        <time>2018-05-25T12:05:36Z</time>
      </trkpt>
      <trkpt lat="43.87701" lon="6.46009">
        <ele>1217</ele>
        <time>2018-05-25T12:05:37Z</time>
      </trkpt>
      <trkpt lat="43.87694" lon="6.46006">
        <ele>1215</ele>
        <time>2018-05-25T12:05:50Z</time>
      </trkpt>
      <trkpt lat="43.87693" lon="6.46005">
        <ele>1215</ele>
        <time>2018-05-25T12:06:04Z</time>
      </trkpt>
      <trkpt lat="43.87696" lon="6.46006">
        <ele>1216</ele>
        <time>2018-05-25T12:06:25Z</time>
      </trkpt>
      <trkpt lat="43.87692" lon="6.46003">
        <ele>1215</ele>
        <time>2018-05-25T12:06:54Z</time>
      </trkpt>
      <trkpt lat="43.87691" lon="6.46005">
        <ele>1214</ele>
        <time>2018-05-25T12:07:28Z</time>
      </trkpt>
      <trkpt lat="43.87694" lon="6.46008">
        <ele>1215</ele>
        <time>2018-05-25T12:07:57Z</time>
      </trkpt>
      <trkpt lat="43.87694" lon="6.46007">
        <ele>1215</ele>
        <time>2018-05-25T12:08:29Z</time>
      </trkpt>
      <trkpt lat="43.87694" lon="6.46006">
        <ele>1215</ele>
        <time>2018-05-25T12:08:55Z</time>
      </trkpt>
      <trkpt lat="43.87694" lon="6.46007">
        <ele>1215</ele>
        <time>2018-05-25T12:09:18Z</time>
      </trkpt>
      <trkpt lat="43.87694" lon="6.46007">
        <ele>1215</ele>
        <time>2018-05-25T12:09:42Z</time>
      </trkpt>
      <trkpt lat="43.87696" lon="6.46006">
        <ele>1216</ele>
        <time>2018-05-25T12:10:10Z</time>
      </trkpt>
      <trkpt lat="43.87696" lon="6.46005">
        <ele>1216</ele>
        <time>2018-05-25T12:10:37Z</time>
      </trkpt>
      <trkpt lat="43.87694" lon="6.45997">
        <ele>1216</ele>
        <time>2018-05-25T12:11:06Z</time>
      </trkpt>
      <trkpt lat="43.87695" lon="6.45998">
        <ele>1216</ele>
        <time>2018-05-25T12:11:29Z</time>
      </trkpt>
      <trkpt lat="43.87693" lon="6.46005">
        <ele>1215</ele>
        <time>2018-05-25T12:12:07Z</time>
      </trkpt>
      <trkpt lat="43.87693" lon="6.46007">
        <ele>1215</ele>
        <time>2018-05-25T12:12:48Z</time>
      </trkpt>
      <trkpt lat="43.87694" lon="6.46003">
        <ele>1215</ele>
        <time>2018-05-25T12:13:23Z</time>
      </trkpt>
      <trkpt lat="43.877" lon="6.46008">
        <ele>1217</ele>
        <time>2018-05-25T12:13:54Z</time>
      </trkpt>
      <trkpt lat="43.877" lon="6.46005">
        <ele>1217</ele>
        <time>2018-05-25T12:14:21Z</time>
      </trkpt>
      <trkpt lat="43.87699" lon="6.46002">
        <ele>1217</ele>
        <time>2018-05-25T12:14:55Z</time>
      </trkpt>
      <trkpt lat="43.87693" lon="6.4601">
        <ele>1215</ele>
        <time>2018-05-25T12:15:20Z</time>
      </trkpt>
      <trkpt lat="43.87696" lon="6.46011">
        <ele>1215</ele>
        <time>2018-05-25T12:15:49Z</time>
      </trkpt>
      <trkpt lat="43.87699" lon="6.4601">
        <ele>1216</ele>
        <time>2018-05-25T12:16:15Z</time>
      </trkpt>
      <trkpt lat="43.877" lon="6.46005">
        <ele>1217</ele>
        <time>2018-05-25T12:16:41Z</time>
      </trkpt>
      <trkpt lat="43.87703" lon="6.46002">
        <ele>1218</ele>
        <time>2018-05-25T12:17:08Z</time>
      </trkpt>
      <trkpt lat="43.87702" lon="6.46004">
        <ele>1218</ele>
        <time>2018-05-25T12:17:37Z</time>
      </trkpt>
      <trkpt lat="43.87703" lon="6.46005">
        <ele>1218</ele>
        <time>2018-05-25T12:18:07Z</time>
      </trkpt>
      <trkpt lat="43.87695" lon="6.46002">
        <ele>1216</ele>
        <time>2018-05-25T12:18:32Z</time>
      </trkpt>
      <trkpt lat="43.87685" lon="6.46">
        <ele>1213</ele>
        <time>2018-05-25T12:18:45Z</time>
      </trkpt>
      <trkpt lat="43.87672" lon="6.46">
        <ele>1209</ele>
        <time>2018-05-25T12:19:01Z</time>
      </trkpt>
      <trkpt lat="43.87658" lon="6.45998">
        <ele>1205</ele>
        <time>2018-05-25T12:19:16Z</time>
      </trkpt>
      <trkpt lat="43.87649" lon="6.45995">
        <ele>1205</ele>
        <time>2018-05-25T12:19:29Z</time>
      </trkpt>
      <trkpt lat="43.87638" lon="6.4599">
        <ele>1205</ele>
        <time>2018-05-25T12:19:42Z</time>
      </trkpt>
      <trkpt lat="43.87633" lon="6.45989">
        <ele>1205</ele>
        <time>2018-05-25T12:19:59Z</time>
      </trkpt>
      <trkpt lat="43.87628" lon="6.45989">
        <ele>1205</ele>
        <time>2018-05-25T12:20:12Z</time>
      </trkpt>
      <trkpt lat="43.87627" lon="6.45988">
        <ele>1205</ele>
        <time>2018-05-25T12:20:13Z</time>
      </trkpt>
      <trkpt lat="43.87622" lon="6.45987">
        <ele>1204</ele>
        <time>2018-05-25T12:20:16Z</time>
      </trkpt>
      <trkpt lat="43.8762" lon="6.45988">
        <ele>1205</ele>
        <time>2018-05-25T12:20:17Z</time>
      </trkpt>
      <trkpt lat="43.87617" lon="6.45989">
        <ele>1205</ele>
        <time>2018-05-25T12:20:18Z</time>
      </trkpt>
      <trkpt lat="43.87615" lon="6.4599">
        <ele>1205</ele>
        <time>2018-05-25T12:20:19Z</time>
      </trkpt>
      <trkpt lat="43.87613" lon="6.4599">
        <ele>1205</ele>
        <time>2018-05-25T12:20:20Z</time>
      </trkpt>
      <trkpt lat="43.8759" lon="6.45992">
        <ele>1206</ele>
        <time>2018-05-25T12:20:30Z</time>
      </trkpt>
      <trkpt lat="43.87549" lon="6.45985">
        <ele>1204</ele>
        <time>2018-05-25T12:20:42Z</time>
      </trkpt>
      <trkpt lat="43.87526" lon="6.45976">
        <ele>1200</ele>
        <time>2018-05-25T12:20:49Z</time>
      </trkpt>
      <trkpt lat="43.87521" lon="6.45974">
        <ele>1200</ele>
        <time>2018-05-25T12:20:50Z</time>
      </trkpt>
      <trkpt lat="43.87483" lon="6.45963">
        <ele>1198</ele>
        <time>2018-05-25T12:21:01Z</time>
      </trkpt>
      <trkpt lat="43.87481" lon="6.45964">
        <ele>1198</ele>
        <time>2018-05-25T12:21:02Z</time>
      </trkpt>
      <trkpt lat="43.87477" lon="6.45965">
        <ele>1197</ele>
        <time>2018-05-25T12:21:14Z</time>
      </trkpt>
      <trkpt lat="43.87477" lon="6.45966">
        <ele>1197</ele>
        <time>2018-05-25T12:21:39Z</time>
      </trkpt>
      <trkpt lat="43.87478" lon="6.45966">
        <ele>1198</ele>
        <time>2018-05-25T12:22:00Z</time>
      </trkpt>
      <trkpt lat="43.87477" lon="6.45966">
        <ele>1197</ele>
        <time>2018-05-25T12:22:26Z</time>
      </trkpt>
      <trkpt lat="43.87474" lon="6.45969">
        <ele>1197</ele>
        <time>2018-05-25T12:22:53Z</time>
      </trkpt>
      <trkpt lat="43.87473" lon="6.4597">
        <ele>1197</ele>
        <time>2018-05-25T12:23:10Z</time>
      </trkpt>
      <trkpt lat="43.87474" lon="6.45968">
        <ele>1197</ele>
        <time>2018-05-25T12:23:36Z</time>
      </trkpt>
      <trkpt lat="43.87474" lon="6.45968">
        <ele>1197</ele>
        <time>2018-05-25T12:24:04Z</time>
      </trkpt>
      <trkpt lat="43.87474" lon="6.4597">
        <ele>1197</ele>
        <time>2018-05-25T12:24:30Z</time>
      </trkpt>
      <trkpt lat="43.87472" lon="6.45972">
        <ele>1197</ele>
        <time>2018-05-25T12:24:44Z</time>
      </trkpt>
      <trkpt lat="43.87468" lon="6.4597">
        <ele>1196</ele>
        <time>2018-05-25T12:24:56Z</time>
      </trkpt>
      <trkpt lat="43.87466" lon="6.45969">
        <ele>1195</ele>
        <time>2018-05-25T12:24:59Z</time>
      </trkpt>
      <trkpt lat="43.87465" lon="6.45968">
        <ele>1195</ele>
        <time>2018-05-25T12:25:00Z</time>
      </trkpt>
      <trkpt lat="43.87446" lon="6.45955">
        <ele>1191</ele>
        <time>2018-05-25T12:25:12Z</time>
      </trkpt>
      <trkpt lat="43.87425" lon="6.45939">
        <ele>1189</ele>
        <time>2018-05-25T12:25:23Z</time>
      </trkpt>
      <trkpt lat="43.87413" lon="6.4593">
        <ele>1188</ele>
        <time>2018-05-25T12:25:33Z</time>
      </trkpt>
      <trkpt lat="43.87407" lon="6.45928">
        <ele>1187</ele>
        <time>2018-05-25T12:25:42Z</time>
      </trkpt>
      <trkpt lat="43.87398" lon="6.4593">
        <ele>1187</ele>
        <time>2018-05-25T12:25:55Z</time>
      </trkpt>
      <trkpt lat="43.87395" lon="6.45924">
        <ele>1186</ele>
        <time>2018-05-25T12:26:09Z</time>
      </trkpt>
      <trkpt lat="43.87391" lon="6.45924">
        <ele>1185</ele>
        <time>2018-05-25T12:26:22Z</time>
      </trkpt>
      <trkpt lat="43.87385" lon="6.45926">
        <ele>1185</ele>
        <time>2018-05-25T12:26:37Z</time>
      </trkpt>
      <trkpt lat="43.87384" lon="6.45924">
        <ele>1185</ele>
        <time>2018-05-25T12:26:40Z</time>
      </trkpt>
      <trkpt lat="43.87382" lon="6.45923">
        <ele>1185</ele>
        <time>2018-05-25T12:26:41Z</time>
      </trkpt>
      <trkpt lat="43.87381" lon="6.45923">
        <ele>1185</ele>
        <time>2018-05-25T12:26:42Z</time>
      </trkpt>
      <trkpt lat="43.87379" lon="6.45924">
        <ele>1185</ele>
        <time>2018-05-25T12:26:43Z</time>
      </trkpt>
      <trkpt lat="43.87377" lon="6.45924">
        <ele>1185</ele>
        <time>2018-05-25T12:26:44Z</time>
      </trkpt>
      <trkpt lat="43.87375" lon="6.45923">
        <ele>1184</ele>
        <time>2018-05-25T12:26:45Z</time>
      </trkpt>
      <trkpt lat="43.87373" lon="6.45922">
        <ele>1184</ele>
        <time>2018-05-25T12:26:46Z</time>
      </trkpt>
      <trkpt lat="43.87369" lon="6.45919">
        <ele>1184</ele>
        <time>2018-05-25T12:26:49Z</time>
      </trkpt>
      <trkpt lat="43.87368" lon="6.45917">
        <ele>1183</ele>
        <time>2018-05-25T12:26:50Z</time>
      </trkpt>
      <trkpt lat="43.87366" lon="6.45916">
        <ele>1183</ele>
        <time>2018-05-25T12:26:51Z</time>
      </trkpt>
      <trkpt lat="43.87365" lon="6.45915">
        <ele>1183</ele>
        <time>2018-05-25T12:26:52Z</time>
      </trkpt>
      <trkpt lat="43.87364" lon="6.45914">
        <ele>1183</ele>
        <time>2018-05-25T12:26:53Z</time>
      </trkpt>
      <trkpt lat="43.87363" lon="6.45913">
        <ele>1183</ele>
        <time>2018-05-25T12:26:54Z</time>
      </trkpt>
      <trkpt lat="43.87361" lon="6.45912">
        <ele>1183</ele>
        <time>2018-05-25T12:26:55Z</time>
      </trkpt>
      <trkpt lat="43.8736" lon="6.45911">
        <ele>1183</ele>
        <time>2018-05-25T12:26:56Z</time>
      </trkpt>
      <trkpt lat="43.87359" lon="6.45909">
        <ele>1182</ele>
        <time>2018-05-25T12:26:57Z</time>
      </trkpt>
      <trkpt lat="43.87358" lon="6.45907">
        <ele>1182</ele>
        <time>2018-05-25T12:26:58Z</time>
      </trkpt>
      <trkpt lat="43.87358" lon="6.45906">
        <ele>1182</ele>
        <time>2018-05-25T12:26:59Z</time>
      </trkpt>
      <trkpt lat="43.87357" lon="6.45904">
        <ele>1182</ele>
        <time>2018-05-25T12:27:00Z</time>
      </trkpt>
      <trkpt lat="43.87356" lon="6.45903">
        <ele>1182</ele>
        <time>2018-05-25T12:27:01Z</time>
      </trkpt>
      <trkpt lat="43.87355" lon="6.45901">
        <ele>1182</ele>
        <time>2018-05-25T12:27:02Z</time>
      </trkpt>
      <trkpt lat="43.87354" lon="6.459">
        <ele>1182</ele>
        <time>2018-05-25T12:27:03Z</time>
      </trkpt>
      <trkpt lat="43.87352" lon="6.45896">
        <ele>1182</ele>
        <time>2018-05-25T12:27:06Z</time>
      </trkpt>
      <trkpt lat="43.87348" lon="6.45893">
        <ele>1181</ele>
        <time>2018-05-25T12:27:19Z</time>
      </trkpt>
      <trkpt lat="43.87345" lon="6.4589">
        <ele>1181</ele>
        <time>2018-05-25T12:27:34Z</time>
      </trkpt>
      <trkpt lat="43.87341" lon="6.45887">
        <ele>1180</ele>
        <time>2018-05-25T12:27:47Z</time>
      </trkpt>
      <trkpt lat="43.87341" lon="6.45882">
        <ele>1180</ele>
        <time>2018-05-25T12:28:00Z</time>
      </trkpt>
      <trkpt lat="43.8734" lon="6.4588">
        <ele>1180</ele>
        <time>2018-05-25T12:28:19Z</time>
      </trkpt>
      <trkpt lat="43.87337" lon="6.4587">
        <ele>1179</ele>
        <time>2018-05-25T12:28:35Z</time>
      </trkpt>
      <trkpt lat="43.87336" lon="6.45858">
        <ele>1178</ele>
        <time>2018-05-25T12:28:48Z</time>
      </trkpt>
      <trkpt lat="43.87328" lon="6.45845">
        <ele>1174</ele>
        <time>2018-05-25T12:28:59Z</time>
      </trkpt>
      <trkpt lat="43.87323" lon="6.45836">
        <ele>1172</ele>
        <time>2018-05-25T12:29:04Z</time>
      </trkpt>
      <trkpt lat="43.87314" lon="6.4582">
        <ele>1170</ele>
        <time>2018-05-25T12:29:17Z</time>
      </trkpt>
      <trkpt lat="43.87307" lon="6.45814">
        <ele>1170</ele>
        <time>2018-05-25T12:29:32Z</time>
      </trkpt>
      <trkpt lat="43.87306" lon="6.45815">
        <ele>1170</ele>
        <time>2018-05-25T12:29:54Z</time>
      </trkpt>
      <trkpt lat="43.87306" lon="6.45814">
        <ele>1170</ele>
        <time>2018-05-25T12:30:20Z</time>
      </trkpt>
      <trkpt lat="43.87304" lon="6.4581">
        <ele>1169</ele>
        <time>2018-05-25T12:30:41Z</time>
      </trkpt>
      <trkpt lat="43.87301" lon="6.45799">
        <ele>1167</ele>
        <time>2018-05-25T12:30:56Z</time>
      </trkpt>
      <trkpt lat="43.87296" lon="6.45789">
        <ele>1163</ele>
        <time>2018-05-25T12:31:10Z</time>
      </trkpt>
      <trkpt lat="43.87292" lon="6.45776">
        <ele>1160</ele>
        <time>2018-05-25T12:31:25Z</time>
      </trkpt>
      <trkpt lat="43.87288" lon="6.45764">
        <ele>1157</ele>
        <time>2018-05-25T12:31:40Z</time>
      </trkpt>
      <trkpt lat="43.87283" lon="6.45758">
        <ele>1155</ele>
        <time>2018-05-25T12:31:56Z</time>
      </trkpt>
      <trkpt lat="43.87281" lon="6.45747">
        <ele>1153</ele>
        <time>2018-05-25T12:32:09Z</time>
      </trkpt>
      <trkpt lat="43.87275" lon="6.45731">
        <ele>1151</ele>
        <time>2018-05-25T12:32:25Z</time>
      </trkpt>
      <trkpt lat="43.87274" lon="6.45718">
        <ele>1148</ele>
        <time>2018-05-25T12:32:38Z</time>
      </trkpt>
      <trkpt lat="43.8727" lon="6.45707">
        <ele>1145</ele>
        <time>2018-05-25T12:32:51Z</time>
      </trkpt>
      <trkpt lat="43.87264" lon="6.45695">
        <ele>1143</ele>
        <time>2018-05-25T12:33:09Z</time>
      </trkpt>
      <trkpt lat="43.8726" lon="6.45688">
        <ele>1141</ele>
        <time>2018-05-25T12:33:24Z</time>
      </trkpt>
      <trkpt lat="43.87253" lon="6.45679">
        <ele>1137</ele>
        <time>2018-05-25T12:33:38Z</time>
      </trkpt>
      <trkpt lat="43.87249" lon="6.4567">
        <ele>1135</ele>
        <time>2018-05-25T12:33:52Z</time>
      </trkpt>
      <trkpt lat="43.87246" lon="6.45663">
        <ele>1133</ele>
        <time>2018-05-25T12:34:06Z</time>
      </trkpt>
      <trkpt lat="43.87245" lon="6.45661">
        <ele>1132</ele>
        <time>2018-05-25T12:34:21Z</time>
      </trkpt>
      <trkpt lat="43.87246" lon="6.45661">
        <ele>1132</ele>
        <time>2018-05-25T12:34:45Z</time>
      </trkpt>
      <trkpt lat="43.87243" lon="6.45662">
        <ele>1132</ele>
        <time>2018-05-25T12:35:19Z</time>
      </trkpt>
      <trkpt lat="43.87245" lon="6.45664">
        <ele>1133</ele>
        <time>2018-05-25T12:35:43Z</time>
      </trkpt>
      <trkpt lat="43.87245" lon="6.45662">
        <ele>1133</ele>
        <time>2018-05-25T12:36:20Z</time>
      </trkpt>
      <trkpt lat="43.87246" lon="6.45661">
        <ele>1132</ele>
        <time>2018-05-25T12:36:48Z</time>
      </trkpt>
      <trkpt lat="43.87246" lon="6.45664">
        <ele>1133</ele>
        <time>2018-05-25T12:37:13Z</time>
      </trkpt>
      <trkpt lat="43.87245" lon="6.45663">
        <ele>1133</ele>
        <time>2018-05-25T12:37:36Z</time>
      </trkpt>
      <trkpt lat="43.87248" lon="6.45664">
        <ele>1134</ele>
        <time>2018-05-25T12:38:02Z</time>
      </trkpt>
      <trkpt lat="43.87248" lon="6.45662">
        <ele>1133</ele>
        <time>2018-05-25T12:38:19Z</time>
      </trkpt>
      <trkpt lat="43.87241" lon="6.45658">
        <ele>1131</ele>
        <time>2018-05-25T12:38:32Z</time>
      </trkpt>
      <trkpt lat="43.87237" lon="6.4565">
        <ele>1128</ele>
        <time>2018-05-25T12:38:47Z</time>
      </trkpt>
      <trkpt lat="43.87233" lon="6.45651">
        <ele>1128</ele>
        <time>2018-05-25T12:39:02Z</time>
      </trkpt>
      <trkpt lat="43.87231" lon="6.45649">
        <ele>1128</ele>
        <time>2018-05-25T12:39:16Z</time>
      </trkpt>
      <trkpt lat="43.87229" lon="6.45644">
        <ele>1126</ele>
        <time>2018-05-25T12:39:29Z</time>
      </trkpt>
      <trkpt lat="43.87225" lon="6.45639">
        <ele>1125</ele>
        <time>2018-05-25T12:39:43Z</time>
      </trkpt>
      <trkpt lat="43.87221" lon="6.45634">
        <ele>1123</ele>
        <time>2018-05-25T12:40:02Z</time>
      </trkpt>
      <trkpt lat="43.87224" lon="6.45633">
        <ele>1124</ele>
        <time>2018-05-25T12:40:16Z</time>
      </trkpt>
      <trkpt lat="43.87218" lon="6.45631">
        <ele>1122</ele>
        <time>2018-05-25T12:40:31Z</time>
      </trkpt>
      <trkpt lat="43.87216" lon="6.45622">
        <ele>1120</ele>
        <time>2018-05-25T12:40:48Z</time>
      </trkpt>
      <trkpt lat="43.87214" lon="6.45617">
        <ele>1118</ele>
        <time>2018-05-25T12:41:01Z</time>
      </trkpt>
      <trkpt lat="43.87216" lon="6.4561">
        <ele>1117</ele>
        <time>2018-05-25T12:41:17Z</time>
      </trkpt>
      <trkpt lat="43.87216" lon="6.45606">
        <ele>1116</ele>
        <time>2018-05-25T12:41:37Z</time>
      </trkpt>
      <trkpt lat="43.87213" lon="6.45601">
        <ele>1114</ele>
        <time>2018-05-25T12:41:51Z</time>
      </trkpt>
      <trkpt lat="43.87214" lon="6.45595">
        <ele>1113</ele>
        <time>2018-05-25T12:42:04Z</time>
      </trkpt>
      <trkpt lat="43.8721" lon="6.45589">
        <ele>1110</ele>
        <time>2018-05-25T12:42:18Z</time>
      </trkpt>
      <trkpt lat="43.8721" lon="6.45584">
        <ele>1109</ele>
        <time>2018-05-25T12:42:39Z</time>
      </trkpt>
      <trkpt lat="43.87209" lon="6.45577">
        <ele>1107</ele>
        <time>2018-05-25T12:42:58Z</time>
      </trkpt>
      <trkpt lat="43.8721" lon="6.4557">
        <ele>1105</ele>
        <time>2018-05-25T12:43:11Z</time>
      </trkpt>
      <trkpt lat="43.87214" lon="6.4556">
        <ele>1103</ele>
        <time>2018-05-25T12:43:26Z</time>
      </trkpt>
      <trkpt lat="43.87215" lon="6.45546">
        <ele>1099</ele>
        <time>2018-05-25T12:43:41Z</time>
      </trkpt>
      <trkpt lat="43.87218" lon="6.45535">
        <ele>1096</ele>
        <time>2018-05-25T12:43:56Z</time>
      </trkpt>
      <trkpt lat="43.87217" lon="6.45528">
        <ele>1094</ele>
        <time>2018-05-25T12:44:08Z</time>
      </trkpt>
      <trkpt lat="43.87214" lon="6.45518">
        <ele>1091</ele>
        <time>2018-05-25T12:44:22Z</time>
      </trkpt>
      <trkpt lat="43.87212" lon="6.45506">
        <ele>1088</ele>
        <time>2018-05-25T12:44:36Z</time>
      </trkpt>
      <trkpt lat="43.87212" lon="6.45495">
        <ele>1084</ele>
        <time>2018-05-25T12:44:50Z</time>
      </trkpt>
      <trkpt lat="43.87208" lon="6.45487">
        <ele>1083</ele>
        <time>2018-05-25T12:45:03Z</time>
      </trkpt>
      <trkpt lat="43.87206" lon="6.45476">
        <ele>1080</ele>
        <time>2018-05-25T12:45:15Z</time>
      </trkpt>
      <trkpt lat="43.87204" lon="6.45467">
        <ele>1080</ele>
        <time>2018-05-25T12:45:25Z</time>
      </trkpt>
      <trkpt lat="43.87205" lon="6.45454">
        <ele>1080</ele>
        <time>2018-05-25T12:45:39Z</time>
      </trkpt>
      <trkpt lat="43.87208" lon="6.45443">
        <ele>1081</ele>
        <time>2018-05-25T12:45:54Z</time>
      </trkpt>
      <trkpt lat="43.87206" lon="6.45433">
        <ele>1080</ele>
        <time>2018-05-25T12:46:06Z</time>
      </trkpt>
      <trkpt lat="43.87203" lon="6.45429">
        <ele>1080</ele>
        <time>2018-05-25T12:46:22Z</time>
      </trkpt>
      <trkpt lat="43.87204" lon="6.45424">
        <ele>1080</ele>
        <time>2018-05-25T12:46:35Z</time>
      </trkpt>
      <trkpt lat="43.87204" lon="6.45417">
        <ele>1080</ele>
        <time>2018-05-25T12:46:49Z</time>
      </trkpt>
      <trkpt lat="43.87203" lon="6.45421">
        <ele>1080</ele>
        <time>2018-05-25T12:47:04Z</time>
      </trkpt>
      <trkpt lat="43.87203" lon="6.45425">
        <ele>1080</ele>
        <time>2018-05-25T12:47:31Z</time>
      </trkpt>
      <trkpt lat="43.87208" lon="6.45421">
        <ele>1081</ele>
        <time>2018-05-25T12:48:01Z</time>
      </trkpt>
      <trkpt lat="43.87205" lon="6.45419">
        <ele>1080</ele>
        <time>2018-05-25T12:48:24Z</time>
      </trkpt>
      <trkpt lat="43.87201" lon="6.45412">
        <ele>1080</ele>
        <time>2018-05-25T12:48:36Z</time>
      </trkpt>
      <trkpt lat="43.87196" lon="6.45404">
        <ele>1078</ele>
        <time>2018-05-25T12:48:56Z</time>
      </trkpt>
      <trkpt lat="43.87195" lon="6.45402">
        <ele>1078</ele>
        <time>2018-05-25T12:49:05Z</time>
      </trkpt>
      <trkpt lat="43.87188" lon="6.45385">
        <ele>1077</ele>
        <time>2018-05-25T12:49:19Z</time>
      </trkpt>
      <trkpt lat="43.87186" lon="6.45375">
        <ele>1076</ele>
        <time>2018-05-25T12:49:36Z</time>
      </trkpt>
      <trkpt lat="43.87185" lon="6.45369">
        <ele>1076</ele>
        <time>2018-05-25T12:49:49Z</time>
      </trkpt>
      <trkpt lat="43.87186" lon="6.45365">
        <ele>1076</ele>
        <time>2018-05-25T12:49:59Z</time>
      </trkpt>
      <trkpt lat="43.87185" lon="6.45361">
        <ele>1076</ele>
        <time>2018-05-25T12:50:10Z</time>
      </trkpt>
      <trkpt lat="43.8719" lon="6.45357">
        <ele>1075</ele>
        <time>2018-05-25T12:50:35Z</time>
      </trkpt>
      <trkpt lat="43.87188" lon="6.45358">
        <ele>1075</ele>
        <time>2018-05-25T12:50:59Z</time>
      </trkpt>
      <trkpt lat="43.8719" lon="6.45356">
        <ele>1075</ele>
        <time>2018-05-25T12:51:31Z</time>
      </trkpt>
      <trkpt lat="43.87192" lon="6.4536">
        <ele>1076</ele>
        <time>2018-05-25T12:51:53Z</time>
      </trkpt>
      <trkpt lat="43.87188" lon="6.45361">
        <ele>1075</ele>
        <time>2018-05-25T12:52:10Z</time>
      </trkpt>
      <trkpt lat="43.87185" lon="6.45359">
        <ele>1076</ele>
        <time>2018-05-25T12:52:19Z</time>
      </trkpt>
      <trkpt lat="43.87184" lon="6.45352">
        <ele>1075</ele>
        <time>2018-05-25T12:52:22Z</time>
      </trkpt>
      <trkpt lat="43.87184" lon="6.45348">
        <ele>1075</ele>
        <time>2018-05-25T12:52:23Z</time>
      </trkpt>
      <trkpt lat="43.87184" lon="6.45344">
        <ele>1075</ele>
        <time>2018-05-25T12:52:24Z</time>
      </trkpt>
      <trkpt lat="43.87184" lon="6.4534">
        <ele>1075</ele>
        <time>2018-05-25T12:52:25Z</time>
      </trkpt>
      <trkpt lat="43.87186" lon="6.45292">
        <ele>1072</ele>
        <time>2018-05-25T12:52:35Z</time>
      </trkpt>
      <trkpt lat="43.87176" lon="6.45242">
        <ele>1073</ele>
        <time>2018-05-25T12:52:44Z</time>
      </trkpt>
      <trkpt lat="43.87173" lon="6.45186">
        <ele>1074</ele>
        <time>2018-05-25T12:52:55Z</time>
      </trkpt>
      <trkpt lat="43.8717" lon="6.45141">
        <ele>1074</ele>
        <time>2018-05-25T12:53:07Z</time>
      </trkpt>
      <trkpt lat="43.87169" lon="6.45132">
        <ele>1074</ele>
        <time>2018-05-25T12:53:19Z</time>
      </trkpt>
      <trkpt lat="43.87168" lon="6.45128">
        <ele>1073</ele>
        <time>2018-05-25T12:53:40Z</time>
      </trkpt>
      <trkpt lat="43.87167" lon="6.4513">
        <ele>1073</ele>
        <time>2018-05-25T12:54:15Z</time>
      </trkpt>
      <trkpt lat="43.87167" lon="6.45131">
        <ele>1073</ele>
        <time>2018-05-25T12:54:35Z</time>
      </trkpt>
      <trkpt lat="43.87168" lon="6.45133">
        <ele>1074</ele>
        <time>2018-05-25T12:54:57Z</time>
      </trkpt>
      <trkpt lat="43.87169" lon="6.4513">
        <ele>1074</ele>
        <time>2018-05-25T12:55:28Z</time>
      </trkpt>
      <trkpt lat="43.87168" lon="6.45127">
        <ele>1073</ele>
        <time>2018-05-25T12:55:36Z</time>
      </trkpt>
      <trkpt lat="43.87167" lon="6.45126">
        <ele>1073</ele>
        <time>2018-05-25T12:55:37Z</time>
      </trkpt>
      <trkpt lat="43.87164" lon="6.45125">
        <ele>1072</ele>
        <time>2018-05-25T12:55:38Z</time>
      </trkpt>
      <trkpt lat="43.87161" lon="6.45125">
        <ele>1071</ele>
        <time>2018-05-25T12:55:39Z</time>
      </trkpt>
      <trkpt lat="43.87157" lon="6.45125">
        <ele>1070</ele>
        <time>2018-05-25T12:55:40Z</time>
      </trkpt>
      <trkpt lat="43.87152" lon="6.45122">
        <ele>1068</ele>
        <time>2018-05-25T12:55:41Z</time>
      </trkpt>
      <trkpt lat="43.87149" lon="6.45116">
        <ele>1067</ele>
        <time>2018-05-25T12:55:42Z</time>
      </trkpt>
      <trkpt lat="43.87146" lon="6.4511">
        <ele>1066</ele>
        <time>2018-05-25T12:55:43Z</time>
      </trkpt>
      <trkpt lat="43.87143" lon="6.45103">
        <ele>1065</ele>
        <time>2018-05-25T12:55:44Z</time>
      </trkpt>
      <trkpt lat="43.87141" lon="6.45095">
        <ele>1064</ele>
        <time>2018-05-25T12:55:45Z</time>
      </trkpt>
      <trkpt lat="43.87139" lon="6.45087">
        <ele>1064</ele>
        <time>2018-05-25T12:55:46Z</time>
      </trkpt>
      <trkpt lat="43.87137" lon="6.45078">
        <ele>1063</ele>
        <time>2018-05-25T12:55:47Z</time>
      </trkpt>
      <trkpt lat="43.87133" lon="6.4507">
        <ele>1062</ele>
        <time>2018-05-25T12:55:48Z</time>
      </trkpt>
      <trkpt lat="43.87129" lon="6.45064">
        <ele>1061</ele>
        <time>2018-05-25T12:55:49Z</time>
      </trkpt>
      <trkpt lat="43.87123" lon="6.45059">
        <ele>1060</ele>
        <time>2018-05-25T12:55:50Z</time>
      </trkpt>
      <trkpt lat="43.87116" lon="6.45055">
        <ele>1059</ele>
        <time>2018-05-25T12:55:51Z</time>
      </trkpt>
      <trkpt lat="43.87109" lon="6.45052">
        <ele>1057</ele>
        <time>2018-05-25T12:55:52Z</time>
      </trkpt>
      <trkpt lat="43.87102" lon="6.45049">
        <ele>1057</ele>
        <time>2018-05-25T12:55:53Z</time>
      </trkpt>
      <trkpt lat="43.87089" lon="6.45045">
        <ele>1057</ele>
        <time>2018-05-25T12:55:55Z</time>
      </trkpt>
      <trkpt lat="43.87038" lon="6.45034">
        <ele>1056</ele>
        <time>2018-05-25T12:56:03Z</time>
      </trkpt>
      <trkpt lat="43.87032" lon="6.45033">
        <ele>1056</ele>
        <time>2018-05-25T12:56:04Z</time>
      </trkpt>
      <trkpt lat="43.87025" lon="6.45031">
        <ele>1055</ele>
        <time>2018-05-25T12:56:05Z</time>
      </trkpt>
      <trkpt lat="43.86979" lon="6.45017">
        <ele>1054</ele>
        <time>2018-05-25T12:56:15Z</time>
      </trkpt>
      <trkpt lat="43.86976" lon="6.45012">
        <ele>1053</ele>
        <time>2018-05-25T12:56:18Z</time>
      </trkpt>
      <trkpt lat="43.86977" lon="6.45011">
        <ele>1053</ele>
        <time>2018-05-25T12:56:30Z</time>
      </trkpt>
      <trkpt lat="43.86978" lon="6.45008">
        <ele>1053</ele>
        <time>2018-05-25T12:56:41Z</time>
      </trkpt>
      <trkpt lat="43.86979" lon="6.45006">
        <ele>1053</ele>
        <time>2018-05-25T12:56:42Z</time>
      </trkpt>
      <trkpt lat="43.87002" lon="6.44975">
        <ele>1051</ele>
        <time>2018-05-25T12:56:53Z</time>
      </trkpt>
      <trkpt lat="43.8701" lon="6.44959">
        <ele>1051</ele>
        <time>2018-05-25T12:56:56Z</time>
      </trkpt>
      <trkpt lat="43.87019" lon="6.44944">
        <ele>1050</ele>
        <time>2018-05-25T12:56:59Z</time>
      </trkpt>
      <trkpt lat="43.87026" lon="6.44934">
        <ele>1050</ele>
        <time>2018-05-25T12:57:01Z</time>
      </trkpt>
      <trkpt lat="43.87066" lon="6.44864">
        <ele>1047</ele>
        <time>2018-05-25T12:57:13Z</time>
      </trkpt>
      <trkpt lat="43.8707" lon="6.44859">
        <ele>1047</ele>
        <time>2018-05-25T12:57:14Z</time>
      </trkpt>
      <trkpt lat="43.87074" lon="6.44854">
        <ele>1046</ele>
        <time>2018-05-25T12:57:15Z</time>
      </trkpt>
      <trkpt lat="43.87099" lon="6.4482">
        <ele>1046</ele>
        <time>2018-05-25T12:57:21Z</time>
      </trkpt>
      <trkpt lat="43.87106" lon="6.44799">
        <ele>1045</ele>
        <time>2018-05-25T12:57:24Z</time>
      </trkpt>
      <trkpt lat="43.8711" lon="6.44783">
        <ele>1045</ele>
        <time>2018-05-25T12:57:26Z</time>
      </trkpt>
      <trkpt lat="43.87119" lon="6.44728">
        <ele>1044</ele>
        <time>2018-05-25T12:57:33Z</time>
      </trkpt>
      <trkpt lat="43.87122" lon="6.4472">
        <ele>1045</ele>
        <time>2018-05-25T12:57:34Z</time>
      </trkpt>
      <trkpt lat="43.87125" lon="6.44712">
        <ele>1046</ele>
        <time>2018-05-25T12:57:35Z</time>
      </trkpt>
      <trkpt lat="43.87129" lon="6.44705">
        <ele>1046</ele>
        <time>2018-05-25T12:57:36Z</time>
      </trkpt>
      <trkpt lat="43.87133" lon="6.44698">
        <ele>1047</ele>
        <time>2018-05-25T12:57:37Z</time>
      </trkpt>
      <trkpt lat="43.87138" lon="6.44693">
        <ele>1047</ele>
        <time>2018-05-25T12:57:38Z</time>
      </trkpt>
      <trkpt lat="43.87143" lon="6.44689">
        <ele>1047</ele>
        <time>2018-05-25T12:57:39Z</time>
      </trkpt>
      <trkpt lat="43.87149" lon="6.44685">
        <ele>1047</ele>
        <time>2018-05-25T12:57:40Z</time>
      </trkpt>
      <trkpt lat="43.87154" lon="6.44682">
        <ele>1046</ele>
        <time>2018-05-25T12:57:41Z</time>
      </trkpt>
      <trkpt lat="43.8716" lon="6.44679">
        <ele>1046</ele>
        <time>2018-05-25T12:57:42Z</time>
      </trkpt>
      <trkpt lat="43.87238" lon="6.44651">
        <ele>1053</ele>
        <time>2018-05-25T12:57:56Z</time>
      </trkpt>
      <trkpt lat="43.87279" lon="6.44634">
        <ele>1052</ele>
        <time>2018-05-25T12:58:04Z</time>
      </trkpt>
      <trkpt lat="43.87298" lon="6.44614">
        <ele>1047</ele>
        <time>2018-05-25T12:58:08Z</time>
      </trkpt>
      <trkpt lat="43.8734" lon="6.44567">
        <ele>1044</ele>
        <time>2018-05-25T12:58:16Z</time>
      </trkpt>
      <trkpt lat="43.87346" lon="6.44563">
        <ele>1043</ele>
        <time>2018-05-25T12:58:17Z</time>
      </trkpt>
      <trkpt lat="43.87377" lon="6.44541">
        <ele>1043</ele>
        <time>2018-05-25T12:58:22Z</time>
      </trkpt>
      <trkpt lat="43.87405" lon="6.44513">
        <ele>1042</ele>
        <time>2018-05-25T12:58:27Z</time>
      </trkpt>
      <trkpt lat="43.8746" lon="6.4445">
        <ele>1042</ele>
        <time>2018-05-25T12:58:38Z</time>
      </trkpt>
      <trkpt lat="43.87466" lon="6.44445">
        <ele>1042</ele>
        <time>2018-05-25T12:58:39Z</time>
      </trkpt>
      <trkpt lat="43.87536" lon="6.44401">
        <ele>1042</ele>
        <time>2018-05-25T12:58:49Z</time>
      </trkpt>
      <trkpt lat="43.87544" lon="6.444">
        <ele>1041</ele>
        <time>2018-05-25T12:58:50Z</time>
      </trkpt>
      <trkpt lat="43.87551" lon="6.444">
        <ele>1040</ele>
        <time>2018-05-25T12:58:51Z</time>
      </trkpt>
      <trkpt lat="43.87584" lon="6.44405">
        <ele>1038</ele>
        <time>2018-05-25T12:58:56Z</time>
      </trkpt>
      <trkpt lat="43.87591" lon="6.44404">
        <ele>1038</ele>
        <time>2018-05-25T12:58:57Z</time>
      </trkpt>
      <trkpt lat="43.87622" lon="6.44391">
        <ele>1033</ele>
        <time>2018-05-25T12:59:02Z</time>
      </trkpt>
      <trkpt lat="43.87628" lon="6.4439">
        <ele>1032</ele>
        <time>2018-05-25T12:59:03Z</time>
      </trkpt>
      <trkpt lat="43.87641" lon="6.44389">
        <ele>1033</ele>
        <time>2018-05-25T12:59:05Z</time>
      </trkpt>
      <trkpt lat="43.8768" lon="6.44389">
        <ele>1036</ele>
        <time>2018-05-25T12:59:12Z</time>
      </trkpt>
      <trkpt lat="43.87685" lon="6.44386">
        <ele>1038</ele>
        <time>2018-05-25T12:59:13Z</time>
      </trkpt>
      <trkpt lat="43.8769" lon="6.44383">
        <ele>1040</ele>
        <time>2018-05-25T12:59:14Z</time>
      </trkpt>
      <trkpt lat="43.87694" lon="6.44378">
        <ele>1042</ele>
        <time>2018-05-25T12:59:15Z</time>
      </trkpt>
      <trkpt lat="43.87697" lon="6.44374">
        <ele>1044</ele>
        <time>2018-05-25T12:59:16Z</time>
      </trkpt>
      <trkpt lat="43.87701" lon="6.4437">
        <ele>1045</ele>
        <time>2018-05-25T12:59:17Z</time>
      </trkpt>
      <trkpt lat="43.87706" lon="6.44369">
        <ele>1045</ele>
        <time>2018-05-25T12:59:18Z</time>
      </trkpt>
      <trkpt lat="43.87711" lon="6.4437">
        <ele>1045</ele>
        <time>2018-05-25T12:59:19Z</time>
      </trkpt>
      <trkpt lat="43.87716" lon="6.44371">
        <ele>1045</ele>
        <time>2018-05-25T12:59:20Z</time>
      </trkpt>
      <trkpt lat="43.87721" lon="6.44372">
        <ele>1045</ele>
        <time>2018-05-25T12:59:21Z</time>
      </trkpt>
      <trkpt lat="43.87726" lon="6.44374">
        <ele>1041</ele>
        <time>2018-05-25T12:59:22Z</time>
      </trkpt>
      <trkpt lat="43.87731" lon="6.44377">
        <ele>1038</ele>
        <time>2018-05-25T12:59:23Z</time>
      </trkpt>
      <trkpt lat="43.87736" lon="6.44381">
        <ele>1035</ele>
        <time>2018-05-25T12:59:24Z</time>
      </trkpt>
      <trkpt lat="43.87741" lon="6.44386">
        <ele>1032</ele>
        <time>2018-05-25T12:59:25Z</time>
      </trkpt>
      <trkpt lat="43.87745" lon="6.44391">
        <ele>1028</ele>
        <time>2018-05-25T12:59:26Z</time>
      </trkpt>
      <trkpt lat="43.87748" lon="6.44396">
        <ele>1025</ele>
        <time>2018-05-25T12:59:27Z</time>
      </trkpt>
      <trkpt lat="43.87765" lon="6.44429">
        <ele>1040</ele>
        <time>2018-05-25T12:59:37Z</time>
      </trkpt>
      <trkpt lat="43.8777" lon="6.44431">
        <ele>1042</ele>
        <time>2018-05-25T12:59:47Z</time>
      </trkpt>
      <trkpt lat="43.87775" lon="6.44435">
        <ele>1045</ele>
        <time>2018-05-25T13:00:00Z</time>
      </trkpt>
      <trkpt lat="43.87778" lon="6.44436">
        <ele>1046</ele>
        <time>2018-05-25T13:00:17Z</time>
      </trkpt>
      <trkpt lat="43.87778" lon="6.44436">
        <ele>1046</ele>
        <time>2018-05-25T13:00:35Z</time>
      </trkpt>
      <trkpt lat="43.87781" lon="6.44428">
        <ele>1040</ele>
        <time>2018-05-25T13:01:01Z</time>
      </trkpt>
      <trkpt lat="43.8778" lon="6.44429">
        <ele>1040</ele>
        <time>2018-05-25T13:01:20Z</time>
      </trkpt>
      <trkpt lat="43.8778" lon="6.44427">
        <ele>1038</ele>
        <time>2018-05-25T13:01:47Z</time>
      </trkpt>
      <trkpt lat="43.8778" lon="6.44422">
        <ele>1035</ele>
        <time>2018-05-25T13:02:05Z</time>
      </trkpt>
      <trkpt lat="43.87779" lon="6.44421">
        <ele>1034</ele>
        <time>2018-05-25T13:02:29Z</time>
      </trkpt>
      <trkpt lat="43.87779" lon="6.44421">
        <ele>1034</ele>
        <time>2018-05-25T13:02:50Z</time>
      </trkpt>
      <trkpt lat="43.87779" lon="6.44421">
        <ele>1033</ele>
        <time>2018-05-25T13:03:16Z</time>
      </trkpt>
      <trkpt lat="43.8778" lon="6.44419">
        <ele>1032</ele>
        <time>2018-05-25T13:03:37Z</time>
      </trkpt>
      <trkpt lat="43.8778" lon="6.44419">
        <ele>1032</ele>
        <time>2018-05-25T13:03:57Z</time>
      </trkpt>
      <trkpt lat="43.8778" lon="6.4442">
        <ele>1033</ele>
        <time>2018-05-25T13:04:26Z</time>
      </trkpt>
      <trkpt lat="43.87781" lon="6.44422">
        <ele>1035</ele>
        <time>2018-05-25T13:04:47Z</time>
      </trkpt>
      <trkpt lat="43.8778" lon="6.44426">
        <ele>1037</ele>
        <time>2018-05-25T13:05:04Z</time>
      </trkpt>
      <trkpt lat="43.87781" lon="6.44429">
        <ele>1040</ele>
        <time>2018-05-25T13:05:23Z</time>
      </trkpt>
      <trkpt lat="43.87779" lon="6.44432">
        <ele>1042</ele>
        <time>2018-05-25T13:05:46Z</time>
      </trkpt>
      <trkpt lat="43.87778" lon="6.44433">
        <ele>1043</ele>
        <time>2018-05-25T13:06:11Z</time>
      </trkpt>
      <trkpt lat="43.87779" lon="6.44435">
        <ele>1045</ele>
        <time>2018-05-25T13:06:35Z</time>
      </trkpt>
      <trkpt lat="43.8778" lon="6.44437">
        <ele>1047</ele>
        <time>2018-05-25T13:07:03Z</time>
      </trkpt>
      <trkpt lat="43.87779" lon="6.44436">
        <ele>1046</ele>
        <time>2018-05-25T13:07:24Z</time>
      </trkpt>
      <trkpt lat="43.8778" lon="6.44435">
        <ele>1045</ele>
        <time>2018-05-25T13:07:44Z</time>
      </trkpt>
      <trkpt lat="43.8778" lon="6.44429">
        <ele>1040</ele>
        <time>2018-05-25T13:08:06Z</time>
      </trkpt>
      <trkpt lat="43.87781" lon="6.44426">
        <ele>1037</ele>
        <time>2018-05-25T13:08:26Z</time>
      </trkpt>
      <trkpt lat="43.87782" lon="6.44427">
        <ele>1038</ele>
        <time>2018-05-25T13:08:42Z</time>
      </trkpt>
      <trkpt lat="43.87781" lon="6.44422">
        <ele>1034</ele>
        <time>2018-05-25T13:09:04Z</time>
      </trkpt>
      <trkpt lat="43.87781" lon="6.44409">
        <ele>1023</ele>
        <time>2018-05-25T13:09:27Z</time>
      </trkpt>
      <trkpt lat="43.87782" lon="6.44409">
        <ele>1023</ele>
        <time>2018-05-25T13:09:46Z</time>
      </trkpt>
      <trkpt lat="43.87784" lon="6.44408">
        <ele>1023</ele>
        <time>2018-05-25T13:10:12Z</time>
      </trkpt>
      <trkpt lat="43.87784" lon="6.444">
        <ele>1017</ele>
        <time>2018-05-25T13:10:38Z</time>
      </trkpt>
      <trkpt lat="43.87783" lon="6.44403">
        <ele>1018</ele>
        <time>2018-05-25T13:10:57Z</time>
      </trkpt>
      <trkpt lat="43.87783" lon="6.44406">
        <ele>1021</ele>
        <time>2018-05-25T13:11:14Z</time>
      </trkpt>
      <trkpt lat="43.87782" lon="6.44404">
        <ele>1019</ele>
        <time>2018-05-25T13:11:17Z</time>
      </trkpt>
      <trkpt lat="43.87779" lon="6.44405">
        <ele>1020</ele>
        <time>2018-05-25T13:11:20Z</time>
      </trkpt>
      <trkpt lat="43.87777" lon="6.44404">
        <ele>1018</ele>
        <time>2018-05-25T13:11:21Z</time>
      </trkpt>
      <trkpt lat="43.87776" lon="6.44402">
        <ele>1017</ele>
        <time>2018-05-25T13:11:22Z</time>
      </trkpt>
      <trkpt lat="43.87743" lon="6.44362">
        <ele>1034</ele>
        <time>2018-05-25T13:11:38Z</time>
      </trkpt>
      <trkpt lat="43.87693" lon="6.44374">
        <ele>1043</ele>
        <time>2018-05-25T13:11:53Z</time>
      </trkpt>
      <trkpt lat="43.87655" lon="6.44387">
        <ele>1034</ele>
        <time>2018-05-25T13:12:05Z</time>
      </trkpt>
      <trkpt lat="43.87603" lon="6.44397">
        <ele>1035</ele>
        <time>2018-05-25T13:12:22Z</time>
      </trkpt>
      <trkpt lat="43.87562" lon="6.444">
        <ele>1039</ele>
        <time>2018-05-25T13:12:36Z</time>
      </trkpt>
      <trkpt lat="43.87512" lon="6.4441">
        <ele>1042</ele>
        <time>2018-05-25T13:12:52Z</time>
      </trkpt>
      <trkpt lat="43.87459" lon="6.44447">
        <ele>1041</ele>
        <time>2018-05-25T13:13:09Z</time>
      </trkpt>
      <trkpt lat="43.8741" lon="6.44502">
        <ele>1041</ele>
        <time>2018-05-25T13:13:26Z</time>
      </trkpt>
      <trkpt lat="43.87355" lon="6.44552">
        <ele>1041</ele>
        <time>2018-05-25T13:13:43Z</time>
      </trkpt>
      <trkpt lat="43.87314" lon="6.44586">
        <ele>1046</ele>
        <time>2018-05-25T13:13:57Z</time>
      </trkpt>
      <trkpt lat="43.87267" lon="6.44633">
        <ele>1050</ele>
        <time>2018-05-25T13:14:13Z</time>
      </trkpt>
      <trkpt lat="43.87195" lon="6.4466">
        <ele>1048</ele>
        <time>2018-05-25T13:14:32Z</time>
      </trkpt>
      <trkpt lat="43.87131" lon="6.44696">
        <ele>1047</ele>
        <time>2018-05-25T13:14:50Z</time>
      </trkpt>
      <trkpt lat="43.8711" lon="6.4475">
        <ele>1044</ele>
        <time>2018-05-25T13:15:03Z</time>
      </trkpt>
      <trkpt lat="43.8709" lon="6.44824">
        <ele>1046</ele>
        <time>2018-05-25T13:15:20Z</time>
      </trkpt>
      <trkpt lat="43.87052" lon="6.4488">
        <ele>1048</ele>
        <time>2018-05-25T13:15:37Z</time>
      </trkpt>
      <trkpt lat="43.87011" lon="6.44947">
        <ele>1050</ele>
        <time>2018-05-25T13:15:57Z</time>
      </trkpt>
      <trkpt lat="43.86974" lon="6.45008">
        <ele>1053</ele>
        <time>2018-05-25T13:16:16Z</time>
      </trkpt>
      <trkpt lat="43.86971" lon="6.45014">
        <ele>1053</ele>
        <time>2018-05-25T13:16:25Z</time>
      </trkpt>
      <trkpt lat="43.8697" lon="6.45013">
        <ele>1053</ele>
        <time>2018-05-25T13:16:52Z</time>
      </trkpt>
      <trkpt lat="43.86972" lon="6.45015">
        <ele>1053</ele>
        <time>2018-05-25T13:17:15Z</time>
      </trkpt>
      <trkpt lat="43.86973" lon="6.45014">
        <ele>1053</ele>
        <time>2018-05-25T13:17:38Z</time>
      </trkpt>
      <trkpt lat="43.8697" lon="6.45014">
        <ele>1053</ele>
        <time>2018-05-25T13:17:57Z</time>
      </trkpt>
      <trkpt lat="43.86972" lon="6.45014">
        <ele>1053</ele>
        <time>2018-05-25T13:18:18Z</time>
      </trkpt>
      <trkpt lat="43.86973" lon="6.45014">
        <ele>1053</ele>
        <time>2018-05-25T13:18:45Z</time>
      </trkpt>
      <trkpt lat="43.86973" lon="6.45015">
        <ele>1053</ele>
        <time>2018-05-25T13:19:13Z</time>
      </trkpt>
      <trkpt lat="43.86972" lon="6.45012">
        <ele>1053</ele>
        <time>2018-05-25T13:19:41Z</time>
      </trkpt>
      <trkpt lat="43.86972" lon="6.45012">
        <ele>1053</ele>
        <time>2018-05-25T13:20:08Z</time>
      </trkpt>
      <trkpt lat="43.86973" lon="6.45014">
        <ele>1053</ele>
        <time>2018-05-25T13:20:30Z</time>
      </trkpt>
      <trkpt lat="43.86973" lon="6.45012">
        <ele>1053</ele>
        <time>2018-05-25T13:20:55Z</time>
      </trkpt>
      <trkpt lat="43.86971" lon="6.45013">
        <ele>1053</ele>
        <time>2018-05-25T13:21:20Z</time>
      </trkpt>
      <trkpt lat="43.86972" lon="6.45014">
        <ele>1053</ele>
        <time>2018-05-25T13:21:48Z</time>
      </trkpt>
      <trkpt lat="43.86973" lon="6.45012">
        <ele>1053</ele>
        <time>2018-05-25T13:22:18Z</time>
      </trkpt>
      <trkpt lat="43.86971" lon="6.4501">
        <ele>1053</ele>
        <time>2018-05-25T13:22:42Z</time>
      </trkpt>
      <trkpt lat="43.86971" lon="6.45012">
        <ele>1053</ele>
        <time>2018-05-25T13:23:11Z</time>
      </trkpt>
      <trkpt lat="43.86971" lon="6.45013">
        <ele>1053</ele>
        <time>2018-05-25T13:23:40Z</time>
      </trkpt>
      <trkpt lat="43.86971" lon="6.45013">
        <ele>1053</ele>
        <time>2018-05-25T13:24:00Z</time>
      </trkpt>
      <trkpt lat="43.8697" lon="6.45013">
        <ele>1053</ele>
        <time>2018-05-25T13:24:28Z</time>
      </trkpt>
      <trkpt lat="43.86971" lon="6.45014">
        <ele>1053</ele>
        <time>2018-05-25T13:24:52Z</time>
      </trkpt>
      <trkpt lat="43.86971" lon="6.45008">
        <ele>1053</ele>
        <time>2018-05-25T13:25:03Z</time>
      </trkpt>
      <trkpt lat="43.8697" lon="6.45009">
        <ele>1053</ele>
        <time>2018-05-25T13:25:20Z</time>
      </trkpt>
      <trkpt lat="43.86969" lon="6.45008">
        <ele>1053</ele>
        <time>2018-05-25T13:25:31Z</time>
      </trkpt>
      <trkpt lat="43.86968" lon="6.45006">
        <ele>1053</ele>
        <time>2018-05-25T13:25:32Z</time>
      </trkpt>
      <trkpt lat="43.86967" lon="6.45004">
        <ele>1053</ele>
        <time>2018-05-25T13:25:33Z</time>
      </trkpt>
      <trkpt lat="43.86939" lon="6.44968">
        <ele>1053</ele>
        <time>2018-05-25T13:25:47Z</time>
      </trkpt>
      <trkpt lat="43.86913" lon="6.44912">
        <ele>1055</ele>
        <time>2018-05-25T13:26:04Z</time>
      </trkpt>
      <trkpt lat="43.86898" lon="6.44895">
        <ele>1056</ele>
        <time>2018-05-25T13:26:14Z</time>
      </trkpt>
      <trkpt lat="43.86888" lon="6.44892">
        <ele>1057</ele>
        <time>2018-05-25T13:26:20Z</time>
      </trkpt>
      <trkpt lat="43.86886" lon="6.44892">
        <ele>1057</ele>
        <time>2018-05-25T13:26:21Z</time>
      </trkpt>
      <trkpt lat="43.86874" lon="6.44892">
        <ele>1058</ele>
        <time>2018-05-25T13:26:29Z</time>
      </trkpt>
      <trkpt lat="43.86872" lon="6.44892">
        <ele>1059</ele>
        <time>2018-05-25T13:26:30Z</time>
      </trkpt>
      <trkpt lat="43.86871" lon="6.44892">
        <ele>1059</ele>
        <time>2018-05-25T13:26:31Z</time>
      </trkpt>
      <trkpt lat="43.8685" lon="6.44893">
        <ele>1061</ele>
        <time>2018-05-25T13:26:45Z</time>
      </trkpt>
      <trkpt lat="43.8683" lon="6.44889">
        <ele>1061</ele>
        <time>2018-05-25T13:27:00Z</time>
      </trkpt>
      <trkpt lat="43.86811" lon="6.44881">
        <ele>1062</ele>
        <time>2018-05-25T13:27:14Z</time>
      </trkpt>
      <trkpt lat="43.86787" lon="6.44868">
        <ele>1063</ele>
        <time>2018-05-25T13:27:30Z</time>
      </trkpt>
      <trkpt lat="43.86759" lon="6.44854">
        <ele>1065</ele>
        <time>2018-05-25T13:27:46Z</time>
      </trkpt>
      <trkpt lat="43.86726" lon="6.44838">
        <ele>1067</ele>
        <time>2018-05-25T13:28:00Z</time>
      </trkpt>
      <trkpt lat="43.86693" lon="6.44819">
        <ele>1071</ele>
        <time>2018-05-25T13:28:16Z</time>
      </trkpt>
      <trkpt lat="43.86664" lon="6.44807">
        <ele>1073</ele>
        <time>2018-05-25T13:28:31Z</time>
      </trkpt>
      <trkpt lat="43.86657" lon="6.44803">
        <ele>1074</ele>
        <time>2018-05-25T13:28:35Z</time>
      </trkpt>
      <trkpt lat="43.86656" lon="6.44804">
        <ele>1074</ele>
        <time>2018-05-25T13:28:36Z</time>
      </trkpt>
      <trkpt lat="43.86654" lon="6.44806">
        <ele>1074</ele>
        <time>2018-05-25T13:28:37Z</time>
      </trkpt>
      <trkpt lat="43.86653" lon="6.44807">
        <ele>1074</ele>
        <time>2018-05-25T13:28:38Z</time>
      </trkpt>
      <trkpt lat="43.86651" lon="6.4481">
        <ele>1074</ele>
        <time>2018-05-25T13:28:54Z</time>
      </trkpt>
      <trkpt lat="43.86652" lon="6.44813">
        <ele>1074</ele>
        <time>2018-05-25T13:29:29Z</time>
      </trkpt>
      <trkpt lat="43.86653" lon="6.44813">
        <ele>1074</ele>
        <time>2018-05-25T13:29:57Z</time>
      </trkpt>
      <trkpt lat="43.86651" lon="6.44815">
        <ele>1074</ele>
        <time>2018-05-25T13:30:20Z</time>
      </trkpt>
      <trkpt lat="43.8665" lon="6.44817">
        <ele>1074</ele>
        <time>2018-05-25T13:30:21Z</time>
      </trkpt>
      <trkpt lat="43.86646" lon="6.44825">
        <ele>1074</ele>
        <time>2018-05-25T13:30:33Z</time>
      </trkpt>
      <trkpt lat="43.86646" lon="6.44827">
        <ele>1074</ele>
        <time>2018-05-25T13:30:35Z</time>
      </trkpt>
      <trkpt lat="43.86646" lon="6.44829">
        <ele>1074</ele>
        <time>2018-05-25T13:30:36Z</time>
      </trkpt>
      <trkpt lat="43.86645" lon="6.44832">
        <ele>1074</ele>
        <time>2018-05-25T13:30:37Z</time>
      </trkpt>
      <trkpt lat="43.86639" lon="6.4486">
        <ele>1073</ele>
        <time>2018-05-25T13:30:44Z</time>
      </trkpt>
      <trkpt lat="43.86638" lon="6.44866">
        <ele>1073</ele>
        <time>2018-05-25T13:30:45Z</time>
      </trkpt>
      <trkpt lat="43.86636" lon="6.44878">
        <ele>1072</ele>
        <time>2018-05-25T13:30:47Z</time>
      </trkpt>
      <trkpt lat="43.86635" lon="6.44884">
        <ele>1072</ele>
        <time>2018-05-25T13:30:48Z</time>
      </trkpt>
      <trkpt lat="43.86635" lon="6.44892">
        <ele>1072</ele>
        <time>2018-05-25T13:30:49Z</time>
      </trkpt>
      <trkpt lat="43.86629" lon="6.44947">
        <ele>1070</ele>
        <time>2018-05-25T13:30:59Z</time>
      </trkpt>
      <trkpt lat="43.8663" lon="6.44947">
        <ele>1070</ele>
        <time>2018-05-25T13:31:08Z</time>
      </trkpt>
      <trkpt lat="43.8663" lon="6.44945">
        <ele>1070</ele>
        <time>2018-05-25T13:31:09Z</time>
      </trkpt>
      <trkpt lat="43.8663" lon="6.44944">
        <ele>1070</ele>
        <time>2018-05-25T13:31:10Z</time>
      </trkpt>
      <trkpt lat="43.8663" lon="6.44942">
        <ele>1070</ele>
        <time>2018-05-25T13:31:11Z</time>
      </trkpt>
      <trkpt lat="43.8663" lon="6.44938">
        <ele>1070</ele>
        <time>2018-05-25T13:31:14Z</time>
      </trkpt>
      <trkpt lat="43.86631" lon="6.44936">
        <ele>1070</ele>
        <time>2018-05-25T13:31:15Z</time>
      </trkpt>
      <trkpt lat="43.86631" lon="6.44934">
        <ele>1070</ele>
        <time>2018-05-25T13:31:16Z</time>
      </trkpt>
      <trkpt lat="43.8663" lon="6.44931">
        <ele>1071</ele>
        <time>2018-05-25T13:31:17Z</time>
      </trkpt>
      <trkpt lat="43.8663" lon="6.44929">
        <ele>1071</ele>
        <time>2018-05-25T13:31:18Z</time>
      </trkpt>
      <trkpt lat="43.86631" lon="6.44927">
        <ele>1071</ele>
        <time>2018-05-25T13:31:19Z</time>
      </trkpt>
      <trkpt lat="43.86634" lon="6.44895">
        <ele>1072</ele>
        <time>2018-05-25T13:31:34Z</time>
      </trkpt>
      <trkpt lat="43.86639" lon="6.44863">
        <ele>1073</ele>
        <time>2018-05-25T13:31:48Z</time>
      </trkpt>
      <trkpt lat="43.86649" lon="6.44826">
        <ele>1074</ele>
        <time>2018-05-25T13:32:03Z</time>
      </trkpt>
      <trkpt lat="43.86652" lon="6.44814">
        <ele>1074</ele>
        <time>2018-05-25T13:32:08Z</time>
      </trkpt>
      <trkpt lat="43.86652" lon="6.44812">
        <ele>1074</ele>
        <time>2018-05-25T13:32:09Z</time>
      </trkpt>
      <trkpt lat="43.86651" lon="6.4481">
        <ele>1074</ele>
        <time>2018-05-25T13:32:10Z</time>
      </trkpt>
      <trkpt lat="43.86649" lon="6.44809">
        <ele>1074</ele>
        <time>2018-05-25T13:32:11Z</time>
      </trkpt>
      <trkpt lat="43.86647" lon="6.44809">
        <ele>1074</ele>
        <time>2018-05-25T13:32:12Z</time>
      </trkpt>
      <trkpt lat="43.86645" lon="6.44809">
        <ele>1074</ele>
        <time>2018-05-25T13:32:13Z</time>
      </trkpt>
      <trkpt lat="43.86644" lon="6.44808">
        <ele>1075</ele>
        <time>2018-05-25T13:32:14Z</time>
      </trkpt>
      <trkpt lat="43.86642" lon="6.44808">
        <ele>1075</ele>
        <time>2018-05-25T13:32:15Z</time>
      </trkpt>
      <trkpt lat="43.8664" lon="6.44808">
        <ele>1075</ele>
        <time>2018-05-25T13:32:16Z</time>
      </trkpt>
      <trkpt lat="43.86626" lon="6.44808">
        <ele>1076</ele>
        <time>2018-05-25T13:32:29Z</time>
      </trkpt>
      <trkpt lat="43.86625" lon="6.44806">
        <ele>1076</ele>
        <time>2018-05-25T13:32:52Z</time>
      </trkpt>
      <trkpt lat="43.86628" lon="6.44806">
        <ele>1076</ele>
        <time>2018-05-25T13:33:05Z</time>
      </trkpt>
      <trkpt lat="43.8664" lon="6.44803">
        <ele>1075</ele>
        <time>2018-05-25T13:33:13Z</time>
      </trkpt>
      <trkpt lat="43.86641" lon="6.44802">
        <ele>1075</ele>
        <time>2018-05-25T13:33:14Z</time>
      </trkpt>
      <trkpt lat="43.8664" lon="6.448">
        <ele>1075</ele>
        <time>2018-05-25T13:33:15Z</time>
      </trkpt>
      <trkpt lat="43.8664" lon="6.44799">
        <ele>1075</ele>
        <time>2018-05-25T13:33:16Z</time>
      </trkpt>
      <trkpt lat="43.86639" lon="6.44799">
        <ele>1075</ele>
        <time>2018-05-25T13:33:17Z</time>
      </trkpt>
      <trkpt lat="43.86637" lon="6.44799">
        <ele>1075</ele>
        <time>2018-05-25T13:33:18Z</time>
      </trkpt>
      <trkpt lat="43.86631" lon="6.44795">
        <ele>1076</ele>
        <time>2018-05-25T13:33:27Z</time>
      </trkpt>
      <trkpt lat="43.86615" lon="6.44786">
        <ele>1077</ele>
        <time>2018-05-25T13:33:44Z</time>
      </trkpt>
      <trkpt lat="43.86612" lon="6.44786">
        <ele>1077</ele>
        <time>2018-05-25T13:33:46Z</time>
      </trkpt>
      <trkpt lat="43.86607" lon="6.44784">
        <ele>1078</ele>
        <time>2018-05-25T13:33:52Z</time>
      </trkpt>
      <trkpt lat="43.86601" lon="6.44779">
        <ele>1078</ele>
        <time>2018-05-25T13:33:59Z</time>
      </trkpt>
      <trkpt lat="43.86598" lon="6.44779">
        <ele>1078</ele>
        <time>2018-05-25T13:34:02Z</time>
      </trkpt>
      <trkpt lat="43.86597" lon="6.44778">
        <ele>1078</ele>
        <time>2018-05-25T13:34:03Z</time>
      </trkpt>
      <trkpt lat="43.86594" lon="6.44775">
        <ele>1079</ele>
        <time>2018-05-25T13:34:07Z</time>
      </trkpt>
      <trkpt lat="43.8659" lon="6.44773">
        <ele>1079</ele>
        <time>2018-05-25T13:34:22Z</time>
      </trkpt>
      <trkpt lat="43.86584" lon="6.44774">
        <ele>1080</ele>
        <time>2018-05-25T13:34:44Z</time>
      </trkpt>
      <trkpt lat="43.86582" lon="6.44772">
        <ele>1080</ele>
        <time>2018-05-25T13:34:55Z</time>
      </trkpt>
      <trkpt lat="43.86581" lon="6.44771">
        <ele>1080</ele>
        <time>2018-05-25T13:34:56Z</time>
      </trkpt>
      <trkpt lat="43.86579" lon="6.4477">
        <ele>1080</ele>
        <time>2018-05-25T13:34:57Z</time>
      </trkpt>
      <trkpt lat="43.86578" lon="6.44769">
        <ele>1080</ele>
        <time>2018-05-25T13:34:58Z</time>
      </trkpt>
      <trkpt lat="43.86577" lon="6.44769">
        <ele>1080</ele>
        <time>2018-05-25T13:34:59Z</time>
      </trkpt>
      <trkpt lat="43.86576" lon="6.44768">
        <ele>1080</ele>
        <time>2018-05-25T13:35:00Z</time>
      </trkpt>
      <trkpt lat="43.86553" lon="6.44759">
        <ele>1082</ele>
        <time>2018-05-25T13:35:18Z</time>
      </trkpt>
      <trkpt lat="43.86552" lon="6.44758">
        <ele>1082</ele>
        <time>2018-05-25T13:35:19Z</time>
      </trkpt>
      <trkpt lat="43.86547" lon="6.44757">
        <ele>1082</ele>
        <time>2018-05-25T13:35:28Z</time>
      </trkpt>
      <trkpt lat="43.86546" lon="6.44757">
        <ele>1082</ele>
        <time>2018-05-25T13:35:29Z</time>
      </trkpt>
      <trkpt lat="43.86541" lon="6.44756">
        <ele>1083</ele>
        <time>2018-05-25T13:35:33Z</time>
      </trkpt>
      <trkpt lat="43.8654" lon="6.44756">
        <ele>1083</ele>
        <time>2018-05-25T13:35:34Z</time>
      </trkpt>
      <trkpt lat="43.86536" lon="6.44755">
        <ele>1083</ele>
        <time>2018-05-25T13:35:40Z</time>
      </trkpt>
      <trkpt lat="43.86535" lon="6.44755">
        <ele>1083</ele>
        <time>2018-05-25T13:35:41Z</time>
      </trkpt>
      <trkpt lat="43.86516" lon="6.44745">
        <ele>1084</ele>
        <time>2018-05-25T13:35:56Z</time>
      </trkpt>
      <trkpt lat="43.86503" lon="6.44737">
        <ele>1086</ele>
        <time>2018-05-25T13:36:10Z</time>
      </trkpt>
      <trkpt lat="43.86494" lon="6.44731">
        <ele>1086</ele>
        <time>2018-05-25T13:36:22Z</time>
      </trkpt>
      <trkpt lat="43.86483" lon="6.44738">
        <ele>1087</ele>
        <time>2018-05-25T13:36:37Z</time>
      </trkpt>
      <trkpt lat="43.86476" lon="6.44753">
        <ele>1087</ele>
        <time>2018-05-25T13:36:52Z</time>
      </trkpt>
      <trkpt lat="43.86475" lon="6.44756">
        <ele>1086</ele>
        <time>2018-05-25T13:37:19Z</time>
      </trkpt>
      <trkpt lat="43.86477" lon="6.44754">
        <ele>1086</ele>
        <time>2018-05-25T13:37:43Z</time>
      </trkpt>
      <trkpt lat="43.86475" lon="6.44757">
        <ele>1086</ele>
        <time>2018-05-25T13:38:00Z</time>
      </trkpt>
      <trkpt lat="43.86474" lon="6.44757">
        <ele>1086</ele>
        <time>2018-05-25T13:38:21Z</time>
      </trkpt>
      <trkpt lat="43.86471" lon="6.44755">
        <ele>1087</ele>
        <time>2018-05-25T13:38:28Z</time>
      </trkpt>
      <trkpt lat="43.8647" lon="6.44756">
        <ele>1087</ele>
        <time>2018-05-25T13:38:29Z</time>
      </trkpt>
      <trkpt lat="43.86461" lon="6.44752">
        <ele>1087</ele>
        <time>2018-05-25T13:38:35Z</time>
      </trkpt>
      <trkpt lat="43.86439" lon="6.44737">
        <ele>1090</ele>
        <time>2018-05-25T13:38:50Z</time>
      </trkpt>
      <trkpt lat="43.86434" lon="6.44726">
        <ele>1091</ele>
        <time>2018-05-25T13:39:01Z</time>
      </trkpt>
      <trkpt lat="43.86423" lon="6.44714">
        <ele>1093</ele>
        <time>2018-05-25T13:39:17Z</time>
      </trkpt>
      <trkpt lat="43.86415" lon="6.44702">
        <ele>1094</ele>
        <time>2018-05-25T13:39:32Z</time>
      </trkpt>
      <trkpt lat="43.86409" lon="6.4468">
        <ele>1095</ele>
        <time>2018-05-25T13:39:49Z</time>
      </trkpt>
      <trkpt lat="43.86405" lon="6.44662">
        <ele>1098</ele>
        <time>2018-05-25T13:40:06Z</time>
      </trkpt>
      <trkpt lat="43.86405" lon="6.44661">
        <ele>1098</ele>
        <time>2018-05-25T13:40:07Z</time>
      </trkpt>
      <trkpt lat="43.864" lon="6.44648">
        <ele>1101</ele>
        <time>2018-05-25T13:40:21Z</time>
      </trkpt>
      <trkpt lat="43.86396" lon="6.44641">
        <ele>1102</ele>
        <time>2018-05-25T13:40:35Z</time>
      </trkpt>
      <trkpt lat="43.86388" lon="6.44637">
        <ele>1104</ele>
        <time>2018-05-25T13:40:48Z</time>
      </trkpt>
      <trkpt lat="43.86375" lon="6.44637">
        <ele>1105</ele>
        <time>2018-05-25T13:41:04Z</time>
      </trkpt>
      <trkpt lat="43.86367" lon="6.44643">
        <ele>1105</ele>
        <time>2018-05-25T13:41:21Z</time>
      </trkpt>
      <trkpt lat="43.86366" lon="6.44644">
        <ele>1105</ele>
        <time>2018-05-25T13:41:41Z</time>
      </trkpt>
      <trkpt lat="43.86366" lon="6.44644">
        <ele>1105</ele>
        <time>2018-05-25T13:42:05Z</time>
      </trkpt>
      <trkpt lat="43.86359" lon="6.44648">
        <ele>1106</ele>
        <time>2018-05-25T13:42:23Z</time>
      </trkpt>
      <trkpt lat="43.86356" lon="6.4465">
        <ele>1106</ele>
        <time>2018-05-25T13:42:37Z</time>
      </trkpt>
      <trkpt lat="43.86352" lon="6.44652">
        <ele>1106</ele>
        <time>2018-05-25T13:42:41Z</time>
      </trkpt>
      <trkpt lat="43.86338" lon="6.44655">
        <ele>1108</ele>
        <time>2018-05-25T13:42:52Z</time>
      </trkpt>
      <trkpt lat="43.86328" lon="6.44663">
        <ele>1108</ele>
        <time>2018-05-25T13:43:02Z</time>
      </trkpt>
      <trkpt lat="43.86325" lon="6.44663">
        <ele>1109</ele>
        <time>2018-05-25T13:43:04Z</time>
      </trkpt>
      <trkpt lat="43.86322" lon="6.44668">
        <ele>1109</ele>
        <time>2018-05-25T13:43:14Z</time>
      </trkpt>
      <trkpt lat="43.8632" lon="6.44674">
        <ele>1108</ele>
        <time>2018-05-25T13:43:18Z</time>
      </trkpt>
      <trkpt lat="43.86309" lon="6.44695">
        <ele>1109</ele>
        <time>2018-05-25T13:43:32Z</time>
      </trkpt>
      <trkpt lat="43.86297" lon="6.44719">
        <ele>1108</ele>
        <time>2018-05-25T13:43:46Z</time>
      </trkpt>
      <trkpt lat="43.86281" lon="6.4475">
        <ele>1109</ele>
        <time>2018-05-25T13:44:00Z</time>
      </trkpt>
      <trkpt lat="43.86264" lon="6.44779">
        <ele>1111</ele>
        <time>2018-05-25T13:44:14Z</time>
      </trkpt>
      <trkpt lat="43.86257" lon="6.44796">
        <ele>1111</ele>
        <time>2018-05-25T13:44:27Z</time>
      </trkpt>
      <trkpt lat="43.86251" lon="6.44807">
        <ele>1112</ele>
        <time>2018-05-25T13:44:45Z</time>
      </trkpt>
      <trkpt lat="43.86244" lon="6.44824">
        <ele>1113</ele>
        <time>2018-05-25T13:45:00Z</time>
      </trkpt>
      <trkpt lat="43.86242" lon="6.44829">
        <ele>1113</ele>
        <time>2018-05-25T13:45:21Z</time>
      </trkpt>
      <trkpt lat="43.86241" lon="6.44832">
        <ele>1113</ele>
        <time>2018-05-25T13:45:25Z</time>
      </trkpt>
      <trkpt lat="43.86242" lon="6.44841">
        <ele>1113</ele>
        <time>2018-05-25T13:45:35Z</time>
      </trkpt>
      <trkpt lat="43.86238" lon="6.44861">
        <ele>1113</ele>
        <time>2018-05-25T13:45:43Z</time>
      </trkpt>
      <trkpt lat="43.86229" lon="6.44906">
        <ele>1114</ele>
        <time>2018-05-25T13:45:58Z</time>
      </trkpt>
      <trkpt lat="43.86217" lon="6.44935">
        <ele>1115</ele>
        <time>2018-05-25T13:46:09Z</time>
      </trkpt>
      <trkpt lat="43.86205" lon="6.44969">
        <ele>1115</ele>
        <time>2018-05-25T13:46:21Z</time>
      </trkpt>
      <trkpt lat="43.86185" lon="6.44995">
        <ele>1118</ele>
        <time>2018-05-25T13:46:35Z</time>
      </trkpt>
      <trkpt lat="43.86161" lon="6.45003">
        <ele>1121</ele>
        <time>2018-05-25T13:46:52Z</time>
      </trkpt>
      <trkpt lat="43.86155" lon="6.45006">
        <ele>1122</ele>
        <time>2018-05-25T13:47:05Z</time>
      </trkpt>
      <trkpt lat="43.86152" lon="6.45011">
        <ele>1122</ele>
        <time>2018-05-25T13:47:26Z</time>
      </trkpt>
      <trkpt lat="43.86141" lon="6.45011">
        <ele>1124</ele>
        <time>2018-05-25T13:47:42Z</time>
      </trkpt>
      <trkpt lat="43.86139" lon="6.45014">
        <ele>1124</ele>
        <time>2018-05-25T13:47:54Z</time>
      </trkpt>
      <trkpt lat="43.86137" lon="6.4502">
        <ele>1124</ele>
        <time>2018-05-25T13:48:06Z</time>
      </trkpt>
      <trkpt lat="43.86136" lon="6.45029">
        <ele>1124</ele>
        <time>2018-05-25T13:48:20Z</time>
      </trkpt>
      <trkpt lat="43.86138" lon="6.4503">
        <ele>1124</ele>
        <time>2018-05-25T13:48:31Z</time>
      </trkpt>
      <trkpt lat="43.8614" lon="6.45041">
        <ele>1124</ele>
        <time>2018-05-25T13:48:44Z</time>
      </trkpt>
      <trkpt lat="43.86142" lon="6.45047">
        <ele>1123</ele>
        <time>2018-05-25T13:48:57Z</time>
      </trkpt>
      <trkpt lat="43.8614" lon="6.45057">
        <ele>1124</ele>
        <time>2018-05-25T13:49:12Z</time>
      </trkpt>
      <trkpt lat="43.86135" lon="6.45065">
        <ele>1124</ele>
        <time>2018-05-25T13:49:27Z</time>
      </trkpt>
      <trkpt lat="43.86129" lon="6.45077">
        <ele>1126</ele>
        <time>2018-05-25T13:49:43Z</time>
      </trkpt>
      <trkpt lat="43.86126" lon="6.45083">
        <ele>1126</ele>
        <time>2018-05-25T13:49:57Z</time>
      </trkpt>
      <trkpt lat="43.8612" lon="6.45091">
        <ele>1128</ele>
        <time>2018-05-25T13:50:08Z</time>
      </trkpt>
      <trkpt lat="43.86115" lon="6.45102">
        <ele>1129</ele>
        <time>2018-05-25T13:50:24Z</time>
      </trkpt>
      <trkpt lat="43.86108" lon="6.45114">
        <ele>1131</ele>
        <time>2018-05-25T13:50:43Z</time>
      </trkpt>
      <trkpt lat="43.86102" lon="6.45121">
        <ele>1133</ele>
        <time>2018-05-25T13:50:57Z</time>
      </trkpt>
      <trkpt lat="43.86095" lon="6.45135">
        <ele>1135</ele>
        <time>2018-05-25T13:51:12Z</time>
      </trkpt>
      <trkpt lat="43.86093" lon="6.4514">
        <ele>1136</ele>
        <time>2018-05-25T13:51:27Z</time>
      </trkpt>
      <trkpt lat="43.86092" lon="6.45141">
        <ele>1136</ele>
        <time>2018-05-25T13:51:35Z</time>
      </trkpt>
      <trkpt lat="43.8608" lon="6.45155">
        <ele>1139</ele>
        <time>2018-05-25T13:51:52Z</time>
      </trkpt>
      <trkpt lat="43.86072" lon="6.45162">
        <ele>1141</ele>
        <time>2018-05-25T13:52:05Z</time>
      </trkpt>
      <trkpt lat="43.86069" lon="6.45166">
        <ele>1141</ele>
        <time>2018-05-25T13:52:20Z</time>
      </trkpt>
      <trkpt lat="43.8607" lon="6.45169">
        <ele>1141</ele>
        <time>2018-05-25T13:52:50Z</time>
      </trkpt>
      <trkpt lat="43.8607" lon="6.4517">
        <ele>1141</ele>
        <time>2018-05-25T13:53:36Z</time>
      </trkpt>
      <trkpt lat="43.8607" lon="6.4517">
        <ele>1141</ele>
        <time>2018-05-25T13:54:01Z</time>
      </trkpt>
      <trkpt lat="43.86068" lon="6.45172">
        <ele>1142</ele>
        <time>2018-05-25T13:54:29Z</time>
      </trkpt>
      <trkpt lat="43.86067" lon="6.4517">
        <ele>1142</ele>
        <time>2018-05-25T13:54:59Z</time>
      </trkpt>
      <trkpt lat="43.86061" lon="6.45176">
        <ele>1142</ele>
        <time>2018-05-25T13:55:20Z</time>
      </trkpt>
      <trkpt lat="43.86049" lon="6.45188">
        <ele>1144</ele>
        <time>2018-05-25T13:55:36Z</time>
      </trkpt>
      <trkpt lat="43.86045" lon="6.45189">
        <ele>1144</ele>
        <time>2018-05-25T13:55:40Z</time>
      </trkpt>
      <trkpt lat="43.86036" lon="6.45189">
        <ele>1145</ele>
        <time>2018-05-25T13:55:55Z</time>
      </trkpt>
      <trkpt lat="43.86031" lon="6.45189">
        <ele>1146</ele>
        <time>2018-05-25T13:56:05Z</time>
      </trkpt>
      <trkpt lat="43.86018" lon="6.45186">
        <ele>1148</ele>
        <time>2018-05-25T13:56:21Z</time>
      </trkpt>
      <trkpt lat="43.86007" lon="6.45185">
        <ele>1151</ele>
        <time>2018-05-25T13:56:36Z</time>
      </trkpt>
      <trkpt lat="43.85997" lon="6.45184">
        <ele>1153</ele>
        <time>2018-05-25T13:56:52Z</time>
      </trkpt>
      <trkpt lat="43.85985" lon="6.45185">
        <ele>1156</ele>
        <time>2018-05-25T13:57:10Z</time>
      </trkpt>
      <trkpt lat="43.85977" lon="6.45186">
        <ele>1158</ele>
        <time>2018-05-25T13:57:26Z</time>
      </trkpt>
      <trkpt lat="43.85973" lon="6.45186">
        <ele>1160</ele>
        <time>2018-05-25T13:57:37Z</time>
      </trkpt>
      <trkpt lat="43.85966" lon="6.45192">
        <ele>1162</ele>
        <time>2018-05-25T13:57:56Z</time>
      </trkpt>
      <trkpt lat="43.85965" lon="6.45195">
        <ele>1163</ele>
        <time>2018-05-25T13:58:08Z</time>
      </trkpt>
      <trkpt lat="43.85959" lon="6.45202">
        <ele>1165</ele>
        <time>2018-05-25T13:58:25Z</time>
      </trkpt>
      <trkpt lat="43.85956" lon="6.45212">
        <ele>1166</ele>
        <time>2018-05-25T13:58:40Z</time>
      </trkpt>
      <trkpt lat="43.85949" lon="6.45218">
        <ele>1168</ele>
        <time>2018-05-25T13:58:56Z</time>
      </trkpt>
      <trkpt lat="43.85941" lon="6.45223">
        <ele>1170</ele>
        <time>2018-05-25T13:59:18Z</time>
      </trkpt>
      <trkpt lat="43.85939" lon="6.45229">
        <ele>1171</ele>
        <time>2018-05-25T13:59:57Z</time>
      </trkpt>
      <trkpt lat="43.85936" lon="6.45227">
        <ele>1172</ele>
        <time>2018-05-25T14:00:27Z</time>
      </trkpt>
      <trkpt lat="43.85936" lon="6.45229">
        <ele>1171</ele>
        <time>2018-05-25T14:01:01Z</time>
      </trkpt>
      <trkpt lat="43.85932" lon="6.4523">
        <ele>1173</ele>
        <time>2018-05-25T14:01:15Z</time>
      </trkpt>
      <trkpt lat="43.85924" lon="6.45234">
        <ele>1176</ele>
        <time>2018-05-25T14:01:32Z</time>
      </trkpt>
      <trkpt lat="43.85922" lon="6.45237">
        <ele>1176</ele>
        <time>2018-05-25T14:01:50Z</time>
      </trkpt>
      <trkpt lat="43.85914" lon="6.45241">
        <ele>1178</ele>
        <time>2018-05-25T14:02:05Z</time>
      </trkpt>
      <trkpt lat="43.8591" lon="6.45243">
        <ele>1179</ele>
        <time>2018-05-25T14:02:18Z</time>
      </trkpt>
      <trkpt lat="43.85906" lon="6.45245">
        <ele>1180</ele>
        <time>2018-05-25T14:02:32Z</time>
      </trkpt>
      <trkpt lat="43.85901" lon="6.45247">
        <ele>1181</ele>
        <time>2018-05-25T14:02:49Z</time>
      </trkpt>
      <trkpt lat="43.85894" lon="6.4525">
        <ele>1183</ele>
        <time>2018-05-25T14:03:04Z</time>
      </trkpt>
      <trkpt lat="43.85888" lon="6.45252">
        <ele>1185</ele>
        <time>2018-05-25T14:03:19Z</time>
      </trkpt>
      <trkpt lat="43.85882" lon="6.45255">
        <ele>1186</ele>
        <time>2018-05-25T14:03:33Z</time>
      </trkpt>
      <trkpt lat="43.85874" lon="6.45249">
        <ele>1190</ele>
        <time>2018-05-25T14:03:49Z</time>
      </trkpt>
      <trkpt lat="43.85869" lon="6.45248">
        <ele>1191</ele>
        <time>2018-05-25T14:04:04Z</time>
      </trkpt>
      <trkpt lat="43.85866" lon="6.45249">
        <ele>1192</ele>
        <time>2018-05-25T14:04:16Z</time>
      </trkpt>
      <trkpt lat="43.85865" lon="6.45248">
        <ele>1193</ele>
        <time>2018-05-25T14:04:26Z</time>
      </trkpt>
      <trkpt lat="43.85865" lon="6.45248">
        <ele>1193</ele>
        <time>2018-05-25T14:04:42Z</time>
      </trkpt>
      <trkpt lat="43.85863" lon="6.45246">
        <ele>1194</ele>
        <time>2018-05-25T14:05:03Z</time>
      </trkpt>
      <trkpt lat="43.85861" lon="6.45247">
        <ele>1194</ele>
        <time>2018-05-25T14:05:23Z</time>
      </trkpt>
      <trkpt lat="43.85859" lon="6.45249">
        <ele>1194</ele>
        <time>2018-05-25T14:05:46Z</time>
      </trkpt>
      <trkpt lat="43.85859" lon="6.45248">
        <ele>1195</ele>
        <time>2018-05-25T14:06:13Z</time>
      </trkpt>
      <trkpt lat="43.85859" lon="6.45245">
        <ele>1195</ele>
        <time>2018-05-25T14:06:49Z</time>
      </trkpt>
      <trkpt lat="43.85853" lon="6.45247">
        <ele>1197</ele>
        <time>2018-05-25T14:07:22Z</time>
      </trkpt>
      <trkpt lat="43.85851" lon="6.45241">
        <ele>1198</ele>
        <time>2018-05-25T14:07:36Z</time>
      </trkpt>
      <trkpt lat="43.85847" lon="6.45235">
        <ele>1200</ele>
        <time>2018-05-25T14:07:50Z</time>
      </trkpt>
      <trkpt lat="43.85845" lon="6.45231">
        <ele>1202</ele>
        <time>2018-05-25T14:08:03Z</time>
      </trkpt>
      <trkpt lat="43.85841" lon="6.45223">
        <ele>1204</ele>
        <time>2018-05-25T14:08:16Z</time>
      </trkpt>
      <trkpt lat="43.85837" lon="6.45219">
        <ele>1206</ele>
        <time>2018-05-25T14:08:36Z</time>
      </trkpt>
      <trkpt lat="43.85836" lon="6.45225">
        <ele>1206</ele>
        <time>2018-05-25T14:09:10Z</time>
      </trkpt>
      <trkpt lat="43.85836" lon="6.45228">
        <ele>1205</ele>
        <time>2018-05-25T14:09:12Z</time>
      </trkpt>
      <trkpt lat="43.85837" lon="6.45228">
        <ele>1205</ele>
        <time>2018-05-25T14:09:24Z</time>
      </trkpt>
      <trkpt lat="43.85838" lon="6.45229">
        <ele>1204</ele>
        <time>2018-05-25T14:09:54Z</time>
      </trkpt>
      <trkpt lat="43.85836" lon="6.45229">
        <ele>1205</ele>
        <time>2018-05-25T14:10:23Z</time>
      </trkpt>
      <trkpt lat="43.8584" lon="6.45224">
        <ele>1205</ele>
        <time>2018-05-25T14:11:06Z</time>
      </trkpt>
      <trkpt lat="43.85839" lon="6.45225">
        <ele>1205</ele>
        <time>2018-05-25T14:11:50Z</time>
      </trkpt>
      <trkpt lat="43.85839" lon="6.45226">
        <ele>1204</ele>
        <time>2018-05-25T14:12:23Z</time>
      </trkpt>
      <trkpt lat="43.85842" lon="6.4523">
        <ele>1203</ele>
        <time>2018-05-25T14:13:04Z</time>
      </trkpt>
      <trkpt lat="43.85842" lon="6.45226">
        <ele>1204</ele>
        <time>2018-05-25T14:13:44Z</time>
      </trkpt>
      <trkpt lat="43.85839" lon="6.45225">
        <ele>1205</ele>
        <time>2018-05-25T14:14:32Z</time>
      </trkpt>
      <trkpt lat="43.85836" lon="6.45228">
        <ele>1205</ele>
        <time>2018-05-25T14:15:16Z</time>
      </trkpt>
      <trkpt lat="43.85838" lon="6.45224">
        <ele>1205</ele>
        <time>2018-05-25T14:15:59Z</time>
      </trkpt>
      <trkpt lat="43.85832" lon="6.45223">
        <ele>1207</ele>
        <time>2018-05-25T14:16:38Z</time>
      </trkpt>
      <trkpt lat="43.85837" lon="6.45229">
        <ele>1204</ele>
        <time>2018-05-25T14:17:22Z</time>
      </trkpt>
      <trkpt lat="43.85838" lon="6.45222">
        <ele>1205</ele>
        <time>2018-05-25T14:18:03Z</time>
      </trkpt>
      <trkpt lat="43.85837" lon="6.45226">
        <ele>1205</ele>
        <time>2018-05-25T14:18:28Z</time>
      </trkpt>
      <trkpt lat="43.85837" lon="6.45228">
        <ele>1205</ele>
        <time>2018-05-25T14:18:32Z</time>
      </trkpt>
      <trkpt lat="43.8583" lon="6.45254">
        <ele>1203</ele>
        <time>2018-05-25T14:18:45Z</time>
      </trkpt>
      <trkpt lat="43.85829" lon="6.4526">
        <ele>1203</ele>
        <time>2018-05-25T14:18:59Z</time>
      </trkpt>
      <trkpt lat="43.85829" lon="6.45262">
        <ele>1204</ele>
        <time>2018-05-25T14:19:04Z</time>
      </trkpt>
      <trkpt lat="43.85827" lon="6.45277">
        <ele>1204</ele>
        <time>2018-05-25T14:19:16Z</time>
      </trkpt>
      <trkpt lat="43.85826" lon="6.45318">
        <ele>1204</ele>
        <time>2018-05-25T14:19:29Z</time>
      </trkpt>
      <trkpt lat="43.85826" lon="6.45367">
        <ele>1204</ele>
        <time>2018-05-25T14:19:41Z</time>
      </trkpt>
      <trkpt lat="43.85825" lon="6.45374">
        <ele>1204</ele>
        <time>2018-05-25T14:19:44Z</time>
      </trkpt>
      <trkpt lat="43.85825" lon="6.45417">
        <ele>1206</ele>
        <time>2018-05-25T14:19:53Z</time>
      </trkpt>
      <trkpt lat="43.85826" lon="6.45423">
        <ele>1206</ele>
        <time>2018-05-25T14:19:54Z</time>
      </trkpt>
      <trkpt lat="43.85827" lon="6.45428">
        <ele>1206</ele>
        <time>2018-05-25T14:19:55Z</time>
      </trkpt>
      <trkpt lat="43.85829" lon="6.45433">
        <ele>1205</ele>
        <time>2018-05-25T14:19:56Z</time>
      </trkpt>
      <trkpt lat="43.85831" lon="6.45436">
        <ele>1205</ele>
        <time>2018-05-25T14:19:57Z</time>
      </trkpt>
      <trkpt lat="43.85834" lon="6.4544">
        <ele>1204</ele>
        <time>2018-05-25T14:19:58Z</time>
      </trkpt>
      <trkpt lat="43.85838" lon="6.45443">
        <ele>1203</ele>
        <time>2018-05-25T14:19:59Z</time>
      </trkpt>
      <trkpt lat="43.85841" lon="6.45447">
        <ele>1202</ele>
        <time>2018-05-25T14:20:00Z</time>
      </trkpt>
      <trkpt lat="43.85849" lon="6.45452">
        <ele>1200</ele>
        <time>2018-05-25T14:20:02Z</time>
      </trkpt>
      <trkpt lat="43.85867" lon="6.45467">
        <ele>1196</ele>
        <time>2018-05-25T14:20:06Z</time>
      </trkpt>
      <trkpt lat="43.85871" lon="6.45471">
        <ele>1194</ele>
        <time>2018-05-25T14:20:07Z</time>
      </trkpt>
      <trkpt lat="43.85874" lon="6.45476">
        <ele>1194</ele>
        <time>2018-05-25T14:20:08Z</time>
      </trkpt>
      <trkpt lat="43.85877" lon="6.45482">
        <ele>1193</ele>
        <time>2018-05-25T14:20:09Z</time>
      </trkpt>
      <trkpt lat="43.85878" lon="6.45489">
        <ele>1193</ele>
        <time>2018-05-25T14:20:10Z</time>
      </trkpt>
      <trkpt lat="43.85893" lon="6.45528">
        <ele>1192</ele>
        <time>2018-05-25T14:20:20Z</time>
      </trkpt>
      <trkpt lat="43.85898" lon="6.45532">
        <ele>1191</ele>
        <time>2018-05-25T14:20:34Z</time>
      </trkpt>
      <trkpt lat="43.85898" lon="6.45536">
        <ele>1191</ele>
        <time>2018-05-25T14:20:46Z</time>
      </trkpt>
      <trkpt lat="43.85898" lon="6.45539">
        <ele>1191</ele>
        <time>2018-05-25T14:21:04Z</time>
      </trkpt>
      <trkpt lat="43.85898" lon="6.45539">
        <ele>1191</ele>
        <time>2018-05-25T14:21:31Z</time>
      </trkpt>
      <trkpt lat="43.85897" lon="6.45547">
        <ele>1191</ele>
        <time>2018-05-25T14:21:48Z</time>
      </trkpt>
      <trkpt lat="43.85894" lon="6.45592">
        <ele>1192</ele>
        <time>2018-05-25T14:21:59Z</time>
      </trkpt>
      <trkpt lat="43.85904" lon="6.45623">
        <ele>1189</ele>
        <time>2018-05-25T14:22:09Z</time>
      </trkpt>
      <trkpt lat="43.85905" lon="6.45626">
        <ele>1188</ele>
        <time>2018-05-25T14:22:10Z</time>
      </trkpt>
      <trkpt lat="43.85905" lon="6.4563">
        <ele>1188</ele>
        <time>2018-05-25T14:22:11Z</time>
      </trkpt>
      <trkpt lat="43.85906" lon="6.45635">
        <ele>1188</ele>
        <time>2018-05-25T14:22:12Z</time>
      </trkpt>
      <trkpt lat="43.85906" lon="6.4564">
        <ele>1188</ele>
        <time>2018-05-25T14:22:13Z</time>
      </trkpt>
      <trkpt lat="43.85905" lon="6.45646">
        <ele>1187</ele>
        <time>2018-05-25T14:22:14Z</time>
      </trkpt>
      <trkpt lat="43.8591" lon="6.45705">
        <ele>1183</ele>
        <time>2018-05-25T14:22:26Z</time>
      </trkpt>
      <trkpt lat="43.85914" lon="6.45718">
        <ele>1183</ele>
        <time>2018-05-25T14:22:29Z</time>
      </trkpt>
      <trkpt lat="43.85917" lon="6.4572">
        <ele>1183</ele>
        <time>2018-05-25T14:22:30Z</time>
      </trkpt>
      <trkpt lat="43.8592" lon="6.45721">
        <ele>1182</ele>
        <time>2018-05-25T14:22:31Z</time>
      </trkpt>
      <trkpt lat="43.85924" lon="6.45722">
        <ele>1181</ele>
        <time>2018-05-25T14:22:32Z</time>
      </trkpt>
      <trkpt lat="43.85927" lon="6.45724">
        <ele>1180</ele>
        <time>2018-05-25T14:22:33Z</time>
      </trkpt>
      <trkpt lat="43.8593" lon="6.45725">
        <ele>1179</ele>
        <time>2018-05-25T14:22:34Z</time>
      </trkpt>
      <trkpt lat="43.85932" lon="6.45726">
        <ele>1179</ele>
        <time>2018-05-25T14:22:35Z</time>
      </trkpt>
      <trkpt lat="43.85939" lon="6.4573">
        <ele>1177</ele>
        <time>2018-05-25T14:22:48Z</time>
      </trkpt>
      <trkpt lat="43.8594" lon="6.45731">
        <ele>1177</ele>
        <time>2018-05-25T14:22:49Z</time>
      </trkpt>
      <trkpt lat="43.85942" lon="6.45732">
        <ele>1177</ele>
        <time>2018-05-25T14:22:50Z</time>
      </trkpt>
      <trkpt lat="43.85944" lon="6.45733">
        <ele>1176</ele>
        <time>2018-05-25T14:22:51Z</time>
      </trkpt>
      <trkpt lat="43.85945" lon="6.45735">
        <ele>1176</ele>
        <time>2018-05-25T14:22:52Z</time>
      </trkpt>
      <trkpt lat="43.85947" lon="6.45737">
        <ele>1176</ele>
        <time>2018-05-25T14:22:53Z</time>
      </trkpt>
      <trkpt lat="43.85949" lon="6.4574">
        <ele>1176</ele>
        <time>2018-05-25T14:22:54Z</time>
      </trkpt>
      <trkpt lat="43.8595" lon="6.45742">
        <ele>1175</ele>
        <time>2018-05-25T14:22:55Z</time>
      </trkpt>
      <trkpt lat="43.85962" lon="6.45782">
        <ele>1176</ele>
        <time>2018-05-25T14:23:03Z</time>
      </trkpt>
      <trkpt lat="43.85963" lon="6.45788">
        <ele>1175</ele>
        <time>2018-05-25T14:23:04Z</time>
      </trkpt>
      <trkpt lat="43.85966" lon="6.45839">
        <ele>1175</ele>
        <time>2018-05-25T14:23:14Z</time>
      </trkpt>
      <trkpt lat="43.85963" lon="6.45853">
        <ele>1175</ele>
        <time>2018-05-25T14:23:17Z</time>
      </trkpt>
      <trkpt lat="43.8594" lon="6.45912">
        <ele>1174</ele>
        <time>2018-05-25T14:23:29Z</time>
      </trkpt>
      <trkpt lat="43.85935" lon="6.45949">
        <ele>1169</ele>
        <time>2018-05-25T14:23:37Z</time>
      </trkpt>
      <trkpt lat="43.85937" lon="6.45953">
        <ele>1168</ele>
        <time>2018-05-25T14:23:38Z</time>
      </trkpt>
      <trkpt lat="43.8594" lon="6.45956">
        <ele>1168</ele>
        <time>2018-05-25T14:23:39Z</time>
      </trkpt>
      <trkpt lat="43.85946" lon="6.45959">
        <ele>1166</ele>
        <time>2018-05-25T14:23:41Z</time>
      </trkpt>
      <trkpt lat="43.85948" lon="6.4596">
        <ele>1165</ele>
        <time>2018-05-25T14:23:42Z</time>
      </trkpt>
      <trkpt lat="43.8595" lon="6.45962">
        <ele>1165</ele>
        <time>2018-05-25T14:23:43Z</time>
      </trkpt>
      <trkpt lat="43.85953" lon="6.45962">
        <ele>1164</ele>
        <time>2018-05-25T14:23:44Z</time>
      </trkpt>
      <trkpt lat="43.85957" lon="6.45963">
        <ele>1164</ele>
        <time>2018-05-25T14:23:45Z</time>
      </trkpt>
      <trkpt lat="43.8596" lon="6.45965">
        <ele>1163</ele>
        <time>2018-05-25T14:23:46Z</time>
      </trkpt>
      <trkpt lat="43.85963" lon="6.45966">
        <ele>1163</ele>
        <time>2018-05-25T14:23:47Z</time>
      </trkpt>
      <trkpt lat="43.85966" lon="6.45969">
        <ele>1162</ele>
        <time>2018-05-25T14:23:48Z</time>
      </trkpt>
      <trkpt lat="43.8597" lon="6.45974">
        <ele>1162</ele>
        <time>2018-05-25T14:23:49Z</time>
      </trkpt>
      <trkpt lat="43.85972" lon="6.45978">
        <ele>1162</ele>
        <time>2018-05-25T14:23:50Z</time>
      </trkpt>
      <trkpt lat="43.85974" lon="6.45983">
        <ele>1161</ele>
        <time>2018-05-25T14:23:51Z</time>
      </trkpt>
      <trkpt lat="43.85976" lon="6.45988">
        <ele>1161</ele>
        <time>2018-05-25T14:23:52Z</time>
      </trkpt>
      <trkpt lat="43.85978" lon="6.45993">
        <ele>1160</ele>
        <time>2018-05-25T14:23:53Z</time>
      </trkpt>
      <trkpt lat="43.85993" lon="6.4602">
        <ele>1158</ele>
        <time>2018-05-25T14:23:59Z</time>
      </trkpt>
      <trkpt lat="43.85997" lon="6.46022">
        <ele>1158</ele>
        <time>2018-05-25T14:24:00Z</time>
      </trkpt>
      <trkpt lat="43.86032" lon="6.46052">
        <ele>1153</ele>
        <time>2018-05-25T14:24:08Z</time>
      </trkpt>
      <trkpt lat="43.8606" lon="6.46078">
        <ele>1146</ele>
        <time>2018-05-25T14:24:18Z</time>
      </trkpt>
      <trkpt lat="43.86074" lon="6.46085">
        <ele>1143</ele>
        <time>2018-05-25T14:24:25Z</time>
      </trkpt>
      <trkpt lat="43.86075" lon="6.46087">
        <ele>1143</ele>
        <time>2018-05-25T14:24:26Z</time>
      </trkpt>
      <trkpt lat="43.86075" lon="6.46088">
        <ele>1143</ele>
        <time>2018-05-25T14:24:40Z</time>
      </trkpt>
      <trkpt lat="43.86072" lon="6.46089">
        <ele>1144</ele>
        <time>2018-05-25T14:24:53Z</time>
      </trkpt>
      <trkpt lat="43.86056" lon="6.4609">
        <ele>1147</ele>
        <time>2018-05-25T14:25:08Z</time>
      </trkpt>
      <trkpt lat="43.86057" lon="6.46088">
        <ele>1147</ele>
        <time>2018-05-25T14:25:14Z</time>
      </trkpt>
      <trkpt lat="43.86058" lon="6.46089">
        <ele>1146</ele>
        <time>2018-05-25T14:25:15Z</time>
      </trkpt>
      <trkpt lat="43.86077" lon="6.4609">
        <ele>1143</ele>
        <time>2018-05-25T14:25:24Z</time>
      </trkpt>
      <trkpt lat="43.86078" lon="6.4609">
        <ele>1143</ele>
        <time>2018-05-25T14:25:25Z</time>
      </trkpt>
      <trkpt lat="43.8608" lon="6.46089">
        <ele>1142</ele>
        <time>2018-05-25T14:25:26Z</time>
      </trkpt>
      <trkpt lat="43.8608" lon="6.46087">
        <ele>1142</ele>
        <time>2018-05-25T14:25:27Z</time>
      </trkpt>
      <trkpt lat="43.86079" lon="6.46086">
        <ele>1142</ele>
        <time>2018-05-25T14:25:28Z</time>
      </trkpt>
      <trkpt lat="43.86078" lon="6.46085">
        <ele>1143</ele>
        <time>2018-05-25T14:25:29Z</time>
      </trkpt>
      <trkpt lat="43.86076" lon="6.46085">
        <ele>1143</ele>
        <time>2018-05-25T14:25:30Z</time>
      </trkpt>
      <trkpt lat="43.86075" lon="6.46086">
        <ele>1143</ele>
        <time>2018-05-25T14:25:31Z</time>
      </trkpt>
      <trkpt lat="43.86073" lon="6.46087">
        <ele>1144</ele>
        <time>2018-05-25T14:25:32Z</time>
      </trkpt>
      <trkpt lat="43.86072" lon="6.46088">
        <ele>1144</ele>
        <time>2018-05-25T14:25:33Z</time>
      </trkpt>
      <trkpt lat="43.86062" lon="6.4609">
        <ele>1146</ele>
        <time>2018-05-25T14:25:39Z</time>
      </trkpt>
      <trkpt lat="43.86061" lon="6.46089">
        <ele>1146</ele>
        <time>2018-05-25T14:25:40Z</time>
      </trkpt>
      <trkpt lat="43.86037" lon="6.4609">
        <ele>1150</ele>
        <time>2018-05-25T14:25:55Z</time>
      </trkpt>
      <trkpt lat="43.86036" lon="6.46089">
        <ele>1151</ele>
        <time>2018-05-25T14:25:56Z</time>
      </trkpt>
      <trkpt lat="43.86034" lon="6.46089">
        <ele>1151</ele>
        <time>2018-05-25T14:25:57Z</time>
      </trkpt>
      <trkpt lat="43.86013" lon="6.46086">
        <ele>1155</ele>
        <time>2018-05-25T14:26:12Z</time>
      </trkpt>
      <trkpt lat="43.85992" lon="6.46086">
        <ele>1158</ele>
        <time>2018-05-25T14:26:26Z</time>
      </trkpt>
      <trkpt lat="43.85971" lon="6.46085">
        <ele>1161</ele>
        <time>2018-05-25T14:26:40Z</time>
      </trkpt>
      <trkpt lat="43.85953" lon="6.46096">
        <ele>1163</ele>
        <time>2018-05-25T14:26:54Z</time>
      </trkpt>
      <trkpt lat="43.85933" lon="6.46123">
        <ele>1163</ele>
        <time>2018-05-25T14:27:08Z</time>
      </trkpt>
      <trkpt lat="43.85904" lon="6.46142">
        <ele>1165</ele>
        <time>2018-05-25T14:27:21Z</time>
      </trkpt>
      <trkpt lat="43.85883" lon="6.4617">
        <ele>1167</ele>
        <time>2018-05-25T14:27:35Z</time>
      </trkpt>
      <trkpt lat="43.85877" lon="6.46181">
        <ele>1168</ele>
        <time>2018-05-25T14:27:41Z</time>
      </trkpt>
      <trkpt lat="43.85876" lon="6.46184">
        <ele>1168</ele>
        <time>2018-05-25T14:27:42Z</time>
      </trkpt>
      <trkpt lat="43.85868" lon="6.46198">
        <ele>1168</ele>
        <time>2018-05-25T14:27:52Z</time>
      </trkpt>
      <trkpt lat="43.85867" lon="6.462">
        <ele>1168</ele>
        <time>2018-05-25T14:27:53Z</time>
      </trkpt>
      <trkpt lat="43.85864" lon="6.46206">
        <ele>1169</ele>
        <time>2018-05-25T14:27:57Z</time>
      </trkpt>
      <trkpt lat="43.85855" lon="6.46216">
        <ele>1170</ele>
        <time>2018-05-25T14:28:06Z</time>
      </trkpt>
      <trkpt lat="43.85854" lon="6.46217">
        <ele>1170</ele>
        <time>2018-05-25T14:28:07Z</time>
      </trkpt>
      <trkpt lat="43.85853" lon="6.46218">
        <ele>1170</ele>
        <time>2018-05-25T14:28:08Z</time>
      </trkpt>
      <trkpt lat="43.85851" lon="6.46219">
        <ele>1170</ele>
        <time>2018-05-25T14:28:09Z</time>
      </trkpt>
      <trkpt lat="43.85844" lon="6.46219">
        <ele>1173</ele>
        <time>2018-05-25T14:28:20Z</time>
      </trkpt>
      <trkpt lat="43.85835" lon="6.46221">
        <ele>1177</ele>
        <time>2018-05-25T14:28:34Z</time>
      </trkpt>
      <trkpt lat="43.85827" lon="6.46226">
        <ele>1179</ele>
        <time>2018-05-25T14:28:49Z</time>
      </trkpt>
      <trkpt lat="43.85822" lon="6.4623">
        <ele>1180</ele>
        <time>2018-05-25T14:29:04Z</time>
      </trkpt>
      <trkpt lat="43.85819" lon="6.46233">
        <ele>1181</ele>
        <time>2018-05-25T14:29:20Z</time>
      </trkpt>
      <trkpt lat="43.85812" lon="6.46238">
        <ele>1183</ele>
        <time>2018-05-25T14:29:42Z</time>
      </trkpt>
      <trkpt lat="43.85805" lon="6.46256">
        <ele>1183</ele>
        <time>2018-05-25T14:29:59Z</time>
      </trkpt>
      <trkpt lat="43.85804" lon="6.4626">
        <ele>1183</ele>
        <time>2018-05-25T14:30:02Z</time>
      </trkpt>
      <trkpt lat="43.85799" lon="6.46278">
        <ele>1183</ele>
        <time>2018-05-25T14:30:16Z</time>
      </trkpt>
      <trkpt lat="43.85787" lon="6.46291">
        <ele>1185</ele>
        <time>2018-05-25T14:30:31Z</time>
      </trkpt>
      <trkpt lat="43.85777" lon="6.46299">
        <ele>1188</ele>
        <time>2018-05-25T14:30:46Z</time>
      </trkpt>
      <trkpt lat="43.85762" lon="6.46307">
        <ele>1191</ele>
        <time>2018-05-25T14:31:02Z</time>
      </trkpt>
      <trkpt lat="43.85746" lon="6.46312">
        <ele>1195</ele>
        <time>2018-05-25T14:31:19Z</time>
      </trkpt>
      <trkpt lat="43.85734" lon="6.46322">
        <ele>1197</ele>
        <time>2018-05-25T14:31:36Z</time>
      </trkpt>
      <trkpt lat="43.85722" lon="6.46338">
        <ele>1197</ele>
        <time>2018-05-25T14:31:54Z</time>
      </trkpt>
      <trkpt lat="43.85713" lon="6.46347">
        <ele>1198</ele>
        <time>2018-05-25T14:32:09Z</time>
      </trkpt>
      <trkpt lat="43.85706" lon="6.46356">
        <ele>1199</ele>
        <time>2018-05-25T14:32:25Z</time>
      </trkpt>
      <trkpt lat="43.85697" lon="6.46365">
        <ele>1200</ele>
        <time>2018-05-25T14:32:41Z</time>
      </trkpt>
      <trkpt lat="43.85686" lon="6.46375">
        <ele>1201</ele>
        <time>2018-05-25T14:32:58Z</time>
      </trkpt>
      <trkpt lat="43.85676" lon="6.46382">
        <ele>1203</ele>
        <time>2018-05-25T14:33:13Z</time>
      </trkpt>
      <trkpt lat="43.85662" lon="6.46388">
        <ele>1206</ele>
        <time>2018-05-25T14:33:29Z</time>
      </trkpt>
      <trkpt lat="43.85656" lon="6.46396">
        <ele>1206</ele>
        <time>2018-05-25T14:33:44Z</time>
      </trkpt>
      <trkpt lat="43.85651" lon="6.46401">
        <ele>1206</ele>
        <time>2018-05-25T14:34:15Z</time>
      </trkpt>
      <trkpt lat="43.85647" lon="6.46411">
        <ele>1205</ele>
        <time>2018-05-25T14:34:28Z</time>
      </trkpt>
      <trkpt lat="43.85614" lon="6.46431">
        <ele>1210</ele>
        <time>2018-05-25T14:34:42Z</time>
      </trkpt>
      <trkpt lat="43.85596" lon="6.46439">
        <ele>1213</ele>
        <time>2018-05-25T14:34:47Z</time>
      </trkpt>
      <trkpt lat="43.85571" lon="6.4646">
        <ele>1215</ele>
        <time>2018-05-25T14:34:57Z</time>
      </trkpt>
      <trkpt lat="43.85564" lon="6.4647">
        <ele>1215</ele>
        <time>2018-05-25T14:35:07Z</time>
      </trkpt>
      <trkpt lat="43.85562" lon="6.4647">
        <ele>1215</ele>
        <time>2018-05-25T14:35:36Z</time>
      </trkpt>
      <trkpt lat="43.85561" lon="6.46472">
        <ele>1215</ele>
        <time>2018-05-25T14:36:12Z</time>
      </trkpt>
      <trkpt lat="43.85562" lon="6.46476">
        <ele>1214</ele>
        <time>2018-05-25T14:36:39Z</time>
      </trkpt>
      <trkpt lat="43.85559" lon="6.46474">
        <ele>1215</ele>
        <time>2018-05-25T14:36:55Z</time>
      </trkpt>
      <trkpt lat="43.85559" lon="6.4647">
        <ele>1216</ele>
        <time>2018-05-25T14:37:40Z</time>
      </trkpt>
      <trkpt lat="43.85559" lon="6.46474">
        <ele>1215</ele>
        <time>2018-05-25T14:38:14Z</time>
      </trkpt>
      <trkpt lat="43.85557" lon="6.46466">
        <ele>1217</ele>
        <time>2018-05-25T14:38:48Z</time>
      </trkpt>
      <trkpt lat="43.85556" lon="6.46471">
        <ele>1216</ele>
        <time>2018-05-25T14:39:19Z</time>
      </trkpt>
      <trkpt lat="43.85556" lon="6.46468">
        <ele>1217</ele>
        <time>2018-05-25T14:39:58Z</time>
      </trkpt>
      <trkpt lat="43.85556" lon="6.46473">
        <ele>1216</ele>
        <time>2018-05-25T14:40:22Z</time>
      </trkpt>
      <trkpt lat="43.85558" lon="6.46477">
        <ele>1215</ele>
        <time>2018-05-25T14:40:48Z</time>
      </trkpt>
      <trkpt lat="43.85546" lon="6.46489">
        <ele>1214</ele>
        <time>2018-05-25T14:41:03Z</time>
      </trkpt>
      <trkpt lat="43.85525" lon="6.465">
        <ele>1216</ele>
        <time>2018-05-25T14:41:18Z</time>
      </trkpt>
      <trkpt lat="43.8551" lon="6.46504">
        <ele>1218</ele>
        <time>2018-05-25T14:41:28Z</time>
      </trkpt>
      <trkpt lat="43.85491" lon="6.46512">
        <ele>1220</ele>
        <time>2018-05-25T14:41:44Z</time>
      </trkpt>
      <trkpt lat="43.85482" lon="6.46516">
        <ele>1221</ele>
        <time>2018-05-25T14:41:53Z</time>
      </trkpt>
      <trkpt lat="43.85481" lon="6.46517">
        <ele>1221</ele>
        <time>2018-05-25T14:41:54Z</time>
      </trkpt>
      <trkpt lat="43.85479" lon="6.46518">
        <ele>1221</ele>
        <time>2018-05-25T14:41:55Z</time>
      </trkpt>
      <trkpt lat="43.85476" lon="6.4652">
        <ele>1222</ele>
        <time>2018-05-25T14:41:58Z</time>
      </trkpt>
      <trkpt lat="43.85474" lon="6.46521">
        <ele>1222</ele>
        <time>2018-05-25T14:41:59Z</time>
      </trkpt>
      <trkpt lat="43.8547" lon="6.46526">
        <ele>1222</ele>
        <time>2018-05-25T14:42:03Z</time>
      </trkpt>
      <trkpt lat="43.85469" lon="6.46527">
        <ele>1222</ele>
        <time>2018-05-25T14:42:04Z</time>
      </trkpt>
      <trkpt lat="43.85455" lon="6.46545">
        <ele>1223</ele>
        <time>2018-05-25T14:42:19Z</time>
      </trkpt>
      <trkpt lat="43.85447" lon="6.46554">
        <ele>1224</ele>
        <time>2018-05-25T14:42:31Z</time>
      </trkpt>
      <trkpt lat="43.85438" lon="6.46567">
        <ele>1225</ele>
        <time>2018-05-25T14:42:46Z</time>
      </trkpt>
      <trkpt lat="43.8543" lon="6.46579">
        <ele>1225</ele>
        <time>2018-05-25T14:42:59Z</time>
      </trkpt>
      <trkpt lat="43.8542" lon="6.46588">
        <ele>1226</ele>
        <time>2018-05-25T14:43:14Z</time>
      </trkpt>
      <trkpt lat="43.85416" lon="6.46592">
        <ele>1226</ele>
        <time>2018-05-25T14:43:19Z</time>
      </trkpt>
      <trkpt lat="43.85399" lon="6.46601">
        <ele>1229</ele>
        <time>2018-05-25T14:43:37Z</time>
      </trkpt>
      <trkpt lat="43.85384" lon="6.46611">
        <ele>1231</ele>
        <time>2018-05-25T14:43:52Z</time>
      </trkpt>
      <trkpt lat="43.85369" lon="6.46619">
        <ele>1235</ele>
        <time>2018-05-25T14:44:10Z</time>
      </trkpt>
      <trkpt lat="43.85356" lon="6.46631">
        <ele>1235</ele>
        <time>2018-05-25T14:44:27Z</time>
      </trkpt>
      <trkpt lat="43.85349" lon="6.46639">
        <ele>1233</ele>
        <time>2018-05-25T14:44:45Z</time>
      </trkpt>
      <trkpt lat="43.85345" lon="6.46646">
        <ele>1232</ele>
        <time>2018-05-25T14:44:59Z</time>
      </trkpt>
      <trkpt lat="43.85343" lon="6.46649">
        <ele>1231</ele>
        <time>2018-05-25T14:45:01Z</time>
      </trkpt>
      <trkpt lat="43.85342" lon="6.4665">
        <ele>1230</ele>
        <time>2018-05-25T14:45:02Z</time>
      </trkpt>
      <trkpt lat="43.85342" lon="6.46653">
        <ele>1229</ele>
        <time>2018-05-25T14:45:18Z</time>
      </trkpt>
      <trkpt lat="43.85343" lon="6.46651">
        <ele>1230</ele>
        <time>2018-05-25T14:45:40Z</time>
      </trkpt>
      <trkpt lat="43.85338" lon="6.46655">
        <ele>1229</ele>
        <time>2018-05-25T14:46:03Z</time>
      </trkpt>
      <trkpt lat="43.85322" lon="6.46669">
        <ele>1228</ele>
        <time>2018-05-25T14:46:19Z</time>
      </trkpt>
      <trkpt lat="43.85303" lon="6.46685">
        <ele>1225</ele>
        <time>2018-05-25T14:46:30Z</time>
      </trkpt>
      <trkpt lat="43.85277" lon="6.46713">
        <ele>1216</ele>
        <time>2018-05-25T14:46:46Z</time>
      </trkpt>
      <trkpt lat="43.85271" lon="6.4672">
        <ele>1214</ele>
        <time>2018-05-25T14:46:59Z</time>
      </trkpt>
      <trkpt lat="43.85262" lon="6.4673">
        <ele>1211</ele>
        <time>2018-05-25T14:47:16Z</time>
      </trkpt>
      <trkpt lat="43.85256" lon="6.4674">
        <ele>1209</ele>
        <time>2018-05-25T14:47:30Z</time>
      </trkpt>
      <trkpt lat="43.85247" lon="6.46755">
        <ele>1205</ele>
        <time>2018-05-25T14:47:47Z</time>
      </trkpt>
      <trkpt lat="43.85236" lon="6.46765">
        <ele>1203</ele>
        <time>2018-05-25T14:48:00Z</time>
      </trkpt>
      <trkpt lat="43.85225" lon="6.46775">
        <ele>1200</ele>
        <time>2018-05-25T14:48:18Z</time>
      </trkpt>
      <trkpt lat="43.85225" lon="6.46781">
        <ele>1197</ele>
        <time>2018-05-25T14:48:32Z</time>
      </trkpt>
      <trkpt lat="43.85227" lon="6.46791">
        <ele>1191</ele>
        <time>2018-05-25T14:48:49Z</time>
      </trkpt>
      <trkpt lat="43.85222" lon="6.46801">
        <ele>1188</ele>
        <time>2018-05-25T14:49:05Z</time>
      </trkpt>
      <trkpt lat="43.85213" lon="6.46809">
        <ele>1187</ele>
        <time>2018-05-25T14:49:21Z</time>
      </trkpt>
      <trkpt lat="43.85201" lon="6.46815">
        <ele>1188</ele>
        <time>2018-05-25T14:49:39Z</time>
      </trkpt>
      <trkpt lat="43.85191" lon="6.46819">
        <ele>1188</ele>
        <time>2018-05-25T14:49:54Z</time>
      </trkpt>
      <trkpt lat="43.85188" lon="6.46821">
        <ele>1188</ele>
        <time>2018-05-25T14:50:02Z</time>
      </trkpt>
      <trkpt lat="43.85184" lon="6.46825">
        <ele>1187</ele>
        <time>2018-05-25T14:50:15Z</time>
      </trkpt>
      <trkpt lat="43.8517" lon="6.46833">
        <ele>1187</ele>
        <time>2018-05-25T14:50:31Z</time>
      </trkpt>
      <trkpt lat="43.85153" lon="6.46847">
        <ele>1186</ele>
        <time>2018-05-25T14:50:43Z</time>
      </trkpt>
      <trkpt lat="43.85144" lon="6.46852">
        <ele>1184</ele>
        <time>2018-05-25T14:50:54Z</time>
      </trkpt>
      <trkpt lat="43.85142" lon="6.46859">
        <ele>1182</ele>
        <time>2018-05-25T14:51:01Z</time>
      </trkpt>
      <trkpt lat="43.85155" lon="6.46878">
        <ele>1176</ele>
        <time>2018-05-25T14:51:13Z</time>
      </trkpt>
      <trkpt lat="43.85158" lon="6.46891">
        <ele>1170</ele>
        <time>2018-05-25T14:51:27Z</time>
      </trkpt>
      <trkpt lat="43.85157" lon="6.46905">
        <ele>1165</ele>
        <time>2018-05-25T14:51:43Z</time>
      </trkpt>
      <trkpt lat="43.85157" lon="6.46906">
        <ele>1165</ele>
        <time>2018-05-25T14:51:46Z</time>
      </trkpt>
      <trkpt lat="43.8514" lon="6.46936">
        <ele>1156</ele>
        <time>2018-05-25T14:52:00Z</time>
      </trkpt>
      <trkpt lat="43.85134" lon="6.46969">
        <ele>1147</ele>
        <time>2018-05-25T14:52:13Z</time>
      </trkpt>
      <trkpt lat="43.85132" lon="6.46981">
        <ele>1145</ele>
        <time>2018-05-25T14:52:25Z</time>
      </trkpt>
      <trkpt lat="43.85132" lon="6.46982">
        <ele>1144</ele>
        <time>2018-05-25T14:52:26Z</time>
      </trkpt>
      <trkpt lat="43.85133" lon="6.46988">
        <ele>1143</ele>
        <time>2018-05-25T14:52:29Z</time>
      </trkpt>
      <trkpt lat="43.85132" lon="6.46991">
        <ele>1142</ele>
        <time>2018-05-25T14:52:30Z</time>
      </trkpt>
      <trkpt lat="43.85132" lon="6.46994">
        <ele>1142</ele>
        <time>2018-05-25T14:52:31Z</time>
      </trkpt>
      <trkpt lat="43.85129" lon="6.47011">
        <ele>1138</ele>
        <time>2018-05-25T14:52:37Z</time>
      </trkpt>
      <trkpt lat="43.85128" lon="6.47013">
        <ele>1138</ele>
        <time>2018-05-25T14:52:38Z</time>
      </trkpt>
      <trkpt lat="43.85122" lon="6.47022">
        <ele>1138</ele>
        <time>2018-05-25T14:52:51Z</time>
      </trkpt>
      <trkpt lat="43.8512" lon="6.47024">
        <ele>1138</ele>
        <time>2018-05-25T14:53:22Z</time>
      </trkpt>
      <trkpt lat="43.8512" lon="6.47025">
        <ele>1138</ele>
        <time>2018-05-25T14:53:52Z</time>
      </trkpt>
      <trkpt lat="43.85119" lon="6.47026">
        <ele>1138</ele>
        <time>2018-05-25T14:54:11Z</time>
      </trkpt>
      <trkpt lat="43.85117" lon="6.47024">
        <ele>1139</ele>
        <time>2018-05-25T14:54:39Z</time>
      </trkpt>
      <trkpt lat="43.8511" lon="6.47036">
        <ele>1139</ele>
        <time>2018-05-25T14:54:50Z</time>
      </trkpt>
      <trkpt lat="43.85109" lon="6.47038">
        <ele>1138</ele>
        <time>2018-05-25T14:54:51Z</time>
      </trkpt>
      <trkpt lat="43.85108" lon="6.4704">
        <ele>1138</ele>
        <time>2018-05-25T14:54:52Z</time>
      </trkpt>
      <trkpt lat="43.85107" lon="6.47042">
        <ele>1138</ele>
        <time>2018-05-25T14:54:53Z</time>
      </trkpt>
      <trkpt lat="43.85106" lon="6.47044">
        <ele>1138</ele>
        <time>2018-05-25T14:54:54Z</time>
      </trkpt>
      <trkpt lat="43.85105" lon="6.47045">
        <ele>1138</ele>
        <time>2018-05-25T14:54:55Z</time>
      </trkpt>
      <trkpt lat="43.85104" lon="6.47047">
        <ele>1138</ele>
        <time>2018-05-25T14:54:56Z</time>
      </trkpt>
      <trkpt lat="43.85102" lon="6.47048">
        <ele>1139</ele>
        <time>2018-05-25T14:54:57Z</time>
      </trkpt>
      <trkpt lat="43.851" lon="6.47049">
        <ele>1139</ele>
        <time>2018-05-25T14:54:58Z</time>
      </trkpt>
      <trkpt lat="43.85098" lon="6.47051">
        <ele>1139</ele>
        <time>2018-05-25T14:54:59Z</time>
      </trkpt>
      <trkpt lat="43.85097" lon="6.47052">
        <ele>1139</ele>
        <time>2018-05-25T14:55:00Z</time>
      </trkpt>
      <trkpt lat="43.85095" lon="6.47054">
        <ele>1138</ele>
        <time>2018-05-25T14:55:01Z</time>
      </trkpt>
      <trkpt lat="43.85093" lon="6.47055">
        <ele>1138</ele>
        <time>2018-05-25T14:55:02Z</time>
      </trkpt>
      <trkpt lat="43.85091" lon="6.47057">
        <ele>1137</ele>
        <time>2018-05-25T14:55:03Z</time>
      </trkpt>
      <trkpt lat="43.85089" lon="6.47059">
        <ele>1137</ele>
        <time>2018-05-25T14:55:04Z</time>
      </trkpt>
      <trkpt lat="43.85086" lon="6.47062">
        <ele>1136</ele>
        <time>2018-05-25T14:55:05Z</time>
      </trkpt>
      <trkpt lat="43.85064" lon="6.47089">
        <ele>1130</ele>
        <time>2018-05-25T14:55:18Z</time>
      </trkpt>
      <trkpt lat="43.85043" lon="6.47111">
        <ele>1124</ele>
        <time>2018-05-25T14:55:29Z</time>
      </trkpt>
      <trkpt lat="43.85041" lon="6.47114">
        <ele>1124</ele>
        <time>2018-05-25T14:55:31Z</time>
      </trkpt>
      <trkpt lat="43.85039" lon="6.47118">
        <ele>1123</ele>
        <time>2018-05-25T14:55:36Z</time>
      </trkpt>
      <trkpt lat="43.85038" lon="6.47119">
        <ele>1122</ele>
        <time>2018-05-25T14:55:37Z</time>
      </trkpt>
      <trkpt lat="43.85036" lon="6.47123">
        <ele>1121</ele>
        <time>2018-05-25T14:55:41Z</time>
      </trkpt>
      <trkpt lat="43.85035" lon="6.47125">
        <ele>1121</ele>
        <time>2018-05-25T14:55:42Z</time>
      </trkpt>
      <trkpt lat="43.85031" lon="6.47138">
        <ele>1120</ele>
        <time>2018-05-25T14:55:48Z</time>
      </trkpt>
      <trkpt lat="43.8503" lon="6.4714">
        <ele>1119</ele>
        <time>2018-05-25T14:55:49Z</time>
      </trkpt>
      <trkpt lat="43.85029" lon="6.47142">
        <ele>1119</ele>
        <time>2018-05-25T14:55:50Z</time>
      </trkpt>
      <trkpt lat="43.85028" lon="6.47144">
        <ele>1119</ele>
        <time>2018-05-25T14:55:51Z</time>
      </trkpt>
      <trkpt lat="43.85027" lon="6.47146">
        <ele>1118</ele>
        <time>2018-05-25T14:55:52Z</time>
      </trkpt>
      <trkpt lat="43.85026" lon="6.47148">
        <ele>1118</ele>
        <time>2018-05-25T14:55:53Z</time>
      </trkpt>
      <trkpt lat="43.85024" lon="6.47151">
        <ele>1118</ele>
        <time>2018-05-25T14:55:54Z</time>
      </trkpt>
      <trkpt lat="43.85012" lon="6.47179">
        <ele>1113</ele>
        <time>2018-05-25T14:56:04Z</time>
      </trkpt>
      <trkpt lat="43.84995" lon="6.47214">
        <ele>1107</ele>
        <time>2018-05-25T14:56:14Z</time>
      </trkpt>
      <trkpt lat="43.84988" lon="6.4723">
        <ele>1104</ele>
        <time>2018-05-25T14:56:23Z</time>
      </trkpt>
      <trkpt lat="43.84986" lon="6.47232">
        <ele>1103</ele>
        <time>2018-05-25T14:56:24Z</time>
      </trkpt>
      <trkpt lat="43.84985" lon="6.47234">
        <ele>1103</ele>
        <time>2018-05-25T14:56:25Z</time>
      </trkpt>
      <trkpt lat="43.84983" lon="6.47236">
        <ele>1102</ele>
        <time>2018-05-25T14:56:26Z</time>
      </trkpt>
      <trkpt lat="43.84981" lon="6.47238">
        <ele>1102</ele>
        <time>2018-05-25T14:56:27Z</time>
      </trkpt>
      <trkpt lat="43.84979" lon="6.47241">
        <ele>1101</ele>
        <time>2018-05-25T14:56:28Z</time>
      </trkpt>
      <trkpt lat="43.84947" lon="6.47266">
        <ele>1094</ele>
        <time>2018-05-25T14:56:43Z</time>
      </trkpt>
      <trkpt lat="43.84946" lon="6.47268">
        <ele>1093</ele>
        <time>2018-05-25T14:56:44Z</time>
      </trkpt>
      <trkpt lat="43.84947" lon="6.4727">
        <ele>1093</ele>
        <time>2018-05-25T14:56:45Z</time>
      </trkpt>
      <trkpt lat="43.84947" lon="6.47272">
        <ele>1093</ele>
        <time>2018-05-25T14:56:46Z</time>
      </trkpt>
      <trkpt lat="43.84949" lon="6.47278">
        <ele>1092</ele>
        <time>2018-05-25T14:56:58Z</time>
      </trkpt>
      <trkpt lat="43.84952" lon="6.47285">
        <ele>1091</ele>
        <time>2018-05-25T14:57:13Z</time>
      </trkpt>
      <trkpt lat="43.84951" lon="6.47283">
        <ele>1091</ele>
        <time>2018-05-25T14:57:41Z</time>
      </trkpt>
      <trkpt lat="43.8495" lon="6.47287">
        <ele>1090</ele>
        <time>2018-05-25T14:58:05Z</time>
      </trkpt>
      <trkpt lat="43.84949" lon="6.47284">
        <ele>1091</ele>
        <time>2018-05-25T14:58:32Z</time>
      </trkpt>
      <trkpt lat="43.84949" lon="6.47285">
        <ele>1091</ele>
        <time>2018-05-25T14:59:00Z</time>
      </trkpt>
      <trkpt lat="43.84949" lon="6.47288">
        <ele>1090</ele>
        <time>2018-05-25T14:59:24Z</time>
      </trkpt>
      <trkpt lat="43.84963" lon="6.47299">
        <ele>1090</ele>
        <time>2018-05-25T14:59:42Z</time>
      </trkpt>
      <trkpt lat="43.84985" lon="6.4734">
        <ele>1089</ele>
        <time>2018-05-25T14:59:55Z</time>
      </trkpt>
      <trkpt lat="43.84989" lon="6.47354">
        <ele>1089</ele>
        <time>2018-05-25T14:59:59Z</time>
      </trkpt>
      <trkpt lat="43.84989" lon="6.47358">
        <ele>1088</ele>
        <time>2018-05-25T15:00:00Z</time>
      </trkpt>
      <trkpt lat="43.84987" lon="6.47361">
        <ele>1087</ele>
        <time>2018-05-25T15:00:01Z</time>
      </trkpt>
      <trkpt lat="43.84985" lon="6.47363">
        <ele>1087</ele>
        <time>2018-05-25T15:00:02Z</time>
      </trkpt>
      <trkpt lat="43.84982" lon="6.47363">
        <ele>1086</ele>
        <time>2018-05-25T15:00:03Z</time>
      </trkpt>
      <trkpt lat="43.84979" lon="6.47363">
        <ele>1085</ele>
        <time>2018-05-25T15:00:04Z</time>
      </trkpt>
      <trkpt lat="43.84975" lon="6.47361">
        <ele>1084</ele>
        <time>2018-05-25T15:00:05Z</time>
      </trkpt>
      <trkpt lat="43.84972" lon="6.47359">
        <ele>1083</ele>
        <time>2018-05-25T15:00:06Z</time>
      </trkpt>
      <trkpt lat="43.84955" lon="6.4735">
        <ele>1080</ele>
        <time>2018-05-25T15:00:16Z</time>
      </trkpt>
      <trkpt lat="43.84952" lon="6.47351">
        <ele>1078</ele>
        <time>2018-05-25T15:00:38Z</time>
      </trkpt>
      <trkpt lat="43.84949" lon="6.47349">
        <ele>1079</ele>
        <time>2018-05-25T15:00:57Z</time>
      </trkpt>
      <trkpt lat="43.84949" lon="6.47352">
        <ele>1078</ele>
        <time>2018-05-25T15:00:59Z</time>
      </trkpt>
      <trkpt lat="43.84949" lon="6.47355">
        <ele>1078</ele>
        <time>2018-05-25T15:01:00Z</time>
      </trkpt>
      <trkpt lat="43.84949" lon="6.47356">
        <ele>1077</ele>
        <time>2018-05-25T15:01:01Z</time>
      </trkpt>
      <trkpt lat="43.84946" lon="6.47379">
        <ele>1073</ele>
        <time>2018-05-25T15:01:12Z</time>
      </trkpt>
      <trkpt lat="43.84942" lon="6.47381">
        <ele>1073</ele>
        <time>2018-05-25T15:01:19Z</time>
      </trkpt>
      <trkpt lat="43.84937" lon="6.47384">
        <ele>1072</ele>
        <time>2018-05-25T15:01:26Z</time>
      </trkpt>
      <trkpt lat="43.84935" lon="6.47385">
        <ele>1072</ele>
        <time>2018-05-25T15:01:27Z</time>
      </trkpt>
      <trkpt lat="43.84934" lon="6.47386">
        <ele>1072</ele>
        <time>2018-05-25T15:01:28Z</time>
      </trkpt>
      <trkpt lat="43.8493" lon="6.47395">
        <ele>1070</ele>
        <time>2018-05-25T15:01:40Z</time>
      </trkpt>
      <trkpt lat="43.84928" lon="6.47397">
        <ele>1070</ele>
        <time>2018-05-25T15:01:43Z</time>
      </trkpt>
      <trkpt lat="43.8492" lon="6.47413">
        <ele>1067</ele>
        <time>2018-05-25T15:02:00Z</time>
      </trkpt>
      <trkpt lat="43.84914" lon="6.47427">
        <ele>1064</ele>
        <time>2018-05-25T15:02:15Z</time>
      </trkpt>
      <trkpt lat="43.84913" lon="6.47447">
        <ele>1061</ele>
        <time>2018-05-25T15:02:29Z</time>
      </trkpt>
      <trkpt lat="43.84912" lon="6.47462">
        <ele>1059</ele>
        <time>2018-05-25T15:02:43Z</time>
      </trkpt>
      <trkpt lat="43.84912" lon="6.47466">
        <ele>1059</ele>
        <time>2018-05-25T15:02:46Z</time>
      </trkpt>
      <trkpt lat="43.84911" lon="6.47482">
        <ele>1056</ele>
        <time>2018-05-25T15:02:56Z</time>
      </trkpt>
      <trkpt lat="43.8491" lon="6.475">
        <ele>1053</ele>
        <time>2018-05-25T15:03:09Z</time>
      </trkpt>
      <trkpt lat="43.84906" lon="6.47518">
        <ele>1050</ele>
        <time>2018-05-25T15:03:22Z</time>
      </trkpt>
      <trkpt lat="43.84905" lon="6.47526">
        <ele>1048</ele>
        <time>2018-05-25T15:03:26Z</time>
      </trkpt>
      <trkpt lat="43.84899" lon="6.47543">
        <ele>1044</ele>
        <time>2018-05-25T15:03:40Z</time>
      </trkpt>
      <trkpt lat="43.84898" lon="6.47555">
        <ele>1042</ele>
        <time>2018-05-25T15:03:49Z</time>
      </trkpt>
      <trkpt lat="43.84898" lon="6.47558">
        <ele>1042</ele>
        <time>2018-05-25T15:03:50Z</time>
      </trkpt>
      <trkpt lat="43.84889" lon="6.47581">
        <ele>1041</ele>
        <time>2018-05-25T15:04:00Z</time>
      </trkpt>
      <trkpt lat="43.84886" lon="6.47587">
        <ele>1040</ele>
        <time>2018-05-25T15:04:05Z</time>
      </trkpt>
      <trkpt lat="43.84886" lon="6.47589">
        <ele>1040</ele>
        <time>2018-05-25T15:04:06Z</time>
      </trkpt>
      <trkpt lat="43.84884" lon="6.476">
        <ele>1039</ele>
        <time>2018-05-25T15:04:11Z</time>
      </trkpt>
      <trkpt lat="43.8488" lon="6.47608">
        <ele>1038</ele>
        <time>2018-05-25T15:04:16Z</time>
      </trkpt>
      <trkpt lat="43.8488" lon="6.4761">
        <ele>1038</ele>
        <time>2018-05-25T15:04:17Z</time>
      </trkpt>
      <trkpt lat="43.84879" lon="6.47612">
        <ele>1038</ele>
        <time>2018-05-25T15:04:18Z</time>
      </trkpt>
      <trkpt lat="43.84879" lon="6.47614">
        <ele>1038</ele>
        <time>2018-05-25T15:04:19Z</time>
      </trkpt>
      <trkpt lat="43.8487" lon="6.47639">
        <ele>1034</ele>
        <time>2018-05-25T15:04:31Z</time>
      </trkpt>
      <trkpt lat="43.84869" lon="6.47641">
        <ele>1034</ele>
        <time>2018-05-25T15:04:32Z</time>
      </trkpt>
      <trkpt lat="43.84863" lon="6.47663">
        <ele>1031</ele>
        <time>2018-05-25T15:04:43Z</time>
      </trkpt>
      <trkpt lat="43.84853" lon="6.47688">
        <ele>1025</ele>
        <time>2018-05-25T15:04:52Z</time>
      </trkpt>
      <trkpt lat="43.8484" lon="6.4772">
        <ele>1018</ele>
        <time>2018-05-25T15:05:04Z</time>
      </trkpt>
      <trkpt lat="43.8484" lon="6.47723">
        <ele>1018</ele>
        <time>2018-05-25T15:05:05Z</time>
      </trkpt>
      <trkpt lat="43.84835" lon="6.47755">
        <ele>1013</ele>
        <time>2018-05-25T15:05:15Z</time>
      </trkpt>
      <trkpt lat="43.84827" lon="6.4778">
        <ele>1010</ele>
        <time>2018-05-25T15:05:25Z</time>
      </trkpt>
      <trkpt lat="43.84826" lon="6.47786">
        <ele>1009</ele>
        <time>2018-05-25T15:05:28Z</time>
      </trkpt>
      <trkpt lat="43.84826" lon="6.4779">
        <ele>1008</ele>
        <time>2018-05-25T15:05:29Z</time>
      </trkpt>
      <trkpt lat="43.84826" lon="6.47793">
        <ele>1007</ele>
        <time>2018-05-25T15:05:30Z</time>
      </trkpt>
      <trkpt lat="43.84826" lon="6.47795">
        <ele>1007</ele>
        <time>2018-05-25T15:05:31Z</time>
      </trkpt>
      <trkpt lat="43.84824" lon="6.47798">
        <ele>1007</ele>
        <time>2018-05-25T15:05:32Z</time>
      </trkpt>
      <trkpt lat="43.84823" lon="6.478">
        <ele>1007</ele>
        <time>2018-05-25T15:05:33Z</time>
      </trkpt>
      <trkpt lat="43.84816" lon="6.4781">
        <ele>1005</ele>
        <time>2018-05-25T15:05:46Z</time>
      </trkpt>
      <trkpt lat="43.84815" lon="6.47812">
        <ele>1005</ele>
        <time>2018-05-25T15:06:14Z</time>
      </trkpt>
      <trkpt lat="43.84818" lon="6.47816">
        <ele>1004</ele>
        <time>2018-05-25T15:06:43Z</time>
      </trkpt>
      <trkpt lat="43.84815" lon="6.47812">
        <ele>1005</ele>
        <time>2018-05-25T15:07:08Z</time>
      </trkpt>
      <trkpt lat="43.84813" lon="6.47812">
        <ele>1005</ele>
        <time>2018-05-25T15:07:39Z</time>
      </trkpt>
      <trkpt lat="43.84814" lon="6.47814">
        <ele>1005</ele>
        <time>2018-05-25T15:08:17Z</time>
      </trkpt>
      <trkpt lat="43.84814" lon="6.47815">
        <ele>1005</ele>
        <time>2018-05-25T15:08:47Z</time>
      </trkpt>
      <trkpt lat="43.84815" lon="6.47817">
        <ele>1004</ele>
        <time>2018-05-25T15:09:20Z</time>
      </trkpt>
      <trkpt lat="43.84817" lon="6.47818">
        <ele>1004</ele>
        <time>2018-05-25T15:09:44Z</time>
      </trkpt>
      <trkpt lat="43.84816" lon="6.4781">
        <ele>1005</ele>
        <time>2018-05-25T15:10:24Z</time>
      </trkpt>
      <trkpt lat="43.84821" lon="6.47817">
        <ele>1004</ele>
        <time>2018-05-25T15:11:00Z</time>
      </trkpt>
      <trkpt lat="43.84818" lon="6.47815">
        <ele>1005</ele>
        <time>2018-05-25T15:11:40Z</time>
      </trkpt>
      <trkpt lat="43.84821" lon="6.47815">
        <ele>1004</ele>
        <time>2018-05-25T15:12:16Z</time>
      </trkpt>
      <trkpt lat="43.84816" lon="6.47809">
        <ele>1006</ele>
        <time>2018-05-25T15:12:51Z</time>
      </trkpt>
      <trkpt lat="43.84809" lon="6.47801">
        <ele>1007</ele>
        <time>2018-05-25T15:13:20Z</time>
      </trkpt>
      <trkpt lat="43.84809" lon="6.47802">
        <ele>1007</ele>
        <time>2018-05-25T15:13:50Z</time>
      </trkpt>
      <trkpt lat="43.84817" lon="6.47816">
        <ele>1004</ele>
        <time>2018-05-25T15:14:22Z</time>
      </trkpt>
      <trkpt lat="43.84818" lon="6.47819">
        <ele>1004</ele>
        <time>2018-05-25T15:14:53Z</time>
      </trkpt>
      <trkpt lat="43.84817" lon="6.47818">
        <ele>1004</ele>
        <time>2018-05-25T15:15:10Z</time>
      </trkpt>
      <trkpt lat="43.84814" lon="6.47817">
        <ele>1004</ele>
        <time>2018-05-25T15:15:29Z</time>
      </trkpt>
      <trkpt lat="43.84814" lon="6.47818">
        <ele>1004</ele>
        <time>2018-05-25T15:15:48Z</time>
      </trkpt>
      <trkpt lat="43.84812" lon="6.47823">
        <ele>1003</ele>
        <time>2018-05-25T15:16:13Z</time>
      </trkpt>
      <trkpt lat="43.84809" lon="6.47825">
        <ele>1003</ele>
        <time>2018-05-25T15:16:36Z</time>
      </trkpt>
      <trkpt lat="43.84808" lon="6.47828">
        <ele>1002</ele>
        <time>2018-05-25T15:16:38Z</time>
      </trkpt>
      <trkpt lat="43.84808" lon="6.47831">
        <ele>1002</ele>
        <time>2018-05-25T15:16:39Z</time>
      </trkpt>
      <trkpt lat="43.84807" lon="6.47833">
        <ele>1001</ele>
        <time>2018-05-25T15:16:40Z</time>
      </trkpt>
      <trkpt lat="43.84806" lon="6.47836">
        <ele>1001</ele>
        <time>2018-05-25T15:16:41Z</time>
      </trkpt>
      <trkpt lat="43.84806" lon="6.47838">
        <ele>1000</ele>
        <time>2018-05-25T15:16:42Z</time>
      </trkpt>
      <trkpt lat="43.84806" lon="6.4784">
        <ele>1000</ele>
        <time>2018-05-25T15:16:43Z</time>
      </trkpt>
      <trkpt lat="43.84807" lon="6.47842">
        <ele>999</ele>
        <time>2018-05-25T15:16:44Z</time>
      </trkpt>
      <trkpt lat="43.84804" lon="6.47858">
        <ele>996</ele>
        <time>2018-05-25T15:16:52Z</time>
      </trkpt>
      <trkpt lat="43.84803" lon="6.4786">
        <ele>996</ele>
        <time>2018-05-25T15:16:53Z</time>
      </trkpt>
      <trkpt lat="43.84802" lon="6.47863">
        <ele>995</ele>
        <time>2018-05-25T15:17:01Z</time>
      </trkpt>
      <trkpt lat="43.84801" lon="6.47865">
        <ele>994</ele>
        <time>2018-05-25T15:17:02Z</time>
      </trkpt>
      <trkpt lat="43.84794" lon="6.47881">
        <ele>992</ele>
        <time>2018-05-25T15:17:13Z</time>
      </trkpt>
      <trkpt lat="43.84792" lon="6.47893">
        <ele>990</ele>
        <time>2018-05-25T15:17:25Z</time>
      </trkpt>
      <trkpt lat="43.84788" lon="6.47905">
        <ele>988</ele>
        <time>2018-05-25T15:17:37Z</time>
      </trkpt>
      <trkpt lat="43.84786" lon="6.47913">
        <ele>987</ele>
        <time>2018-05-25T15:17:47Z</time>
      </trkpt>
      <trkpt lat="43.84786" lon="6.47914">
        <ele>987</ele>
        <time>2018-05-25T15:17:48Z</time>
      </trkpt>
      <trkpt lat="43.84785" lon="6.47916">
        <ele>987</ele>
        <time>2018-05-25T15:17:49Z</time>
      </trkpt>
      <trkpt lat="43.84784" lon="6.47919">
        <ele>986</ele>
        <time>2018-05-25T15:17:50Z</time>
      </trkpt>
      <trkpt lat="43.84783" lon="6.47921">
        <ele>986</ele>
        <time>2018-05-25T15:17:51Z</time>
      </trkpt>
      <trkpt lat="43.84779" lon="6.47927">
        <ele>986</ele>
        <time>2018-05-25T15:18:02Z</time>
      </trkpt>
      <trkpt lat="43.84777" lon="6.47931">
        <ele>986</ele>
        <time>2018-05-25T15:18:06Z</time>
      </trkpt>
      <trkpt lat="43.84777" lon="6.47934">
        <ele>986</ele>
        <time>2018-05-25T15:18:07Z</time>
      </trkpt>
      <trkpt lat="43.84776" lon="6.47937">
        <ele>985</ele>
        <time>2018-05-25T15:18:08Z</time>
      </trkpt>
      <trkpt lat="43.84774" lon="6.47941">
        <ele>985</ele>
        <time>2018-05-25T15:18:09Z</time>
      </trkpt>
      <trkpt lat="43.84773" lon="6.47945">
        <ele>985</ele>
        <time>2018-05-25T15:18:10Z</time>
      </trkpt>
      <trkpt lat="43.84772" lon="6.47949">
        <ele>984</ele>
        <time>2018-05-25T15:18:11Z</time>
      </trkpt>
      <trkpt lat="43.8477" lon="6.47953">
        <ele>984</ele>
        <time>2018-05-25T15:18:12Z</time>
      </trkpt>
      <trkpt lat="43.84756" lon="6.47983">
        <ele>981</ele>
        <time>2018-05-25T15:18:22Z</time>
      </trkpt>
      <trkpt lat="43.84754" lon="6.47988">
        <ele>981</ele>
        <time>2018-05-25T15:18:24Z</time>
      </trkpt>
      <trkpt lat="43.84754" lon="6.48001">
        <ele>978</ele>
        <time>2018-05-25T15:18:31Z</time>
      </trkpt>
      <trkpt lat="43.84755" lon="6.48011">
        <ele>975</ele>
        <time>2018-05-25T15:18:36Z</time>
      </trkpt>
      <trkpt lat="43.84754" lon="6.48014">
        <ele>975</ele>
        <time>2018-05-25T15:18:37Z</time>
      </trkpt>
      <trkpt lat="43.84754" lon="6.48017">
        <ele>974</ele>
        <time>2018-05-25T15:18:38Z</time>
      </trkpt>
      <trkpt lat="43.84752" lon="6.48019">
        <ele>974</ele>
        <time>2018-05-25T15:18:39Z</time>
      </trkpt>
      <trkpt lat="43.84751" lon="6.48021">
        <ele>973</ele>
        <time>2018-05-25T15:18:40Z</time>
      </trkpt>
      <trkpt lat="43.84749" lon="6.48023">
        <ele>973</ele>
        <time>2018-05-25T15:18:41Z</time>
      </trkpt>
      <trkpt lat="43.84743" lon="6.48032">
        <ele>972</ele>
        <time>2018-05-25T15:18:45Z</time>
      </trkpt>
      <trkpt lat="43.84741" lon="6.48035">
        <ele>971</ele>
        <time>2018-05-25T15:18:46Z</time>
      </trkpt>
      <trkpt lat="43.84739" lon="6.48036">
        <ele>971</ele>
        <time>2018-05-25T15:18:47Z</time>
      </trkpt>
      <trkpt lat="43.84737" lon="6.48037">
        <ele>971</ele>
        <time>2018-05-25T15:18:48Z</time>
      </trkpt>
      <trkpt lat="43.84736" lon="6.48037">
        <ele>971</ele>
        <time>2018-05-25T15:18:49Z</time>
      </trkpt>
      <trkpt lat="43.84724" lon="6.48034">
        <ele>973</ele>
        <time>2018-05-25T15:18:58Z</time>
      </trkpt>
      <trkpt lat="43.84722" lon="6.48033">
        <ele>974</ele>
        <time>2018-05-25T15:18:59Z</time>
      </trkpt>
      <trkpt lat="43.84721" lon="6.48033">
        <ele>974</ele>
        <time>2018-05-25T15:19:00Z</time>
      </trkpt>
      <trkpt lat="43.84718" lon="6.4803">
        <ele>975</ele>
        <time>2018-05-25T15:19:07Z</time>
      </trkpt>
      <trkpt lat="43.84716" lon="6.4803">
        <ele>975</ele>
        <time>2018-05-25T15:19:08Z</time>
      </trkpt>
      <trkpt lat="43.84715" lon="6.48031">
        <ele>975</ele>
        <time>2018-05-25T15:19:09Z</time>
      </trkpt>
      <trkpt lat="43.84713" lon="6.48033">
        <ele>975</ele>
        <time>2018-05-25T15:19:10Z</time>
      </trkpt>
      <trkpt lat="43.84712" lon="6.48043">
        <ele>974</ele>
        <time>2018-05-25T15:19:13Z</time>
      </trkpt>
      <trkpt lat="43.84712" lon="6.48047">
        <ele>973</ele>
        <time>2018-05-25T15:19:14Z</time>
      </trkpt>
      <trkpt lat="43.84712" lon="6.48051">
        <ele>972</ele>
        <time>2018-05-25T15:19:15Z</time>
      </trkpt>
      <trkpt lat="43.84716" lon="6.48099">
        <ele>965</ele>
        <time>2018-05-25T15:19:27Z</time>
      </trkpt>
      <trkpt lat="43.84715" lon="6.48101">
        <ele>964</ele>
        <time>2018-05-25T15:19:28Z</time>
      </trkpt>
      <trkpt lat="43.84714" lon="6.48105">
        <ele>964</ele>
        <time>2018-05-25T15:19:29Z</time>
      </trkpt>
      <trkpt lat="43.84688" lon="6.48156">
        <ele>958</ele>
        <time>2018-05-25T15:19:40Z</time>
      </trkpt>
      <trkpt lat="43.84667" lon="6.48174">
        <ele>956</ele>
        <time>2018-05-25T15:19:50Z</time>
      </trkpt>
      <trkpt lat="43.84661" lon="6.48182">
        <ele>954</ele>
        <time>2018-05-25T15:20:01Z</time>
      </trkpt>
      <trkpt lat="43.84656" lon="6.48191">
        <ele>952</ele>
        <time>2018-05-25T15:20:14Z</time>
      </trkpt>
      <trkpt lat="43.84633" lon="6.48224">
        <ele>946</ele>
        <time>2018-05-25T15:20:25Z</time>
      </trkpt>
      <trkpt lat="43.84605" lon="6.48261">
        <ele>941</ele>
        <time>2018-05-25T15:20:37Z</time>
      </trkpt>
      <trkpt lat="43.84597" lon="6.4827">
        <ele>940</ele>
        <time>2018-05-25T15:20:42Z</time>
      </trkpt>
      <trkpt lat="43.84596" lon="6.48273">
        <ele>939</ele>
        <time>2018-05-25T15:20:43Z</time>
      </trkpt>
      <trkpt lat="43.84594" lon="6.48274">
        <ele>939</ele>
        <time>2018-05-25T15:20:44Z</time>
      </trkpt>
      <trkpt lat="43.84593" lon="6.48276">
        <ele>938</ele>
        <time>2018-05-25T15:20:45Z</time>
      </trkpt>
      <trkpt lat="43.84591" lon="6.48278">
        <ele>938</ele>
        <time>2018-05-25T15:20:46Z</time>
      </trkpt>
      <trkpt lat="43.84588" lon="6.4828">
        <ele>938</ele>
        <time>2018-05-25T15:20:47Z</time>
      </trkpt>
      <trkpt lat="43.84586" lon="6.48282">
        <ele>937</ele>
        <time>2018-05-25T15:20:48Z</time>
      </trkpt>
      <trkpt lat="43.84583" lon="6.48284">
        <ele>937</ele>
        <time>2018-05-25T15:20:49Z</time>
      </trkpt>
      <trkpt lat="43.84581" lon="6.48285">
        <ele>937</ele>
        <time>2018-05-25T15:20:50Z</time>
      </trkpt>
      <trkpt lat="43.8458" lon="6.48287">
        <ele>937</ele>
        <time>2018-05-25T15:20:51Z</time>
      </trkpt>
      <trkpt lat="43.84578" lon="6.48289">
        <ele>936</ele>
        <time>2018-05-25T15:20:52Z</time>
      </trkpt>
      <trkpt lat="43.84546" lon="6.48312">
        <ele>931</ele>
        <time>2018-05-25T15:21:04Z</time>
      </trkpt>
      <trkpt lat="43.84533" lon="6.48315">
        <ele>930</ele>
        <time>2018-05-25T15:21:11Z</time>
      </trkpt>
      <trkpt lat="43.84531" lon="6.48316">
        <ele>929</ele>
        <time>2018-05-25T15:21:12Z</time>
      </trkpt>
      <trkpt lat="43.84529" lon="6.48317">
        <ele>929</ele>
        <time>2018-05-25T15:21:13Z</time>
      </trkpt>
      <trkpt lat="43.84527" lon="6.48318">
        <ele>928</ele>
        <time>2018-05-25T15:21:14Z</time>
      </trkpt>
      <trkpt lat="43.84524" lon="6.4832">
        <ele>928</ele>
        <time>2018-05-25T15:21:15Z</time>
      </trkpt>
      <trkpt lat="43.84522" lon="6.48321">
        <ele>927</ele>
        <time>2018-05-25T15:21:16Z</time>
      </trkpt>
      <trkpt lat="43.8452" lon="6.48323">
        <ele>927</ele>
        <time>2018-05-25T15:21:17Z</time>
      </trkpt>
      <trkpt lat="43.84495" lon="6.4834">
        <ele>921</ele>
        <time>2018-05-25T15:21:29Z</time>
      </trkpt>
      <trkpt lat="43.8446" lon="6.48361">
        <ele>915</ele>
        <time>2018-05-25T15:21:41Z</time>
      </trkpt>
      <trkpt lat="43.84447" lon="6.48371">
        <ele>912</ele>
        <time>2018-05-25T15:21:46Z</time>
      </trkpt>
      <trkpt lat="43.84445" lon="6.48373">
        <ele>912</ele>
        <time>2018-05-25T15:21:47Z</time>
      </trkpt>
      <trkpt lat="43.8444" lon="6.48376">
        <ele>911</ele>
        <time>2018-05-25T15:21:49Z</time>
      </trkpt>
      <trkpt lat="43.84418" lon="6.48395">
        <ele>907</ele>
        <time>2018-05-25T15:22:01Z</time>
      </trkpt>
      <trkpt lat="43.84409" lon="6.4841">
        <ele>902</ele>
        <time>2018-05-25T15:22:13Z</time>
      </trkpt>
      <trkpt lat="43.84403" lon="6.48417">
        <ele>900</ele>
        <time>2018-05-25T15:22:25Z</time>
      </trkpt>
      <trkpt lat="43.84398" lon="6.48427">
        <ele>898</ele>
        <time>2018-05-25T15:22:38Z</time>
      </trkpt>
      <trkpt lat="43.84389" lon="6.48435">
        <ele>896</ele>
        <time>2018-05-25T15:22:53Z</time>
      </trkpt>
      <trkpt lat="43.84387" lon="6.48437">
        <ele>895</ele>
        <time>2018-05-25T15:22:55Z</time>
      </trkpt>
      <trkpt lat="43.84375" lon="6.48449">
        <ele>893</ele>
        <time>2018-05-25T15:23:11Z</time>
      </trkpt>
      <trkpt lat="43.84362" lon="6.48452">
        <ele>891</ele>
        <time>2018-05-25T15:23:25Z</time>
      </trkpt>
      <trkpt lat="43.84346" lon="6.48441">
        <ele>891</ele>
        <time>2018-05-25T15:23:42Z</time>
      </trkpt>
      <trkpt lat="43.84333" lon="6.48437">
        <ele>890</ele>
        <time>2018-05-25T15:23:54Z</time>
      </trkpt>
      <trkpt lat="43.84312" lon="6.4845">
        <ele>884</ele>
        <time>2018-05-25T15:24:04Z</time>
      </trkpt>
      <trkpt lat="43.84305" lon="6.48454">
        <ele>882</ele>
        <time>2018-05-25T15:24:15Z</time>
      </trkpt>
      <trkpt lat="43.843" lon="6.48455">
        <ele>881</ele>
        <time>2018-05-25T15:24:24Z</time>
      </trkpt>
      <trkpt lat="43.84287" lon="6.48454">
        <ele>880</ele>
        <time>2018-05-25T15:24:41Z</time>
      </trkpt>
      <trkpt lat="43.84284" lon="6.48456">
        <ele>879</ele>
        <time>2018-05-25T15:24:59Z</time>
      </trkpt>
      <trkpt lat="43.84282" lon="6.48458">
        <ele>879</ele>
        <time>2018-05-25T15:25:29Z</time>
      </trkpt>
      <trkpt lat="43.8428" lon="6.48459">
        <ele>878</ele>
        <time>2018-05-25T15:25:54Z</time>
      </trkpt>
      <trkpt lat="43.84281" lon="6.48456">
        <ele>879</ele>
        <time>2018-05-25T15:26:28Z</time>
      </trkpt>
      <trkpt lat="43.84281" lon="6.48457">
        <ele>879</ele>
        <time>2018-05-25T15:27:01Z</time>
      </trkpt>
      <trkpt lat="43.84281" lon="6.48458">
        <ele>878</ele>
        <time>2018-05-25T15:27:40Z</time>
      </trkpt>
      <trkpt lat="43.84283" lon="6.48454">
        <ele>879</ele>
        <time>2018-05-25T15:28:22Z</time>
      </trkpt>
      <trkpt lat="43.84283" lon="6.48453">
        <ele>879</ele>
        <time>2018-05-25T15:29:03Z</time>
      </trkpt>
      <trkpt lat="43.84285" lon="6.48452">
        <ele>880</ele>
        <time>2018-05-25T15:29:52Z</time>
      </trkpt>
      <trkpt lat="43.84282" lon="6.48457">
        <ele>879</ele>
        <time>2018-05-25T15:30:22Z</time>
      </trkpt>
      <trkpt lat="43.84281" lon="6.48461">
        <ele>878</ele>
        <time>2018-05-25T15:31:03Z</time>
      </trkpt>
      <trkpt lat="43.84282" lon="6.48459">
        <ele>878</ele>
        <time>2018-05-25T15:31:40Z</time>
      </trkpt>
      <trkpt lat="43.84285" lon="6.48457">
        <ele>879</ele>
        <time>2018-05-25T15:32:04Z</time>
      </trkpt>
      <trkpt lat="43.84287" lon="6.48456">
        <ele>879</ele>
        <time>2018-05-25T15:32:26Z</time>
      </trkpt>
      <trkpt lat="43.84291" lon="6.48458">
        <ele>880</ele>
        <time>2018-05-25T15:32:51Z</time>
      </trkpt>
      <trkpt lat="43.84288" lon="6.48458">
        <ele>879</ele>
        <time>2018-05-25T15:33:16Z</time>
      </trkpt>
      <trkpt lat="43.84287" lon="6.48457">
        <ele>879</ele>
        <time>2018-05-25T15:33:36Z</time>
      </trkpt>
      <trkpt lat="43.84288" lon="6.48459">
        <ele>879</ele>
        <time>2018-05-25T15:33:57Z</time>
      </trkpt>
      <trkpt lat="43.84288" lon="6.4846">
        <ele>879</ele>
        <time>2018-05-25T15:34:17Z</time>
      </trkpt>
      <trkpt lat="43.84289" lon="6.4846">
        <ele>879</ele>
        <time>2018-05-25T15:34:39Z</time>
      </trkpt>
      <trkpt lat="43.8429" lon="6.48461">
        <ele>879</ele>
        <time>2018-05-25T15:34:40Z</time>
      </trkpt>
      <trkpt lat="43.84288" lon="6.48463">
        <ele>879</ele>
        <time>2018-05-25T15:34:51Z</time>
      </trkpt>
      <trkpt lat="43.84286" lon="6.48464">
        <ele>878</ele>
        <time>2018-05-25T15:35:02Z</time>
      </trkpt>
      <trkpt lat="43.84285" lon="6.48465">
        <ele>878</ele>
        <time>2018-05-25T15:35:03Z</time>
      </trkpt>
      <trkpt lat="43.84284" lon="6.48468">
        <ele>878</ele>
        <time>2018-05-25T15:35:04Z</time>
      </trkpt>
      <trkpt lat="43.84283" lon="6.48471">
        <ele>877</ele>
        <time>2018-05-25T15:35:05Z</time>
      </trkpt>
      <trkpt lat="43.84282" lon="6.48475">
        <ele>877</ele>
        <time>2018-05-25T15:35:06Z</time>
      </trkpt>
      <trkpt lat="43.84281" lon="6.48479">
        <ele>876</ele>
        <time>2018-05-25T15:35:07Z</time>
      </trkpt>
      <trkpt lat="43.84281" lon="6.48482">
        <ele>876</ele>
        <time>2018-05-25T15:35:08Z</time>
      </trkpt>
      <trkpt lat="43.8428" lon="6.48485">
        <ele>876</ele>
        <time>2018-05-25T15:35:09Z</time>
      </trkpt>
      <trkpt lat="43.84279" lon="6.48488">
        <ele>875</ele>
        <time>2018-05-25T15:35:10Z</time>
      </trkpt>
      <trkpt lat="43.84279" lon="6.48492">
        <ele>875</ele>
        <time>2018-05-25T15:35:11Z</time>
      </trkpt>
      <trkpt lat="43.84278" lon="6.48495">
        <ele>875</ele>
        <time>2018-05-25T15:35:12Z</time>
      </trkpt>
      <trkpt lat="43.84278" lon="6.48501">
        <ele>874</ele>
        <time>2018-05-25T15:35:14Z</time>
      </trkpt>
      <trkpt lat="43.84279" lon="6.48504">
        <ele>874</ele>
        <time>2018-05-25T15:35:15Z</time>
      </trkpt>
      <trkpt lat="43.84279" lon="6.48506">
        <ele>873</ele>
        <time>2018-05-25T15:35:16Z</time>
      </trkpt>
      <trkpt lat="43.8428" lon="6.48509">
        <ele>873</ele>
        <time>2018-05-25T15:35:17Z</time>
      </trkpt>
      <trkpt lat="43.84281" lon="6.48511">
        <ele>872</ele>
        <time>2018-05-25T15:35:18Z</time>
      </trkpt>
      <trkpt lat="43.84282" lon="6.48513">
        <ele>872</ele>
        <time>2018-05-25T15:35:19Z</time>
      </trkpt>
      <trkpt lat="43.84284" lon="6.48514">
        <ele>871</ele>
        <time>2018-05-25T15:35:20Z</time>
      </trkpt>
      <trkpt lat="43.84286" lon="6.48515">
        <ele>871</ele>
        <time>2018-05-25T15:35:21Z</time>
      </trkpt>
      <trkpt lat="43.84312" lon="6.48513">
        <ele>872</ele>
        <time>2018-05-25T15:35:35Z</time>
      </trkpt>
      <trkpt lat="43.8433" lon="6.48511">
        <ele>873</ele>
        <time>2018-05-25T15:35:43Z</time>
      </trkpt>
      <trkpt lat="43.84332" lon="6.48513">
        <ele>872</ele>
        <time>2018-05-25T15:35:44Z</time>
      </trkpt>
      <trkpt lat="43.84334" lon="6.48516">
        <ele>871</ele>
        <time>2018-05-25T15:35:45Z</time>
      </trkpt>
      <trkpt lat="43.84334" lon="6.48522">
        <ele>869</ele>
        <time>2018-05-25T15:35:47Z</time>
      </trkpt>
      <trkpt lat="43.84332" lon="6.48525">
        <ele>868</ele>
        <time>2018-05-25T15:35:48Z</time>
      </trkpt>
      <trkpt lat="43.8433" lon="6.48526">
        <ele>868</ele>
        <time>2018-05-25T15:35:49Z</time>
      </trkpt>
      <trkpt lat="43.84327" lon="6.48527">
        <ele>868</ele>
        <time>2018-05-25T15:35:50Z</time>
      </trkpt>
      <trkpt lat="43.84325" lon="6.48528">
        <ele>867</ele>
        <time>2018-05-25T15:35:51Z</time>
      </trkpt>
      <trkpt lat="43.84297" lon="6.48541">
        <ele>865</ele>
        <time>2018-05-25T15:36:03Z</time>
      </trkpt>
      <trkpt lat="43.84267" lon="6.48559">
        <ele>861</ele>
        <time>2018-05-25T15:36:14Z</time>
      </trkpt>
      <trkpt lat="43.84256" lon="6.48559">
        <ele>858</ele>
        <time>2018-05-25T15:36:19Z</time>
      </trkpt>
      <trkpt lat="43.8425" lon="6.48527">
        <ele>860</ele>
        <time>2018-05-25T15:36:30Z</time>
      </trkpt>
      <trkpt lat="43.84248" lon="6.48479">
        <ele>861</ele>
        <time>2018-05-25T15:36:41Z</time>
      </trkpt>
      <trkpt lat="43.84244" lon="6.48449">
        <ele>860</ele>
        <time>2018-05-25T15:36:46Z</time>
      </trkpt>
      <trkpt lat="43.84243" lon="6.48444">
        <ele>859</ele>
        <time>2018-05-25T15:36:47Z</time>
      </trkpt>
      <trkpt lat="43.8424" lon="6.48394">
        <ele>856</ele>
        <time>2018-05-25T15:36:57Z</time>
      </trkpt>
      <trkpt lat="43.8424" lon="6.48388">
        <ele>856</ele>
        <time>2018-05-25T15:36:58Z</time>
      </trkpt>
      <trkpt lat="43.8424" lon="6.48382">
        <ele>855</ele>
        <time>2018-05-25T15:36:59Z</time>
      </trkpt>
      <trkpt lat="43.84239" lon="6.48377">
        <ele>855</ele>
        <time>2018-05-25T15:37:00Z</time>
      </trkpt>
      <trkpt lat="43.84238" lon="6.48371">
        <ele>855</ele>
        <time>2018-05-25T15:37:01Z</time>
      </trkpt>
      <trkpt lat="43.84228" lon="6.48315">
        <ele>857</ele>
        <time>2018-05-25T15:37:10Z</time>
      </trkpt>
      <trkpt lat="43.84226" lon="6.48309">
        <ele>857</ele>
        <time>2018-05-25T15:37:11Z</time>
      </trkpt>
      <trkpt lat="43.84223" lon="6.48304">
        <ele>856</ele>
        <time>2018-05-25T15:37:12Z</time>
      </trkpt>
      <trkpt lat="43.8422" lon="6.48299">
        <ele>855</ele>
        <time>2018-05-25T15:37:13Z</time>
      </trkpt>
      <trkpt lat="43.84216" lon="6.48295">
        <ele>854</ele>
        <time>2018-05-25T15:37:14Z</time>
      </trkpt>
      <trkpt lat="43.84213" lon="6.48292">
        <ele>853</ele>
        <time>2018-05-25T15:37:15Z</time>
      </trkpt>
      <trkpt lat="43.84189" lon="6.48284">
        <ele>847</ele>
        <time>2018-05-25T15:37:25Z</time>
      </trkpt>
      <trkpt lat="43.84182" lon="6.48318">
        <ele>841</ele>
        <time>2018-05-25T15:37:32Z</time>
      </trkpt>
      <trkpt lat="43.84183" lon="6.4833">
        <ele>840</ele>
        <time>2018-05-25T15:37:34Z</time>
      </trkpt>
      <trkpt lat="43.84184" lon="6.48336">
        <ele>840</ele>
        <time>2018-05-25T15:37:35Z</time>
      </trkpt>
      <trkpt lat="43.8419" lon="6.48362">
        <ele>838</ele>
        <time>2018-05-25T15:37:39Z</time>
      </trkpt>
      <trkpt lat="43.84191" lon="6.48368">
        <ele>838</ele>
        <time>2018-05-25T15:37:40Z</time>
      </trkpt>
      <trkpt lat="43.84191" lon="6.48372">
        <ele>838</ele>
        <time>2018-05-25T15:37:41Z</time>
      </trkpt>
      <trkpt lat="43.8419" lon="6.48377">
        <ele>837</ele>
        <time>2018-05-25T15:37:42Z</time>
      </trkpt>
      <trkpt lat="43.84189" lon="6.48381">
        <ele>837</ele>
        <time>2018-05-25T15:37:43Z</time>
      </trkpt>
      <trkpt lat="43.84189" lon="6.48385">
        <ele>836</ele>
        <time>2018-05-25T15:37:44Z</time>
      </trkpt>
      <trkpt lat="43.84187" lon="6.48388">
        <ele>836</ele>
        <time>2018-05-25T15:37:45Z</time>
      </trkpt>
      <trkpt lat="43.84186" lon="6.48391">
        <ele>836</ele>
        <time>2018-05-25T15:37:46Z</time>
      </trkpt>
      <trkpt lat="43.84176" lon="6.48412">
        <ele>832</ele>
        <time>2018-05-25T15:37:58Z</time>
      </trkpt>
      <trkpt lat="43.84175" lon="6.48413">
        <ele>832</ele>
        <time>2018-05-25T15:37:59Z</time>
      </trkpt>
      <trkpt lat="43.84175" lon="6.48416">
        <ele>832</ele>
        <time>2018-05-25T15:38:00Z</time>
      </trkpt>
      <trkpt lat="43.84175" lon="6.48418">
        <ele>832</ele>
        <time>2018-05-25T15:38:01Z</time>
      </trkpt>
      <trkpt lat="43.84175" lon="6.4842">
        <ele>831</ele>
        <time>2018-05-25T15:38:02Z</time>
      </trkpt>
      <trkpt lat="43.84174" lon="6.48422">
        <ele>831</ele>
        <time>2018-05-25T15:38:03Z</time>
      </trkpt>
      <trkpt lat="43.84172" lon="6.48431">
        <ele>830</ele>
        <time>2018-05-25T15:38:13Z</time>
      </trkpt>
      <trkpt lat="43.84174" lon="6.48431">
        <ele>830</ele>
        <time>2018-05-25T15:38:39Z</time>
      </trkpt>
      <trkpt lat="43.84173" lon="6.48432">
        <ele>830</ele>
        <time>2018-05-25T15:38:58Z</time>
      </trkpt>
      <trkpt lat="43.84173" lon="6.48433">
        <ele>830</ele>
        <time>2018-05-25T15:39:20Z</time>
      </trkpt>
      <trkpt lat="43.84173" lon="6.48433">
        <ele>830</ele>
        <time>2018-05-25T15:39:46Z</time>
      </trkpt>
      <trkpt lat="43.84173" lon="6.4845">
        <ele>829</ele>
        <time>2018-05-25T15:39:51Z</time>
      </trkpt>
      <trkpt lat="43.84162" lon="6.48502">
        <ele>824</ele>
        <time>2018-05-25T15:39:58Z</time>
      </trkpt>
      <trkpt lat="43.84145" lon="6.48556">
        <ele>816</ele>
        <time>2018-05-25T15:40:05Z</time>
      </trkpt>
      <trkpt lat="43.84143" lon="6.48564">
        <ele>815</ele>
        <time>2018-05-25T15:40:06Z</time>
      </trkpt>
      <trkpt lat="43.84143" lon="6.48572">
        <ele>815</ele>
        <time>2018-05-25T15:40:07Z</time>
      </trkpt>
      <trkpt lat="43.84142" lon="6.4859">
        <ele>815</ele>
        <time>2018-05-25T15:40:09Z</time>
      </trkpt>
      <trkpt lat="43.84133" lon="6.48621">
        <ele>813</ele>
        <time>2018-05-25T15:40:15Z</time>
      </trkpt>
      <trkpt lat="43.84129" lon="6.48622">
        <ele>812</ele>
        <time>2018-05-25T15:40:16Z</time>
      </trkpt>
      <trkpt lat="43.84121" lon="6.48625">
        <ele>810</ele>
        <time>2018-05-25T15:40:18Z</time>
      </trkpt>
      <trkpt lat="43.84117" lon="6.48629">
        <ele>809</ele>
        <time>2018-05-25T15:40:19Z</time>
      </trkpt>
      <trkpt lat="43.84112" lon="6.48636">
        <ele>807</ele>
        <time>2018-05-25T15:40:20Z</time>
      </trkpt>
      <trkpt lat="43.84083" lon="6.48681">
        <ele>800</ele>
        <time>2018-05-25T15:40:27Z</time>
      </trkpt>
      <trkpt lat="43.84081" lon="6.48688">
        <ele>799</ele>
        <time>2018-05-25T15:40:28Z</time>
      </trkpt>
      <trkpt lat="43.84072" lon="6.48727">
        <ele>796</ele>
        <time>2018-05-25T15:40:33Z</time>
      </trkpt>
      <trkpt lat="43.84068" lon="6.48734">
        <ele>795</ele>
        <time>2018-05-25T15:40:34Z</time>
      </trkpt>
      <trkpt lat="43.84063" lon="6.4874">
        <ele>792</ele>
        <time>2018-05-25T15:40:35Z</time>
      </trkpt>
      <trkpt lat="43.84058" lon="6.48745">
        <ele>790</ele>
        <time>2018-05-25T15:40:36Z</time>
      </trkpt>
      <trkpt lat="43.84054" lon="6.48748">
        <ele>789</ele>
        <time>2018-05-25T15:40:37Z</time>
      </trkpt>
      <trkpt lat="43.84052" lon="6.48749">
        <ele>788</ele>
        <time>2018-05-25T15:40:38Z</time>
      </trkpt>
      <trkpt lat="43.84039" lon="6.48757">
        <ele>785</ele>
        <time>2018-05-25T15:40:48Z</time>
      </trkpt>
      <trkpt lat="43.84033" lon="6.48761">
        <ele>785</ele>
        <time>2018-05-25T15:40:50Z</time>
      </trkpt>
      <trkpt lat="43.84032" lon="6.48765">
        <ele>785</ele>
        <time>2018-05-25T15:40:51Z</time>
      </trkpt>
      <trkpt lat="43.84031" lon="6.48769">
        <ele>784</ele>
        <time>2018-05-25T15:40:52Z</time>
      </trkpt>
      <trkpt lat="43.84032" lon="6.48774">
        <ele>783</ele>
        <time>2018-05-25T15:40:53Z</time>
      </trkpt>
      <trkpt lat="43.84034" lon="6.48778">
        <ele>783</ele>
        <time>2018-05-25T15:40:54Z</time>
      </trkpt>
      <trkpt lat="43.84038" lon="6.4878">
        <ele>782</ele>
        <time>2018-05-25T15:40:55Z</time>
      </trkpt>
      <trkpt lat="43.84042" lon="6.48781">
        <ele>782</ele>
        <time>2018-05-25T15:40:56Z</time>
      </trkpt>
      <trkpt lat="43.84046" lon="6.4878">
        <ele>783</ele>
        <time>2018-05-25T15:40:57Z</time>
      </trkpt>
      <trkpt lat="43.8405" lon="6.48779">
        <ele>783</ele>
        <time>2018-05-25T15:40:58Z</time>
      </trkpt>
      <trkpt lat="43.84054" lon="6.48779">
        <ele>784</ele>
        <time>2018-05-25T15:40:59Z</time>
      </trkpt>
      <trkpt lat="43.84056" lon="6.48782">
        <ele>784</ele>
        <time>2018-05-25T15:41:00Z</time>
      </trkpt>
      <trkpt lat="43.84057" lon="6.48786">
        <ele>784</ele>
        <time>2018-05-25T15:41:01Z</time>
      </trkpt>
      <trkpt lat="43.84056" lon="6.48792">
        <ele>783</ele>
        <time>2018-05-25T15:41:02Z</time>
      </trkpt>
      <trkpt lat="43.84053" lon="6.48797">
        <ele>782</ele>
        <time>2018-05-25T15:41:03Z</time>
      </trkpt>
      <trkpt lat="43.84048" lon="6.48802">
        <ele>782</ele>
        <time>2018-05-25T15:41:04Z</time>
      </trkpt>
      <trkpt lat="43.84039" lon="6.48811">
        <ele>783</ele>
        <time>2018-05-25T15:41:06Z</time>
      </trkpt>
      <trkpt lat="43.84033" lon="6.48815">
        <ele>783</ele>
        <time>2018-05-25T15:41:07Z</time>
      </trkpt>
      <trkpt lat="43.84023" lon="6.48822">
        <ele>783</ele>
        <time>2018-05-25T15:41:09Z</time>
      </trkpt>
      <trkpt lat="43.84018" lon="6.48826">
        <ele>783</ele>
        <time>2018-05-25T15:41:10Z</time>
      </trkpt>
      <trkpt lat="43.84002" lon="6.48843">
        <ele>780</ele>
        <time>2018-05-25T15:41:13Z</time>
      </trkpt>
      <trkpt lat="43.83996" lon="6.48849">
        <ele>779</ele>
        <time>2018-05-25T15:41:14Z</time>
      </trkpt>
      <trkpt lat="43.83989" lon="6.48854">
        <ele>777</ele>
        <time>2018-05-25T15:41:15Z</time>
      </trkpt>
      <trkpt lat="43.83976" lon="6.48865">
        <ele>776</ele>
        <time>2018-05-25T15:41:17Z</time>
      </trkpt>
      <trkpt lat="43.8397" lon="6.48872">
        <ele>775</ele>
        <time>2018-05-25T15:41:18Z</time>
      </trkpt>
      <trkpt lat="43.83949" lon="6.48897">
        <ele>772</ele>
        <time>2018-05-25T15:41:22Z</time>
      </trkpt>
      <trkpt lat="43.83944" lon="6.489">
        <ele>771</ele>
        <time>2018-05-25T15:41:23Z</time>
      </trkpt>
      <trkpt lat="43.83939" lon="6.48904">
        <ele>770</ele>
        <time>2018-05-25T15:41:24Z</time>
      </trkpt>
      <trkpt lat="43.83932" lon="6.48906">
        <ele>769</ele>
        <time>2018-05-25T15:41:25Z</time>
      </trkpt>
      <trkpt lat="43.83925" lon="6.48908">
        <ele>767</ele>
        <time>2018-05-25T15:41:26Z</time>
      </trkpt>
      <trkpt lat="43.83918" lon="6.4891">
        <ele>765</ele>
        <time>2018-05-25T15:41:27Z</time>
      </trkpt>
      <trkpt lat="43.8391" lon="6.48913">
        <ele>763</ele>
        <time>2018-05-25T15:41:28Z</time>
      </trkpt>
      <trkpt lat="43.83903" lon="6.48914">
        <ele>762</ele>
        <time>2018-05-25T15:41:29Z</time>
      </trkpt>
      <trkpt lat="43.83869" lon="6.48919">
        <ele>759</ele>
        <time>2018-05-25T15:41:38Z</time>
      </trkpt>
      <trkpt lat="43.83868" lon="6.4892">
        <ele>759</ele>
        <time>2018-05-25T15:41:58Z</time>
      </trkpt>
      <trkpt lat="43.83869" lon="6.4892">
        <ele>759</ele>
        <time>2018-05-25T15:42:16Z</time>
      </trkpt>
      <trkpt lat="43.83867" lon="6.4892">
        <ele>759</ele>
        <time>2018-05-25T15:42:44Z</time>
      </trkpt>
      <trkpt lat="43.83866" lon="6.48922">
        <ele>759</ele>
        <time>2018-05-25T15:42:47Z</time>
      </trkpt>
      <trkpt lat="43.83865" lon="6.48923">
        <ele>759</ele>
        <time>2018-05-25T15:42:48Z</time>
      </trkpt>
      <trkpt lat="43.83864" lon="6.48925">
        <ele>759</ele>
        <time>2018-05-25T15:42:49Z</time>
      </trkpt>
      <trkpt lat="43.83863" lon="6.48928">
        <ele>759</ele>
        <time>2018-05-25T15:42:50Z</time>
      </trkpt>
      <trkpt lat="43.83861" lon="6.48932">
        <ele>759</ele>
        <time>2018-05-25T15:42:51Z</time>
      </trkpt>
      <trkpt lat="43.83851" lon="6.48955">
        <ele>760</ele>
        <time>2018-05-25T15:42:56Z</time>
      </trkpt>
      <trkpt lat="43.83846" lon="6.48966">
        <ele>761</ele>
        <time>2018-05-25T15:42:58Z</time>
      </trkpt>
      <trkpt lat="43.83843" lon="6.4897">
        <ele>760</ele>
        <time>2018-05-25T15:42:59Z</time>
      </trkpt>
      <trkpt lat="43.83839" lon="6.48974">
        <ele>760</ele>
        <time>2018-05-25T15:43:00Z</time>
      </trkpt>
      <trkpt lat="43.83836" lon="6.48977">
        <ele>760</ele>
        <time>2018-05-25T15:43:01Z</time>
      </trkpt>
      <trkpt lat="43.83832" lon="6.4898">
        <ele>760</ele>
        <time>2018-05-25T15:43:02Z</time>
      </trkpt>
      <trkpt lat="43.83829" lon="6.48982">
        <ele>760</ele>
        <time>2018-05-25T15:43:03Z</time>
      </trkpt>
      <trkpt lat="43.83804" lon="6.49014">
        <ele>762</ele>
        <time>2018-05-25T15:43:15Z</time>
      </trkpt>
      <trkpt lat="43.83797" lon="6.49045">
        <ele>762</ele>
        <time>2018-05-25T15:43:27Z</time>
      </trkpt>
      <trkpt lat="43.83778" lon="6.49096">
        <ele>759</ele>
        <time>2018-05-25T15:43:36Z</time>
      </trkpt>
      <trkpt lat="43.83776" lon="6.49103">
        <ele>758</ele>
        <time>2018-05-25T15:43:37Z</time>
      </trkpt>
      <trkpt lat="43.83775" lon="6.4911">
        <ele>758</ele>
        <time>2018-05-25T15:43:38Z</time>
      </trkpt>
      <trkpt lat="43.83776" lon="6.49116">
        <ele>758</ele>
        <time>2018-05-25T15:43:39Z</time>
      </trkpt>
      <trkpt lat="43.83778" lon="6.49125">
        <ele>758</ele>
        <time>2018-05-25T15:43:40Z</time>
      </trkpt>
      <trkpt lat="43.83779" lon="6.49131">
        <ele>758</ele>
        <time>2018-05-25T15:43:41Z</time>
      </trkpt>
      <trkpt lat="43.83782" lon="6.49139">
        <ele>757</ele>
        <time>2018-05-25T15:43:42Z</time>
      </trkpt>
      <trkpt lat="43.83802" lon="6.49187">
        <ele>752</ele>
        <time>2018-05-25T15:43:51Z</time>
      </trkpt>
      <trkpt lat="43.83805" lon="6.49192">
        <ele>752</ele>
        <time>2018-05-25T15:43:52Z</time>
      </trkpt>
      <trkpt lat="43.83811" lon="6.49197">
        <ele>751</ele>
        <time>2018-05-25T15:43:53Z</time>
      </trkpt>
      <trkpt lat="43.83816" lon="6.49199">
        <ele>751</ele>
        <time>2018-05-25T15:43:54Z</time>
      </trkpt>
      <trkpt lat="43.83823" lon="6.49201">
        <ele>750</ele>
        <time>2018-05-25T15:43:55Z</time>
      </trkpt>
      <trkpt lat="43.83834" lon="6.49206">
        <ele>748</ele>
        <time>2018-05-25T15:43:57Z</time>
      </trkpt>
      <trkpt lat="43.8384" lon="6.49211">
        <ele>746</ele>
        <time>2018-05-25T15:43:58Z</time>
      </trkpt>
      <trkpt lat="43.83899" lon="6.49257">
        <ele>739</ele>
        <time>2018-05-25T15:44:07Z</time>
      </trkpt>
      <trkpt lat="43.83906" lon="6.49261">
        <ele>739</ele>
        <time>2018-05-25T15:44:08Z</time>
      </trkpt>
      <trkpt lat="43.83915" lon="6.49265">
        <ele>738</ele>
        <time>2018-05-25T15:44:09Z</time>
      </trkpt>
      <trkpt lat="43.83922" lon="6.49271">
        <ele>737</ele>
        <time>2018-05-25T15:44:10Z</time>
      </trkpt>
      <trkpt lat="43.8393" lon="6.49277">
        <ele>736</ele>
        <time>2018-05-25T15:44:11Z</time>
      </trkpt>
      <trkpt lat="43.83942" lon="6.49289">
        <ele>735</ele>
        <time>2018-05-25T15:44:13Z</time>
      </trkpt>
      <trkpt lat="43.83947" lon="6.49296">
        <ele>735</ele>
        <time>2018-05-25T15:44:14Z</time>
      </trkpt>
      <trkpt lat="43.8395" lon="6.49302">
        <ele>734</ele>
        <time>2018-05-25T15:44:15Z</time>
      </trkpt>
      <trkpt lat="43.83978" lon="6.49355">
        <ele>730</ele>
        <time>2018-05-25T15:44:23Z</time>
      </trkpt>
      <trkpt lat="43.83981" lon="6.49363">
        <ele>730</ele>
        <time>2018-05-25T15:44:24Z</time>
      </trkpt>
      <trkpt lat="43.84001" lon="6.49407">
        <ele>726</ele>
        <time>2018-05-25T15:44:30Z</time>
      </trkpt>
      <trkpt lat="43.84008" lon="6.49417">
        <ele>725</ele>
        <time>2018-05-25T15:44:32Z</time>
      </trkpt>
      <trkpt lat="43.84011" lon="6.49421">
        <ele>725</ele>
        <time>2018-05-25T15:44:33Z</time>
      </trkpt>
      <trkpt lat="43.84061" lon="6.4948">
        <ele>722</ele>
        <time>2018-05-25T15:44:45Z</time>
      </trkpt>
      <trkpt lat="43.84104" lon="6.49538">
        <ele>721</ele>
        <time>2018-05-25T15:44:58Z</time>
      </trkpt>
      <trkpt lat="43.84109" lon="6.49545">
        <ele>720</ele>
        <time>2018-05-25T15:45:08Z</time>
      </trkpt>
      <trkpt lat="43.84108" lon="6.49547">
        <ele>719</ele>
        <time>2018-05-25T15:45:19Z</time>
      </trkpt>
      <trkpt lat="43.84107" lon="6.49548">
        <ele>719</ele>
        <time>2018-05-25T15:45:20Z</time>
      </trkpt>
      <trkpt lat="43.84105" lon="6.49547">
        <ele>719</ele>
        <time>2018-05-25T15:45:21Z</time>
      </trkpt>
      <trkpt lat="43.84104" lon="6.49545">
        <ele>719</ele>
        <time>2018-05-25T15:45:22Z</time>
      </trkpt>
      <trkpt lat="43.84102" lon="6.49542">
        <ele>720</ele>
        <time>2018-05-25T15:45:23Z</time>
      </trkpt>
      <trkpt lat="43.841" lon="6.4954">
        <ele>720</ele>
        <time>2018-05-25T15:45:24Z</time>
      </trkpt>
      <trkpt lat="43.84059" lon="6.49496">
        <ele>721</ele>
        <time>2018-05-25T15:45:37Z</time>
      </trkpt>
      <trkpt lat="43.84009" lon="6.49443">
        <ele>723</ele>
        <time>2018-05-25T15:45:52Z</time>
      </trkpt>
      <trkpt lat="43.83964" lon="6.49398">
        <ele>722</ele>
        <time>2018-05-25T15:46:07Z</time>
      </trkpt>
      <trkpt lat="43.83948" lon="6.4938">
        <ele>722</ele>
        <time>2018-05-25T15:46:13Z</time>
      </trkpt>
      <trkpt lat="43.83946" lon="6.4938">
        <ele>722</ele>
        <time>2018-05-25T15:46:14Z</time>
      </trkpt>
      <trkpt lat="43.83943" lon="6.4938">
        <ele>722</ele>
        <time>2018-05-25T15:46:15Z</time>
      </trkpt>
      <trkpt lat="43.83903" lon="6.494">
        <ele>717</ele>
        <time>2018-05-25T15:46:25Z</time>
      </trkpt>
      <trkpt lat="43.83869" lon="6.49425">
        <ele>717</ele>
        <time>2018-05-25T15:46:34Z</time>
      </trkpt>
      <trkpt lat="43.83868" lon="6.49428">
        <ele>717</ele>
        <time>2018-05-25T15:46:35Z</time>
      </trkpt>
      <trkpt lat="43.83868" lon="6.4943">
        <ele>717</ele>
        <time>2018-05-25T15:46:36Z</time>
      </trkpt>
      <trkpt lat="43.83867" lon="6.49432">
        <ele>717</ele>
        <time>2018-05-25T15:46:37Z</time>
      </trkpt>
      <trkpt lat="43.83866" lon="6.49433">
        <ele>717</ele>
        <time>2018-05-25T15:46:38Z</time>
      </trkpt>
      <trkpt lat="43.83864" lon="6.49434">
        <ele>717</ele>
        <time>2018-05-25T15:46:39Z</time>
      </trkpt>
      <trkpt lat="43.83861" lon="6.49434">
        <ele>717</ele>
        <time>2018-05-25T15:46:40Z</time>
      </trkpt>
      <trkpt lat="43.83852" lon="6.49438">
        <ele>717</ele>
        <time>2018-05-25T15:46:44Z</time>
      </trkpt>
      <trkpt lat="43.83851" lon="6.49441">
        <ele>717</ele>
        <time>2018-05-25T15:46:45Z</time>
      </trkpt>
      <trkpt lat="43.8385" lon="6.49445">
        <ele>717</ele>
        <time>2018-05-25T15:46:46Z</time>
      </trkpt>
      <trkpt lat="43.83856" lon="6.49451">
        <ele>717</ele>
        <time>2018-05-25T15:46:49Z</time>
      </trkpt>
      <trkpt lat="43.83858" lon="6.49451">
        <ele>717</ele>
        <time>2018-05-25T15:46:50Z</time>
      </trkpt>
      <trkpt lat="43.8386" lon="6.4945">
        <ele>717</ele>
        <time>2018-05-25T15:46:51Z</time>
      </trkpt>
      <trkpt lat="43.83861" lon="6.49448">
        <ele>717</ele>
        <time>2018-05-25T15:46:52Z</time>
      </trkpt>
      <trkpt lat="43.83863" lon="6.49444">
        <ele>717</ele>
        <time>2018-05-25T15:46:53Z</time>
      </trkpt>
      <trkpt lat="43.83863" lon="6.49441">
        <ele>717</ele>
        <time>2018-05-25T15:46:54Z</time>
      </trkpt>
      <trkpt lat="43.83857" lon="6.49434">
        <ele>717</ele>
        <time>2018-05-25T15:46:59Z</time>
      </trkpt>
      <trkpt lat="43.83853" lon="6.49435">
        <ele>717</ele>
        <time>2018-05-25T15:47:01Z</time>
      </trkpt>
      <trkpt lat="43.83851" lon="6.49436">
        <ele>717</ele>
        <time>2018-05-25T15:47:02Z</time>
      </trkpt>
      <trkpt lat="43.8385" lon="6.49438">
        <ele>717</ele>
        <time>2018-05-25T15:47:03Z</time>
      </trkpt>
      <trkpt lat="43.83848" lon="6.4944">
        <ele>717</ele>
        <time>2018-05-25T15:47:04Z</time>
      </trkpt>
      <trkpt lat="43.83845" lon="6.49441">
        <ele>717</ele>
        <time>2018-05-25T15:47:05Z</time>
      </trkpt>
      <trkpt lat="43.83843" lon="6.49443">
        <ele>717</ele>
        <time>2018-05-25T15:47:06Z</time>
      </trkpt>
      <trkpt lat="43.83842" lon="6.49446">
        <ele>717</ele>
        <time>2018-05-25T15:47:07Z</time>
      </trkpt>
      <trkpt lat="43.83852" lon="6.49455">
        <ele>717</ele>
        <time>2018-05-25T15:47:15Z</time>
      </trkpt>
      <trkpt lat="43.8386" lon="6.4945">
        <ele>717</ele>
        <time>2018-05-25T15:47:20Z</time>
      </trkpt>
      <trkpt lat="43.83861" lon="6.49448">
        <ele>717</ele>
        <time>2018-05-25T15:47:21Z</time>
      </trkpt>
      <trkpt lat="43.83861" lon="6.49445">
        <ele>717</ele>
        <time>2018-05-25T15:47:22Z</time>
      </trkpt>
      <trkpt lat="43.83861" lon="6.49443">
        <ele>717</ele>
        <time>2018-05-25T15:47:23Z</time>
      </trkpt>
      <trkpt lat="43.83851" lon="6.49436">
        <ele>717</ele>
        <time>2018-05-25T15:47:32Z</time>
      </trkpt>
      <trkpt lat="43.8385" lon="6.49438">
        <ele>717</ele>
        <time>2018-05-25T15:47:33Z</time>
      </trkpt>
      <trkpt lat="43.83848" lon="6.49439">
        <ele>717</ele>
        <time>2018-05-25T15:47:34Z</time>
      </trkpt>
      <trkpt lat="43.83846" lon="6.49441">
        <ele>717</ele>
        <time>2018-05-25T15:47:35Z</time>
      </trkpt>
      <trkpt lat="43.83843" lon="6.49443">
        <ele>717</ele>
        <time>2018-05-25T15:47:36Z</time>
      </trkpt>
      <trkpt lat="43.83841" lon="6.49444">
        <ele>717</ele>
        <time>2018-05-25T15:47:37Z</time>
      </trkpt>
      <trkpt lat="43.83838" lon="6.49446">
        <ele>717</ele>
        <time>2018-05-25T15:47:38Z</time>
      </trkpt>
      <trkpt lat="43.83836" lon="6.49447">
        <ele>717</ele>
        <time>2018-05-25T15:47:39Z</time>
      </trkpt>
      <trkpt lat="43.83792" lon="6.49466">
        <ele>715</ele>
        <time>2018-05-25T15:47:52Z</time>
      </trkpt>
      <trkpt lat="43.83771" lon="6.49501">
        <ele>716</ele>
        <time>2018-05-25T15:48:03Z</time>
      </trkpt>
      <trkpt lat="43.83779" lon="6.49548">
        <ele>717</ele>
        <time>2018-05-25T15:48:14Z</time>
      </trkpt>
      <trkpt lat="43.83782" lon="6.49575">
        <ele>719</ele>
        <time>2018-05-25T15:48:20Z</time>
      </trkpt>
      <trkpt lat="43.83768" lon="6.49577">
        <ele>719</ele>
        <time>2018-05-25T15:48:29Z</time>
      </trkpt>
    </trkseg>
  </trk>
</gpx>